     2              OBSERVATION DATA    G (GPS)             RINEX VERSION / TYPE
TRRINEXO V2.3.4 LH UCLA / SCEC 29-SEP-95 11:33              PGM / RUN BY / DATE
LOS ANGELES BASIN 1995                                      COMMENT
ARCHIVED BY: SOUTHERN CALIFORNIA EARTHQUAKE CENTER (SCEC)   COMMENT
ANTENNA DELTA H: DIRECT HEIGHT TO PRE-AMP BASE (DHPAB)      COMMENT
NOTE:                                                       COMMENT
FOR FURTHER INFORMATION CONTACT: DAVE JACKSON               COMMENT
UCLA / GEOLOGY BLDG., 595 CIRCLE DR E. RM 3806              COMMENT
LOS ANGELES CA 90024 DJACKSON@CYCLOP.ESS.UCLA.EDU           COMMENT
BIT 2 OF LLI (+4) FLAGS DATA COLLECTED UNDER "AS" CONDITION COMMENT
CUTT 1972                                                   MARKER NAME
M. ARIAS. C. HARRAN,UCLA                                    OBSERVER / AGENCY
1053 TRIMBLE 4000 SST 4.81                                  REC # / TYPE / VERS
272 TRIMBLE 4000 SST                                        ANT # / TYPE
 -2442940.0000 -4671950.0000  3580571.0000                  APPROX POSITION XYZ
        0.8384        0.0000        0.0000                  ANTENNA: DELTA H/E/N
     1     2                                                WAVELENGTH FACT L1/2
     3    C1    L1    L2                                    # / TYPES OF OBSERV
    30                                                      INTERVAL
  1995     9    27     0     1   30.000000                  TIME OF FIRST OBS
                                                            END OF HEADER
 95  9 27  0  1 30.0000000  0  6 15  1 21 25 14 20
  20969355.555          -0.51917
  23274569.227          -0.53616
  23677490.094          -0.76015
  20846364.984          -0.25217
  23087955.109          -0.19115
  24783643.984          -0.66615
 95  9 27  0  2  0.0000000  0  6 15  1 21 25 14 20
  20965756.438      -18930.931 7        -0.38719
  23283058.813       44605.714 6        -0.25516
  23688111.000       55797.764 5
  20841964.922      -23100.242 7        -0.41818
  23066308.734     -113760.365 5
  24778839.555      -25257.039 5        -0.46111
 95  9 27  0  2 30.0000000  0  6 15  1 21 25 14 20
  20962259.766      -37306.838 7    -14319.288 9
  23291536.906       89156.425 6     34714.578 6
  23698755.164      111746.924 5        -0.45713
  20837662.008      -45720.588 7    -17626.658 8
  23044656.570     -227540.674 5        -0.32112
  24774115.727      -50071.953 5    -19336.717 1
 95  9 27  0  3  0.0000000  0  6 15  1 21 25 14 20
  20958866.883      -55110.067 7    -28191.951 9
  23300005.047      133674.198 6     69403.735 6
  23709433.109      167865.137 5     43727.944 3
  20833453.563      -67845.034 7    -34866.478 8
  23023006.438     -341324.323 5    -88662.854 4
  24769489.906      -74416.990 5    -38306.833 1
 95  9 27  0  3 30.0000000  0  6 15  1 21 25 14 20
  20955589.500      -72344.702 7    -41621.554 9
  23308471.766      178138.475 6    104051.194 6
  23720142.695      224156.248 5     87591.047 2
  20829337.180      -89484.554 7    -51728.438 9
  23001348.000     -455115.699 5   -177331.439 3
  24764939.813      -98298.736 5    -56915.943 1
 95  9 27  0  4  0.0000000  0  6 15  1 21 25 14 20
  20952415.195      -89015.165 7    -54611.543 9
  23316917.938      222526.786 6    138639.458 6
  23730889.555      280631.527 5    131597.691 3
  20825310.102     -110645.164 7    -68217.229 8
  22979695.008     -568927.884 5   -266016.214 3
  24760489.125     -121712.326 5    -75160.264 2
 95  9 27  0  4 30.0000000  0  6 15  1 21 25 14 20
  20949350.172     -105120.712 7    -67161.340 9
  23325350.547      266848.682 6    173175.967 6
  23741671.172      337294.851 5    175750.844 3
  20821370.172     -131348.905 7    -84350.004 8
  22958028.141     -682767.813 5   -354722.637 3
  24756115.469     -144672.118 5    -93050.974 1
 95  9 27  0  5  0.0000000  0  6 15  1 21 25 14 20
  20946393.250     -120653.880 7    -79265.121 9
  23333777.344      311116.309 6    207670.198 5
  23752492.047      394153.180 5    220055.987 3
  20817517.711     -151584.023 7   -100117.629 8
  22936370.344     -796605.280 5   -443427.145 3
  24751834.008     -167189.334 5   -110596.791 2
 95  9 27  0  5 30.0000000  0  6 15  1 21 25 14 20
  20943546.555     -135620.278 7    -90927.268 9
  23342187.867      355323.534 6    242117.372 5
  23763348.430      451194.272 5    264503.525 2
  20813754.031     -171358.577 7   -115526.362 8
  22914705.461     -910432.215 5   -532123.414 2
  24747627.367     -189274.884 5   -127806.287 2
 95  9 27  0  6  0.0000000  0  6 15  1 21 25 14 20
  20940809.836     -150017.951 7   -102146.246 9
  23350594.133      399497.143 6    276538.342 6
  23774234.727      508414.511 5    309090.621 3
  20810073.906     -190673.958 7   -130577.305 8
  22893058.023    -1024224.527 6   -620792.744 4
  24743512.445     -210925.157 5   -144676.609 2
 95  9 27  0  6 30.0000000  0  6 15  1 21 25 14 20
  20938179.633     -163839.735 7   -112916.479 9
  23359000.328      443664.246 6    310954.241 6
  23785159.141      565807.567 5    353812.396 4
  20806489.227     -209522.532 7   -145264.504 8
  22871407.070    -1137961.866 5   -709419.227 2
  24739473.641     -232137.937 5   -161206.040 3
 95  9 27  0  7  0.0000000  0  6 15  1 21 25 14 20
  20935657.563     -177094.890 7   -123245.184 9
  23367400.188      487805.768 6    345350.187 6
  23796112.555      623372.341 5    398667.992 3
  20802994.320     -227906.386 7   -159589.585 8
  22849778.273    -1251649.965 5   -798007.352 3
  24735523.336     -252892.742 5   -177378.595 2
 95  9 27  0  7 30.0000000  0  6 15  1 21 25 14 20
  20933242.570     -189787.303 7   -133135.390 9
  23375792.008      531911.051 6    379717.915 6
  23807097.313      681100.867 5    443651.184 4
  20799580.242     -245839.034 7   -173563.072 8
  22828146.609    -1365307.325 5   -886571.502 3
  24731663.797     -273173.268 5   -193181.589 3
 95  9 27  0  8  0.0000000  0  6 15  1 21 25 14 20
  20930935.516     -201904.041 7   -142577.017 9
  23384176.211      575983.240 6    414059.854 6
  23818114.672      739003.348 5    488769.943 5
  20796259.141     -263304.856 7   -187172.796 8
  22806527.922    -1478930.935 6   -975109.345 4
  24727899.344     -292954.533 5   -208595.541 3
 95  9 27  0  8 30.0000000  0  6 15  1 21 25 14 20
  20928741.781     -213452.323 7   -151575.695 9
  23392556.680      619999.332 6    448358.079 5
  23829167.734      797074.301 4    534019.950 4
  20793021.523     -280304.576 7   -200419.325 8
  22784905.680    -1592552.822 6  -1063645.862 4
  24724227.906     -312235.660 4   -223619.790 2
 95  9 27  0  9  0.0000000  0  6 15  1 21 25 14 20
  20926648.195     -224434.455 7   -160133.220 9
  23400920.211      663963.015 6    482615.468 5
  23840251.867      855321.332 4    579407.156 5
  20789882.203     -296827.348 7   -213294.215 8
  22763281.883    -1706168.214 6  -1152177.308 4
  24720659.258     -331019.834 5   -238256.791 3
 95  9 27  0  9 30.0000000  0  6 15  1 21 25 14 20
  20924667.211     -234854.432 7   -168252.703 9
  23409278.391      707879.074 6    516835.737 6
  23851370.117      913735.774 4    624924.825 4
  20786822.367     -312875.022 7   -225798.899 8
  22741666.250    -1819769.086 6  -1240697.459 4
  24717167.641     -349327.351 5   -252522.375 2
 95  9 27  0 10  0.0000000  0  6 15  1 21 25 14 20
  20922789.250     -244708.327 7   -175931.084 9
  23417628.383      751765.281 6    551032.753 5
  23862510.617      972316.835 3    670572.379 4
  20783863.352     -328432.124 7   -237921.313 8
  22720053.547    -1933339.497 6  -1329193.878 4
  24713778.836     -367172.124 5   -266427.375 3
 95  9 27  0 10 30.0000000  0  7 15  1 21 25 14 20 22
  20921019.820     -253994.890 7   -183167.376 9
  23425978.008      795639.843 6    585220.685 5
  23873692.820     1031077.318 4    716359.703 5
  20780999.000     -343491.902 7   -249656.204 8
  22698448.141    -2046874.362 6  -1417662.576 5
  24710457.227     -384575.766 5   -279988.619 2
  24559414.828          -0.25713
 95  9 27  0 11  0.0000000  0  7 15  1 21 25 14 20 22
  20919363.734     -262715.671 7   -189962.806 9
  23434321.984      839497.630 6    619395.548 6
  23884911.930     1090015.233 3    762285.264 4
  20778226.844     -358068.504 7   -261014.601 8
  22676853.344    -2160355.799 6  -1506089.645 5
  24707234.336     -401547.034 5   -293212.955 2
  24536157.109     -122237.581 5
 95  9 27  0 11 30.0000000  0  7 15  1 21 25 14 20 22
  20917813.453     -270865.956 7   -196313.700 9
  23442664.500      883326.534 6    653547.911 6
  23896159.602     1149124.531 4    808344.392 2
  20775539.984     -372177.102 7   -272008.314 8
  22655266.531    -2273791.737 6  -1594481.256 5
  24704091.727     -418076.436 5   -306092.974 2
  24512873.250     -244587.009 4
 95  9 27  0 12  0.0000000  0  6 15  1 21 25 14 22
  20916370.461     -278450.076 7   -202223.419 9
  23450995.977      927119.421 6    687672.222 5
  23907440.523     1208402.773 4    854535.126 2
  20772941.859     -385821.162 7   -282640.047 8
  22633688.648    -2387187.485 6  -1682841.562 5
  24489569.867     -367030.695 2
 95  9 27  0 12 30.0000000  0  6 15  1 21 25 14 22
  20915036.242     -285471.769 7   -207694.878 9
  23459320.539      970858.990 6    721754.983 5
  23918752.656     1267864.848 4    900869.195 2
  20770432.281     -399018.155 7   -292923.421 8
  22612119.055    -2500539.589 6  -1771167.838 5
  24466248.922     -489574.052 2
 95  9 27  0 13  0.0000000  0  6 15  1 21 25 14 22
  20913803.023     -291937.202 7   -212732.893 9
  23467628.438     1014524.704 6    755780.193 5
  23930105.414     1327499.224 5    947337.430 1
  20768004.555     -411779.330 7   -302867.202 8
  22590560.289    -2613846.164 6  -1859458.670 5
  24442910.391     -612223.331 3
 95  9 27  0 13 30.0000000  0  6 15  1 21 25 14 22
  20912677.570     -297838.655 7   -217331.446 9
  23475929.609     1058131.222 6    789759.280 5
  23941486.148     1387309.708 5    993942.893 2
  20765662.609     -424089.845 7   -312459.803 8
  22569006.813    -2727101.017 6  -1947709.181 5
  24419553.680     -734969.804 5        -0.37811
 95  9 27  0 14  0.0000000  0  6 15  1 21 25 14 22
  20911662.242     -303174.351 7   -221489.141 9
  23484216.328     1101680.558 6    823693.792 5
  23952906.086     1447309.682 4   1040696.035 2
  20763407.063     -435933.439 7   -321688.578 8
  22547469.820    -2840286.297 6  -2035905.494 5
  24396176.945     -857806.464 5    -95717.165 1
 95  9 27  0 14 30.0000000  0  6 15  1 21 25 14 22
  20910760.898     -307947.876 7   -225208.788 9
  23492490.336     1145163.546 6    857576.603 5
  23964354.273     1507494.657 5   1087593.281 1
  20761240.750     -447303.094 7   -330548.041 8
  22525943.508    -2953412.395 6  -2124055.673 5
  24372788.977     -980748.285 5   -191515.737 1
 95  9 27  0 15  0.0000000  0  6 15  1 21 25 14 22
  20909954.797     -312170.411 7   -228499.091 9
  23500751.750     1188581.763 6    891408.944 5
  23975839.703     1567837.359 5   1134613.489 1
  20759172.711     -458202.005 7   -339040.693 8
  22504422.133    -3066501.604 6  -2212177.110 5
  24349365.680    -1103807.208 4   -287405.727 1
 95  9 27  0 15 30.0000000  0  6 15  1 21 25 14 22
  20909256.047     -315843.411 7   -231361.182 8
  23509005.859     1231945.831 6    925199.107 5
  23987353.055     1628339.016 5   1181757.536 2
  20757187.563     -468632.996 7   -347168.738 8
  22482906.211    -3179554.455 6  -2300270.216 5
  24325925.031    -1226990.625 4   -383392.680 1
 95  9 27  0 16  0.0000000  0  6 15  1 21 25 14 22
  20908658.820     -318971.847 7   -233798.947 9
  23517245.070     1275252.200 6    958944.297 5
  23998893.414     1688993.396 5   1229020.575 1
  20755285.445     -478599.221 7   -354934.624 8
  22461401.664    -3292581.933 6  -2388343.545 5
  24302455.609    -1350303.750 5   -479480.730 1
 95  9 27  0 16 30.0000000  0  6 15  1 21 25 14 22
  20908167.336     -321543.112 7   -235802.550 8
  23525481.031     1318530.973 6    992667.989 5
  24010466.945     1749802.029 5   1276403.869 1
  20753478.555     -488103.608 7   -362340.638 8
  22439897.055    -3405582.001 6  -2476395.524 5
  24278969.164    -1473738.579 5   -575663.564 1
 95  9 27  0 17  0.0000000  0  7 15  1 21 25 14 22 29
  20907790.883     -323556.559 7   -237371.491 8
  23533712.758     1361793.944 6   1026379.371 5
  24022069.914     1810766.196 5   1323908.319 1
  20751755.227     -497157.967 7   -369395.978 8
  22418401.148    -3518538.388 6  -2564413.465 5
  24255458.180    -1597276.694 5   -671926.951 1
  24018712.359          -0.87912
 95  9 27  0 17 30.0000000  0  7 15  1 21 25 14 22 29
  20907510.977     -325012.702 7   -238506.175 8
  23541941.766     1405033.219 6   1060072.286 5
  24033701.414     1871883.944 4   1371532.434 2
  20750117.781     -505759.525 7   -376098.486 8
  22396917.070    -3631440.563 6  -2652389.173 5
  24231933.492    -1720902.267 5   -768258.400 1
  23999710.680      -99843.395 2
 95  9 27  0 18  0.0000000  0  6 15  1 21 25 14 22
  20907333.898     -325902.519 7   -239199.563 9
  23550170.109     1448256.297 6   1093752.581 5
  24045355.234     1933164.429 4   1419283.356 3
  20748573.313     -513896.549 7   -382439.015 8
  22375444.883    -3744271.745 6  -2740309.545 5
  24208399.570    -1844584.993 5   -864634.405 1
 95  9 27  0 18 30.0000000  0  6 15  1 21 25 14 22
  20907277.164     -326232.999 7
  23558387.867     1491454.230 6   1127413.288 5
  24057049.984     1994616.934 4   1467168.349 3
  20747112.914     -521575.491 7   -388422.605 8
  22353988.516    -3857017.837 6  -2828163.629 5
  24184854.922    -1968315.561 5   -961047.671 1
 95  9 27  0 19  0.0000000  0  6 15  1 21 25 14 22
  20907323.664     -326010.503 7
  23566597.805     1534606.691 5   1161038.570 5
  24068772.352     2056231.040 4   1515179.263 4
  20745733.609     -528790.507 7   -394044.688 8
  22332551.906    -3969666.485 6  -2915941.765 5
  24161303.875    -2092089.083 5  -1057494.475 2
 95  9 27  0 19 30.0000000  0  6 15  1 21 25 14 22
  20907472.109     -325240.146 7   -238683.494 9
  23574798.875     1577704.292 6   1194621.068 5
  24080531.703     2117993.429 3   1563305.683 1
  20744449.766     -535546.800 7   -399309.333 8
  22311131.484    -4082219.693 6  -3003645.538 6
  24137738.055    -2215915.836 5  -1153982.717 1
 95  9 27  0 20  0.0000000  0  6 15  1 21 25 14 22
  20907722.625     -323909.177 7   -237646.396 9
  23582991.680     1620758.840 5   1228170.018 5
  24092312.680     2179931.965 2   1611569.463 1
  20743252.242     -541834.652 7   -404208.958 8
  22289738.711    -4194660.486 6  -3091261.720 5
  24114168.188    -2339779.919 5  -1250500.058 2
 95  9 27  0 20 30.0000000  0  5 15  1 25 14 22
  20908082.172     -322038.434 7   -236188.688 9
  23591172.305     1663745.434 5   1261666.032 5
  20742139.867     -547673.381 7   -408758.623 8
  22268354.148    -4307018.306 6  -3178813.254 6
  24090586.859    -2463708.527 5  -1347067.651 1
 95  9 27  0 21  0.0000000  0  5 15  1 25 14 22
  20908536.766     -319618.929 7   -234303.370 9
  23599343.437     1706675.848 5   1295118.275 5
  20741117.133     -553058.111 7   -412954.521 8
  22246991.805    -4419300.860 6  -3266306.122 6
  24066986.625    -2587703.733 5  -1443687.194 3
 95  9 27  0 21 30.0000000  0  5 15  1 25 14 22
  20909104.641     -316647.046 7   -231987.631 9
  23607502.250     1749558.964 5   1328533.674 5
  20740180.148     -557987.266 7   -416795.433 8
  22225640.055    -4531509.975 6  -3353741.774 6
  24043375.734    -2711751.555 3  -1540347.735 2
 95  9 27  0 22  0.0000000  0  5 15  1 25 14 22
  20909767.047     -313131.015 7   -229247.880 9
  23615653.625     1792389.468 5   1361908.078 5
  20739333.547     -562468.665 7   -420287.441 8
  22204292.188    -4643655.981 6  -3441128.249 6
  24019763.563    -2835860.477 3  -1637055.847 2
 95  9 27  0 22 30.0000000  0  5 15  1 25 14 22
  20910543.141     -309071.766 7   -226084.839 9
  23623795.609     1835172.406 6   1395245.406 5
  20738563.555     -566506.827 7   -423434.061 8
  22182969.273    -4755733.684 6  -3528461.510 6
  23996131.453    -2960041.258 3  -1733819.977 2
 95  9 27  0 22 59.9990000  0  6 15  1 25 14 22 29
  20911420.854     -304471.020 7   -222499.866 9
  23631929.448     1877912.293 6   1428549.196 5
  20737875.167     -570104.605 7   -426237.529 8
  22161653.628    -4867728.294 6  -3615730.021 6
  23972491.511    -3084276.195 3  -1830626.291 2
  23791505.409      -99134.714 3
 95  9 27  0 23 29.9990000  0  6 15  1 25 14 22 29
  20912393.644     -299341.999 7   -218503.249 9
  23640052.104     1920599.175 6   1461811.692 5
  20737274.792     -573264.320 7   -428699.647 8
  22140358.425    -4979652.673 6  -3702943.797 6
  23948840.815    -3208572.682 4  -1927480.552 2
  23772645.042     -198232.057 3
 95  9 27  0 23 59.9990000  0  6 15  1 25 14 22 29
  20913475.042     -293675.088 7   -214087.493 9
  23648164.792     1963241.178 6   1495039.190 5
  20736758.651     -575973.496 7   -430810.694 8
  22119076.456    -5091499.016 6  -3790096.776 6
  23925177.284    -3332922.538 4  -2024376.462 1
  23753800.112     -297268.268 3        -0.22911
 95  9 27  0 24 29.9990000  0  6 15  1 25 14 22 29
  20914653.175     -287464.449 7   -209248.043 9
  23656269.683     2005840.132 5   1528233.166 5
  20736327.011     -578228.076 7   -432567.513 8
  22097806.042    -5203264.565 6  -3877186.796 6
  23901501.386    -3457305.190 3  -2121297.882 3
  23734966.714     -396243.662 3
 95  9 27  0 24 59.9990000  0  6 15  1 25 14 22 29
  20915938.058     -280706.435 7   -203982.072 9
  23664367.987     2048402.602 5   1561398.704 5
  20735985.550     -580016.797 7   -433961.332 8
  22076553.159    -5314948.292 6  -3964213.055 6
  23877837.464    -3581703.201 4  -2218231.261 2
  23716138.612     -495136.233 3
 95  9 27  0 25 29.9990000  0  6 15  1 25 14 22 29
  20917331.425     -273392.248 7   -198282.726 9
  23672466.636     2090935.226 5   1594540.964 5
  20735740.058     -581335.879 7   -434989.189 8
  22055322.464    -5426533.100 7  -4051162.240 6
  23854165.315    -3706116.022 5  -2315176.197 2
  23697350.737     -593923.621 4        -0.10611
 95  9 27  0 25 59.9990000  0  6 15  1 25 14 22 29
  20918832.925     -265521.697 7   -192149.853 9
  23680553.628     2133442.493 5   1627663.485 5
  20735570.480     -582196.490 7   -435659.801 8
  22034110.128    -5537997.580 7  -4138017.658 6
  23830482.097    -3830542.844 3  -2412132.069 3
  23678574.417     -692611.101 4    -76899.346 1
 95  9 27  0 26 29.9990000  0  6 15  1 25 14 22 29
  20920431.534     -257100.629 7   -185588.003 8
  23688637.495     2175922.240 5   1660764.557 5
  20735490.558     -582607.528 7
  22012926.784    -5649323.481 7  -4224765.095 6
  23806801.190    -3954977.821 3  -2509094.237 1
  23659804.331     -791212.183 4   -153731.343 1
 95  9 27  0 26 59.9990000  0  6 15  1 25 14 22 29
  20922138.331     -248131.299 7   -178598.942 8
  23696713.026     2218382.990 5   1693850.834 5
  20735499.339     -582565.301 7
  21991768.979    -5760497.933 7  -4311394.526 6
  23783117.104    -4079421.289 3  -2606063.056 2
  23641053.612     -889729.811 3
 95  9 27  0 27 29.9990000  0  6 15  1 25 14 22 29
  20923946.878     -238611.402 7   -171180.868 8
  23704793.612     2260821.018 5   1726919.395 4
  20735596.331     -582073.816 7
  21970644.151    -5871505.911 7  -4397894.227 6
  23759440.183    -4203868.435 4  -2703034.773 2
  23622319.058     -988178.965 3
 95  9 27  0 27 59.9990000  0  6 15  1 25 14 22 29
  20925862.276     -228556.350 7   -163345.780 8
  23712862.417     2303222.040 5   1759959.138 4
  20735775.690     -581149.363 7   -434843.864 8
  21949546.784    -5982375.301 7  -4484285.940 7
  23735760.823    -4328321.876 5  -2800011.333 2
  23603591.065    -1086581.218 3
 95  9 27  0 28 29.9990000  0  6 15  1 25 14 22 29
  20927881.573     -217959.291 7   -155088.354 8
  23720921.644     2345591.176 5   1792974.010 4
  20736036.659     -579785.540 7   -433781.141 8
  21928475.440    -6093113.370 7  -4570575.345 6
  23712074.136    -4452770.660 5  -2896984.302 3
  23584879.972    -1184927.307 2
 95  9 27  0 28 59.9990000  0  6 15  1 25 14 22 29
  20929994.698     -206843.990 6   -146427.093 8
  23728974.378     2387904.579 5   1825945.492 5
  20736371.901     -578001.469 7   -432390.960 8
  21907422.276    -6203750.367 7  -4656785.970 7
  23688392.269    -4577233.178 5  -2993967.988 2
  23566181.714    -1283220.380 3
 95  9 27  0 29 29.9990000  0  6 15  1 25 14 22 29
  20932212.315     -195200.407 6   -137354.191 8
  23737019.245     2430171.435 5   1858880.671 4
  20736793.347     -575791.811 7   -430669.149 8
  21886387.058    -6314273.018 7  -4742907.501 7
  23664708.378    -4701690.146 5  -3090947.319 2
  23547486.261    -1381437.986 2
 95  9 27  0 29 59.9990000  0  6 15  1 25 14 22 29
  20934524.901     -183034.487 6   -127874.275 8
  23745054.354     2472394.850 5   1891781.999 3
  20737291.526     -573150.631 7   -428611.089 8
  21865376.690    -6424685.335 7  -4828943.055 7
  23641029.347    -4826139.016 5  -3187920.315 2
  23528809.331    -1479573.024 1
 95  9 27  0 30 29.9990000  0  5 15  1 25 14 22
  20936943.081     -170351.679 6   -117991.584 8
  23753079.940     2514573.925 5   1924648.800 4
  20737875.620     -570072.805 7   -426212.778 8
  21844390.409    -6534971.923 7  -4914880.640 7
  23617347.886    -4950579.951 5  -3284887.178 2
 95  9 27  0 30 59.9990000  0  5 15  1 25 14 22
  20939453.276     -157147.540 6   -107702.662 8
  23761097.534     2556715.803 5   1957486.600 4
  20738554.011     -566549.008 7   -423466.972 8
  21823432.300    -6645119.805 7  -5000710.133 7
  23593670.776    -5075000.671 5  -3381838.300 1
 95  9 27  0 31 29.9990000  0  5 15  1 25 14 22
  20942061.222     -143422.424 6    -97007.783 8
  23769110.019     2598815.683 5   1990291.681 3
  20739306.847     -562582.545 7   -420376.218 8
  21802496.714    -6755131.357 7  -5086433.408 7
  23569997.526    -5199399.803 5  -3478772.567 1
 95  9 27  0 31 59.9990000  0  5 15  1 25 14 22
  20944779.565     -129172.194 7    -85903.731 8
  23777114.206     2640874.073 5   2023064.382 4
  20740142.128     -558178.489 7   -416944.491 8
  21781587.784    -6865010.289 7  -5172053.337 7
  23546325.401    -5323777.004 5  -3575689.740 3
 95  9 27  0 32 29.9990000  0  5 15  1 25 14 22
  20947585.300     -114404.073 7    -74396.128 8
  23785107.995     2682878.737 5   2055795.265 4
  20741065.206     -553365.916 7   -413194.432 8
  21760698.503    -6974776.550 7  -5257585.469 7
  23522663.175    -5448138.737 5  -3672594.927 2
 95  9 27  0 32 59.9990000  0  5 15  1 25 14 22
  20950499.167      -99120.570 7    -62486.928 8
  23793088.284     2724815.112 5   2088472.940 4
  20742052.862     -548150.213 7   -409130.254 8
  21739830.917    -7084437.190 7  -5343035.304 7
  23499001.183    -5572488.878 5  -3769491.036 1
 95  9 27  0 33 29.9990000  0  5 15  1 25 14 22
  20953499.042      -83329.911 7    -50182.548 7
  23801054.612     2766685.831 5   2121099.456 4
  20743120.112     -542541.896 7   -404760.138 8
  21718981.745    -7193998.933 7  -5428408.084 7
  23475340.667    -5696834.439 5  -3866383.598 3
 95  9 27  0 33 59.9990000  0  5 15  1 25 14 22
  20956599.769      -67032.411 7    -37483.218 7
  23809012.401     2808505.220 5   2153685.987 3
  20744259.417     -536541.783 7   -400084.727 8
  21698153.948    -7303454.810 7  -5513698.364 7
  23451681.167    -5821168.502 5  -3963267.193 2
 95  9 27  0 34 29.9990000  0  5 15  1 25 14 22
  20959801.597      -50229.758 7    -24390.264 7
  23816959.519     2850276.778 5   2186235.198 5
  20745481.011     -530131.448 7   -395089.661 8
  21677349.362    -7412781.301 7  -5598887.820 7
  23428020.769    -5945479.183 5  -4060132.550 2
 95  9 27  0 34 59.9990000  0  5 15  1 25 14 22
  20963098.269      -32918.776 7    -10901.205 7
  23824904.136     2892013.115 5   2218757.034 4
  20746780.519     -523288.637 7   -389757.605 8
  21656576.831    -7521957.282 7  -5683960.000 7
  23404371.761    -6069752.729 5  -4156968.943 2
 95  9 27  0 35 29.9990000  0  5 15  1 25 14 22
  20966481.417      -15105.927 7      2978.916 7
  23832839.894     2933725.877 5   2251260.471 4
  20748163.847     -516028.264 7   -384100.177 8
  21635826.854    -7630983.356 7  -5768915.356 7
  23380734.081    -6193979.967 5  -4253769.275 2
 95  9 27  0 35 59.9990000  0  5 15  1 25 14 22
  20969966.964        3213.724 7     17253.939 7
  23840775.894     2975410.419 5   2283741.896 3
  20749630.245     -508341.642 7   -378110.609 8
  21615114.206    -7739832.406 7  -5853732.785 7
  23357103.409    -6318148.278 5  -4350523.760 1
 95  9 27  0 36 29.9990000  0  5 15  1 25 14 22
  20973553.190       22044.936 7     31927.581 7
  23848701.034     3017067.272 5   2316201.760 4
  20751173.159     -500221.698 7   -371783.380 8
  21594437.784    -7848487.977 7  -5938399.447 7
  23333490.206    -6442242.931 5  -4447220.754 1
 95  9 27  0 36 59.9990000  0  5 15  1 25 14 22
  20977227.042       41369.014 7     46985.274 7
  23856623.769     3058681.407 5   2348628.339 4
  20752798.159     -491688.228 7   -365133.920 8
  21573791.370    -7956980.930 7  -6022939.394 7
  23309885.854    -6566286.355 5  -4543877.877 2
 95  9 27  0 37 29.9990000  0  5 15  1 25 14 22
  20980999.878       61175.939 7     62419.214 8
  23864529.542     3100240.455 5   2381011.987 3
  20754500.222     -482749.675 7   -358168.816 8
  21553177.120    -8065315.937 7  -6107356.262 7
  23286283.745    -6690289.425 5  -4640503.574 2
 95  9 27  0 37 59.9990000  0  5 15  1 25 14 22
  20984863.972       81481.136 7     78241.423 8
  23872428.394     3141751.094 5   2413357.918 2
  20756279.253     -473378.189 7   -350866.361 8
  21532593.925    -8173480.493 7  -6191640.319 7
  23262701.761    -6814241.597 5  -4737089.619 1
 95  9 27  0 38 29.9990000  0  5 15  1 25 14 22
  20988825.831      102295.022 7     94460.010 8
  23880319.276     3183222.826 5   2445673.543 3
  20758143.870     -463558.779 7   -343214.879 8
  21512041.183    -8281483.754 7  -6275798.681 7
  23239127.565    -6938127.444 5  -4833623.942 1
 95  9 27  0 38 59.9990000  0  5 15  1 25 14 22
  20992879.854      123597.438 7    111059.270 8
  23888198.753     3224641.551 4   2477947.871 3
  20760095.331     -453314.064 7   -335231.987 8
  21491513.417    -8389352.504 7  -6359852.229 7
  23215556.964    -7061970.857 5  -4930125.253 2
 95  9 27  0 39 29.9990000  0  5 15  1 25 14 22
  20997029.190      145403.176 7    128050.726 8
  23896080.472     3266026.144 5   2510195.586 4
  20762127.987     -442651.196 7   -326923.274 8
  21471018.073    -8497062.639 7  -6443782.191 7
  23192006.284    -7185735.304 5  -5026564.982 2
 95  9 27  0 39 59.9990000  0  5 15  1 25 14 22
  21001267.995      167699.569 7    145424.511 8
  23903947.808     3307376.254 5   2542416.415 3
  20764233.386     -431593.581 7   -318306.953 8
  21450548.495    -8604626.640 7  -6527598.285 7
  23168467.628    -7309423.343 5  -5122945.225 2
 95  9 27  0 40 29.9990000  0  5 15  1 25 14 22
  21005608.917      190489.025 7    163182.505 8
  23911812.698     3348702.095 5   2574618.345 1
  20766410.784     -420147.481 7   -309387.918 8
  21430109.815    -8712032.221 7  -6611290.928 7
  23144953.253    -7433025.649 5  -5219258.592 2
 95  9 27  0 40 59.9990000  0  5 15  1 25 14 22
  21010034.128      213777.419 7    181329.291 8
  23919669.534     3390013.639 5   2606809.162 4
  20768665.886     -408312.453 7   -300165.825 8
  21409703.534    -8819252.416 7  -6694839.114 7
  23121448.776    -7556521.094 5  -5315488.711 2
 95  9 27  0 41 29.9990000  0  5 15  1 25 14 22
  21014561.659      237545.814 7    199850.111 8
  23927527.722     3431282.071 5   2638966.340 3
  20770981.378     -396104.978 7   -290653.509 8
  21389337.503    -8926289.740 7  -6778244.798 7
  23097964.433    -7679925.738 5  -5411648.083 2
 95  9 27  0 41 59.9990000  0  5 15  1 25 14 22
  21019171.675      261801.701 7    218750.782 8
  23935369.722     3472509.690 5   2671091.744 2
  20773383.112     -383496.911 7   -280829.038 8
  21369007.503    -9033125.498 7  -6861493.419 7
  23074501.511    -7803242.082 5  -5507738.642 3
 95  9 27  0 42 29.9990000  0  6 15  1 25 14 22 29
  21023888.261      286539.785 7    238027.192 8
  23943205.183     3513685.276 5   2703176.585 2
  20775860.128     -370481.676 7   -270687.301 8
  21348716.440    -9139752.814 7  -6944579.618 7
  23051039.894    -7926467.168 4  -5603758.125 2
  23066522.792          -0.74913
 95  9 27  0 42 59.9990000  0  6 15  1 25 14 22 29
  21028680.222      311750.510 6    257671.901 7
  23951032.823     3554813.509 5   2735224.569 2
  20778413.065     -357063.175 7   -260231.327 8
  21328466.980    -9246176.255 7  -7027506.958 7
  23027620.386    -8049596.960 5  -5699703.322 3
  23048214.354      -96222.904 3
 95  9 27  0 43 29.9990000  0  6 15  1 25 14 22 29
  21033564.714      337430.538 6    277682.293 7
  23958847.683     3595910.982 5   2767248.536 2
  20781046.690     -343238.884 7   -249459.154 8
  21308250.081    -9352405.371 7  -7110282.881 7
  23004203.886    -8172639.838 5  -5795580.787 3
  23029910.394     -192385.160 4        -0.43111
 95  9 27  0 43 59.9990000  0  6 15  1 25 14 22 29
  21038547.081      363590.347 6    298066.540 7
  23966675.409     3637000.557 5   2799266.389 3
  20783756.253     -328988.709 7   -238355.123 8
  21288070.425    -9458443.945 7  -7192910.320 7
  22980814.886    -8295562.388 5  -5891364.513 4
  23011629.300     -288461.746 4    -74865.228 1
 95  9 27  0 44 29.9990000  0  6 15  1 25 14 22 29
  21043620.745      390220.695 7    318817.446 7
  23974488.761     3678081.377 5   2831277.399 3
  20786548.683     -314324.351 7   -226928.349 8
  21267926.495    -9564316.213 7  -7275408.176 7
  22957447.612    -8418360.745 5  -5987051.460 4
  22993357.925     -384469.285 5   -149676.254 1
 95  9 27  0 44 59.9990000  0  6 15  1 25 14 22 29
  21048769.167      417320.044 7    339933.806 7
  23982306.386     3719144.652 5   2863274.747 2
  20789415.815     -299260.241 7   -215190.078 8
  21247808.401    -9670027.566 7  -7357780.642 7
  22934102.628    -8541041.447 5  -6082646.733 5
  22975104.753     -480407.665 5   -224433.432 2
 95  9 27  0 45 29.9990000  0  6 15  1 25 14 22 29
  21054017.620      444892.594 7    361418.887 7
  23990108.354     3760172.658 5   2895244.567 2
  20792357.315     -283803.139 7   -203145.579 8
  21227726.136    -9775569.432 7  -7440021.041 7
  22910778.464    -8663613.028 5  -6178156.975 5
  22956862.417     -576258.162 5   -299122.082 1
 95  9 27  0 45 59.9990000  0  6 15  1 25 14 22 29
  21059353.886      472938.326 7    383272.686 7
  23997909.839     3801148.010 5   2927173.383 3
  20795369.604     -267956.868 7   -190797.838 8
  21207677.394    -9880926.010 7  -7522117.064 7
  22887473.401    -8786077.607 5  -6273583.842 5
  22938640.800     -672017.155 5   -373739.407 1
 95  9 27  0 46 29.9980000  0  6 15  1 25 14 22 29
  21064776.537      501444.439 7    405485.221 7
  24005696.178     3842056.950 5   2959050.474 4
  20798459.451     -251748.642 7   -178168.049 8
  21187666.740    -9986073.411 7  -7604050.084 7
  22864182.412    -8908454.635 5  -6368942.530 5
  22920431.920     -767696.284 5   -448294.516 1
 95  9 27  0 46 59.9980000  0  6 15  1 25 14 22 29
  21070290.764      530414.703 7    428059.436 7
  24013462.654     3882906.839 4   2990881.537 4
  20801610.607     -235182.878 7   -165259.665 8
  21167704.568   -10090992.961 7  -7685805.562 7
  22840906.670    -9030747.182 5  -6464235.355 5
  22902245.467     -863289.467 5   -522782.643 1
 95  9 27  0 47 29.9980000  0  6 15  1 25 14 22 29
  21075890.467      559842.562 7    450990.212 7
  24021227.068     3923709.168 4   3022675.594 4
  20804828.764     -218254.332 7   -152068.585 8
  21147783.326   -10195674.175 7  -7767375.332 7
  22817665.436    -9152934.582 5  -6559446.249 5
  22884070.592     -958799.817 5   -597206.246 1
 95  9 27  0 47 59.9980000  0  6 15  1 25 14 22 29
  21081581.998      589723.569 7    474274.096 7
  24028985.670     3964478.344 4   3054443.780 4
  20808117.771     -200954.186 7   -138587.956 8
  21127907.451   -10300116.366 7  -7848758.836 7
  22794435.475    -9274989.639 5  -6654554.017 5
  22865909.318    -1054234.057 5   -671570.528 1
 95  9 27  0 48 29.9980000  0  6 15  1 25 14 22 29
  21087350.982      620050.654 7    497905.567 7
  24036740.092     4005215.295 5   3086186.877 4
  20811482.178     -183283.229 7   -124818.380 8
  21108075.732   -10404339.400 7  -7929971.573 7
  22771234.498    -9396894.362 5  -6749544.667 5
  22847761.881    -1149595.508 5   -745878.098 1
 95  9 27  0 48 59.9980000  0  6 15  1 25 14 22 29
  21093204.311      650833.247 7    521891.980 7
  24044488.045     4045929.839 5   3117912.474 4
  20814924.670     -165214.486 7   -110738.840 7
  21088282.764   -10508348.513 7  -8011017.613 7
  22748071.326    -9518617.043 5  -6844393.433 5
  22829636.139    -1244871.019 5   -820118.734 1
 95  9 27  0 49 29.9980000  0  6 15  1 25 14 22 29
  21099146.568      682053.553 7    546219.470 7
  24052227.147     4086606.819 5   3149608.803 3
  20818434.865     -146756.404 7    -96355.914 8
  21068528.311   -10612164.056 7  -8091912.820 7
  22724943.990    -9640165.027 5  -6939106.074 5
  22811514.264    -1340077.937 5   -894305.905 2
 95  9 27  0 49 59.9980000  0  6 15  1 25 14 22 29
  21105173.318      713709.617 7    570886.500 7
  24059959.279     4127234.373 5   3181266.642 3
  20822018.076     -127911.292 7    -81671.411 8
  21048805.959   -10715790.019 7  -8172660.309 7
  22701843.818    -9761545.737 5  -7033688.364 5
  22793411.045    -1435219.160 5   -968441.859 2
 95  9 27  0 50 29.9980000  0  6 15  1 25 14 22 29
  21111278.686      745800.258 7    595892.161 7
  24067684.818     4167818.083 5   3212890.299 3
  20825681.318     -108683.032 7    -66688.352 8
  21029126.779   -10819219.280 7  -8253254.526 7
  22678782.146    -9882763.693 5  -7128143.844 5
  22775312.248    -1530290.911 5  -1042523.706 2
 95  9 27  0 50 59.9980000  0  6 15  1 25 14 22 29
  21117467.943      778320.331 7    621232.441 7
  24075397.170     4208358.506 5   3244480.202 2
  20829409.545      -89095.219 7    -51425.122 8
  21009484.990   -10922431.797 7  -8333679.844 7
  22655742.592   -10003826.443 5  -7222478.362 5
  22757236.545    -1625301.919 5  -1116558.212 2
 95  9 27  0 51 29.9980000  0  6 15  1 25 14 22 29
  21123741.373      811270.899 7    646908.181 7
  24083104.826     4248867.353 5   3276045.511 1
  20833199.209      -69161.354 7    -35892.243 8
  20989889.131   -11025414.109 7  -8413925.790 7
  22632731.709   -10124753.186 5  -7316706.930 5
  22739170.459    -1720257.901 5  -1190549.869 2
 95  9 27  0 51 59.9980000  0  6 15  1 25 14 22 29
  21130085.639      844638.828 6    672909.138 8
  24090803.826     4289330.845 5   3307575.510 2
  20837056.607      -48894.032 7    -20099.530 8
  20970332.865   -11128172.966 7  -8493997.608 7
  22609740.951   -10245562.393 5  -7410843.903 5
  22721110.779    -1815173.133 5  -1264509.738 3
 95  9 27  0 52 29.9980000  0  6 15  1 25 14 22 29
  21136517.990      878428.433 7    699238.679 8
  24098497.287     4329754.327 4   3339074.325 2
  20840978.537      -28296.644 7     -4049.621 8
  20950823.904   -11230694.146 7  -8573884.224 7
  22586772.764   -10366255.238 5  -7504890.199 5
  22703056.545    -1910035.432 4  -1338428.378 4
 95  9 27  0 52 59.9980000  0  6 15  1 25 14 22 29
  21143030.850      912637.232 6    725894.859 8
  24106180.732     4370126.277 5   3370532.957 1
  20844958.584       -7374.169 7     12253.604 8
  20931360.561   -11332975.748 7  -8653584.155 7
  22563826.178   -10486844.814 5  -7598856.033 5
  22685010.725    -2004849.980 4  -1412309.803 4
 95  9 27  0 53 29.9980000  0  6 15  1 25 14 22 29
  21149611.389      947274.629 6    752885.020 8
  24113852.654     4410455.828 5   3401958.565 4
  20849009.428       13899.096 7     28830.174 8
  20911942.943   -11435022.111 7  -8733100.785 8
  22540899.061   -10607319.227 5  -7692732.145 5
  22666977.545    -2099603.837 5  -1486143.932 3
 95  9 27  0 53 59.9980000  0  6 15  1 25 14 22 29
  21156289.248      982335.447 6    780205.107 8
  24121518.537     4450732.574 5   3433343.059 3
  20853121.396       35525.008 7     45681.531 8
  20892565.600   -11536834.410 7  -8812435.031 8
  22517999.029   -10727653.630 5  -7786499.128 4
  22648964.967    -2194289.393 5  -1559924.848 4
 95  9 27  0 54 29.9980000  0  6 15  1 25 14 22 29
  21163044.240     1017818.818 6    807854.466 8
  24129175.959     4490966.032 5   3464693.775 2
  20857299.076       57505.531 7     62809.209 8
  20873239.834   -11638409.580 7  -8891584.492 8
  22495135.498   -10847826.093 5  -7880139.925 5
  22630961.545    -2288898.362 5  -1633646.080 5
 95  9 27  0 54 59.9980000  0  6 15  1 25 14 22 29
  21169877.475     1053733.806 6    835840.156 8
  24136830.162     4531188.077 4   3496035.644 1
  20861553.701       79864.252 7     80231.589 8
  20853954.529   -11739747.342 7  -8970548.974 8
  22472302.295   -10967805.654 5  -7973630.408 4
  22612973.568    -2383424.719 5  -1707302.950 5
 95  9 27  0 55 29.9980000  0  6 15  1 25 14 22 29
  21176791.678     1090067.112 7    864151.786 8
  24144474.553     4571385.896 3   3527358.614 1
  20865882.990      102597.758 7     97946.004 9
  20834712.162   -11840866.727 7  -9049343.278 8
  22449506.748   -11087577.631 5  -8066959.163 3
  22594993.287    -2477870.246 4  -1780896.824 4
 95  9 27  0 55 59.9980000  0  5 15 25 14 22 29
  21183784.475     1126813.562 7    892785.360 7
  20870279.686      125698.815 7    115946.828 9
  20815512.459   -11941763.420 7  -9127964.067 8
  22426759.123   -11207136.503 5  -8160121.847 4
  22577039.865    -2572232.891 4  -1854426.136 5
 95  9 27  0 56 29.9980000  0  5 15 25 14 22 29
  21190855.881     1163978.687 7    921745.163 7
  20874745.498      149156.958 7    134225.900 9
  20796353.717   -12042434.378 7  -9206408.959 8
  22404046.897   -11326475.479 5  -8253113.191 4
  22559101.811    -2666510.372 4  -1927889.108 5
 95  9 27  0 56 59.9980000  0  5 15 25 14 22 29
  21198004.287     1201561.550 6    951030.484 7
  20879277.834      172958.712 7    152772.727 8
  20777242.576   -12142876.121 7  -9284675.238 8
  22381381.521   -11445597.107 6  -8345935.145 4
  22541180.654    -2760695.277 5  -2001279.899 5
 95  9 27  0 57 29.9980000  0  5 15 25 14 22 29
  21205235.045     1239548.998 7    980631.070 7
  20883866.811      197091.154 7    171577.220 8
  20758173.857   -12243082.056 7  -9362757.760 8
  22358751.154   -11564503.553 6  -8438589.471 4
  22523269.561    -2854796.475 5  -2074605.474 5
 95  9 27  0 57 59.9980000  0  5 15 25 14 22 29
  21212537.537     1277940.187 6   1010546.270 7
  20888525.186      221556.296 7    190640.964 8
  20739153.225   -12343034.740 7  -9440642.950 8
  22336169.311   -11683190.698 6  -8531072.909 3
  22505382.498    -2948816.452 5  -2147867.752 5
 95  9 27  0 58 29.9980000  0  5 15 25 14 22 29
  21219923.357     1316733.196 6   1040774.578 7
  20893243.514      246360.246 7    209968.713 8
  20720182.467   -12442720.233 7  -9518319.941 8
  22313631.881   -11801650.432 6  -8623379.127 4
  22487507.443    -3042749.530 5  -2221062.306 5
 95  9 27  0 58 59.9980000  0  5 15 25 14 22 29
  21227381.022     1355928.999 6   1071316.757 7
  20898031.764      271527.112 7    229579.254 8
  20701267.725   -12542121.509 7  -9595775.463 8
  22291131.756   -11919881.626 6  -8715507.265 5
  22469654.240    -3136594.281 5  -2294188.055 5
 95  9 27  0 59 29.9980000  0  5 15 25 14 22 29
  21234911.764     1395505.557 6   1102155.619 7
  20902886.373      297043.331 7    249462.023 8
  20682405.748   -12641243.718 7  -9673013.536 8
  22268665.850   -12037904.179 5  -8807472.846 5
  22451796.654    -3230387.074 4  -2367273.318 5
 95  9 27  0 59 59.9980000  0  5 15 25 14 22 29
  21242524.318     1435476.007 6   1133301.408 7
  20907803.201      322905.182 7    269614.116 8
  20663600.928   -12740063.801 7  -9750016.178 8
  22246251.318   -12155716.078 6  -8899274.267 5
  22433962.389    -3324101.805 4  -2440297.748 5
 95  9 27  1  0 29.9980000  0  5 15 25 14 22 29
  21250203.600     1475844.222 7   1164757.128 7
  20912791.123      349098.761 7    290024.710 8
  20644853.772   -12838574.754 7  -9826777.938 8
  22223871.021   -12273322.818 6  -8990915.826 5
  22416152.389    -3417733.706 5  -2513257.640 5
 95  9 27  1  0 59.9980000  0  5 15 25 14 22 29
  21257958.568     1516603.976 7   1196517.951 7
  20917839.412      375621.482 7    310691.765 8
  20626163.943   -12936788.068 7  -9903307.772 8
  22201528.928   -12390738.220 6  -9082408.273 5
  22398346.912    -3511294.434 5  -2586162.086 5
 95  9 27  1  1 29.9980000  0  5 15 25 14 22 29
  21265783.990     1557745.784 6   1228576.476 7
  20922950.764      402462.652 7    331606.970 8
  20607530.936   -13034716.672 7  -9979615.763 8
  22179221.811   -12507965.144 6  -9173753.867 5
  22380557.217    -3604779.671 3  -2659007.690 5
 95  9 27  1  1 59.9980000  0  5 15 25 14 22 29
  21273689.576     1599265.675 6   1260929.607 6
  20928118.428      429617.388 7    352766.503 8
  20588947.186   -13132372.241 7 -10055710.991 7
  22156947.912   -12625001.775 6  -9264951.182 5
  22362780.982    -3698178.626 2  -2731786.058 5
 95  9 27  1  2 29.9980000  0  5 15 25 14 22 29
  21281657.881     1641158.453 6   1293573.300 6
  20933346.311      457102.820 7    374183.731 8
  20570412.662   -13229759.503 7 -10131597.150 7
  22134712.584   -12741829.801 6  -9355985.937 5
  22345016.053    -3791501.251 2  -2804504.934 5
 95  9 27  1  2 59.9980000  0  5 15 25 14 22 29
  21289700.365     1683420.299 6   1326504.577 6
  20938637.248      484927.763 7    395865.508 8
  20551933.365   -13326879.031 7 -10207274.684 7
  22112532.022   -12858435.839 6  -9446847.729 5
  22327289.029    -3884752.280 4  -2877168.025 5
 95  9 27  1  3 29.9980000  0  5 15 25 14 22 29
  21297819.357     1726053.475 6   1359725.195 6
  20943999.162      513082.503 7    417804.271 8
  20533506.889   -13423712.915 7 -10282729.642 7
  22090384.475   -12974795.840 6  -9537517.792 5
  22309544.287    -3977933.710 5  -2949776.889 5
 95  9 27  1  3 59.9980000  0  5 15 25 14 22 29
  21305995.295     1769051.454 6   1393230.088 6
  20949419.139      541558.929 7    439993.697 8
  20515134.857   -13520259.705 7 -10357960.893 7
  22068288.147   -13090901.315 5  -9627989.537 5
  22291816.600    -4071057.533 5  -3022340.866 5
 95  9 27  1  4 29.9980000  0  5 15 25 14 22 29
  21314250.068     1812415.011 6   1427019.843 6
  20954896.350      570358.081 7    462434.597 8
  20496815.756   -13616515.207 7 -10432965.166 7
  22046250.772   -13206737.742 6  -9718251.633 6
  22274108.357    -4164129.147 5  -3094864.160 5
 95  9 27  1  4 59.9980000  0  5 15 25 14 22 29
  21322566.170     1856129.755 6   1461083.248 6
  20960433.146      599443.265 7    485098.381 8
  20478549.732   -13712499.556 7 -10507758.148 7
  22024251.451   -13322326.128 5  -9808320.437 6
  22256410.303    -4257162.720 5  -3167357.802 5
 95  9 27  1  5 29.9980000  0  5 15 25 14 22 29
  21330958.240     1900211.092 6   1495432.303 7
  20966020.045      628819.616 7    507989.051 8
  20460342.654   -13808189.326 7 -10582321.591 7
  22002304.232   -13437649.668 6  -9898182.876 5
  22238726.131    -4350122.665 5  -3239794.064 5
 95  9 27  1  5 59.9980000  0  5 15 25 14 22 29
  21339412.725     1944651.918 6   1530061.494 7
  20971664.725      658474.892 7    531097.061 8
  20442188.193   -13903595.955 7 -10656664.402 7
  21980406.686   -13552720.442 5  -9987848.376 6
  22221055.772    -4442991.068 5  -3312159.035 5
 95  9 27  1  6 29.9980000  0  5 15 25 14 22 29
  21347933.342     1989439.217 7   1564960.648 7
  20977357.147      688388.036 7    554406.002 7
  20424086.256   -13998728.332 7 -10730793.514 7
  21958552.154   -13667555.996 5 -10077330.551 6
  22203387.568    -4535775.216 5  -3384458.334 5
 95  9 27  1  6 59.9980000  0  5 15 25 14 22 29
  21356526.701     2034578.539 7   1600134.121 7
  20983097.154      718572.839 7    577926.632 8
  20406035.631   -14093570.005 7 -10804696.103 7
  21936748.107   -13782153.686 6 -10166627.380 6
  22185755.100    -4628453.120 5  -3456674.839 5
 95  9 27  1  7 29.9980000  0  5 15 25 14 22 29
  21365183.115     2080074.358 6   1635585.377 6
  20988905.545      749059.961 7    601682.834 8
  20388047.865   -14188103.031 7 -10878358.181 7
  21914991.756   -13896494.945 6 -10255724.431 6
  22168143.475    -4721008.564 5  -3528795.920 5
 95  9 27  1  7 59.9980000  0  5 15 25 14 22 29
  21373905.662     2125916.409 7   1671306.422 6
  20994766.381      779858.604 7    625681.776 8
  20370114.912   -14282336.684 7 -10951786.979 8
  21893281.920   -14010580.201 6 -10344621.972 6
  22150553.193    -4813464.331 5  -3600839.322 5
 95  9 27  1  8 29.9980000  0  5 15 25 14 22 29
  21382696.967     2172097.547 6   1707291.688 6
  21000687.193      810987.235 7    649937.858 8
  20352240.631   -14376264.005 7 -11024977.080 8
  21871618.279   -14124404.094 6 -10433315.855 5
  22132969.795    -4905851.475 5  -3672829.243 5
 95  9 27  1  8 59.9980000  0  5 15 25 14 22 29
  21391551.225     2218617.655 6   1743541.086 6
  21006673.397      842454.818 7    674458.054 8
  20334428.389   -14469874.749 7 -11097920.505 8
  21850010.928   -14237949.696 6 -10521792.888 5
  22115402.123    -4998175.129 5  -3744769.692 5
 95  9 27  1  9 29.9970000  0  5 15 25 14 22 29
  21400467.196     2265486.941 6   1780062.569 6
  21012729.188      874272.546 7    699251.092 8
  20316677.860   -14563149.206 7 -11170601.880 8
  21828460.329   -14351192.226 6 -10610033.760 5
  22097843.032    -5090432.124 5  -3816658.212 5
 95  9 27  1  9 59.9970000  0  5 15 25 14 22 29
  21409449.392     2312690.438 6   1816844.484 6
  21018844.642      906412.792 7    724295.450 8
  20298991.399   -14656105.105 7 -11243035.032 8
  21806967.220   -14464151.395 6 -10698053.840 5
  22080292.837    -5182657.802 5  -3888522.320 5
 95  9 27  1 10 29.9970000  0  5 15 25 14 22 29
  21418493.548     2360223.213 6   1853882.984 6
  21025022.212      938853.871 7    749574.215 8
  20281360.204   -14748743.052 7 -11315220.425 8
  21785529.071   -14576822.334 6 -10785849.300 5
  22062751.485    -5274837.397 6  -3960350.556 5
 95  9 27  1 10 59.9970000  0  5 15 25 14 22 29
  21427602.946     2408077.925 6   1891172.361 7
  21031245.954      971571.889 7    775068.778 8
  20263790.618   -14841080.045 7
  21764139.931   -14689204.117 6 -10873419.457 6
  22045226.603    -5366951.663 6
 95  9 27  1 11 29.9970000  0  5 15 25 14 22 29
  21436771.540     2456261.778 6   1928718.185 6
  21037524.142     1004566.399 7    800778.786 8
  20246280.251   -14933111.220 7
  21742807.939   -14801285.253 6 -10960755.356 5
  22027711.868    -5458990.473 6
 95  9 27  1 11 59.9970000  0  5 15 25 14 22 29
  21445999.907     2504766.766 6   1966514.273 6
  21043849.712     1037817.798 7    826688.980 8
  20228825.243   -15024835.957 7 -11530357.703 8
  21721539.782   -14913065.701 6 -11047856.941 6
  22010208.524    -5550957.445 6  -4175508.944 5
 95  9 27  1 12 29.9970000  0  5 15 25 14 22 29
  21455292.782     2553594.317 6   2004561.681 6
  21050224.845     1071327.209 7    852800.210 8
  20211425.165   -15116242.623 7 -11601583.657 8
  21700327.876   -15024537.434 6 -11134717.983 6
  21992724.712    -5642840.659 5  -4247106.208 5
 95  9 27  1 12 59.9970000  0  5 15 25 14 22 29
  21464645.243     2602739.493 6   2042856.591 6
  21056651.204     1105103.079 7    879119.081 8
  20194098.345   -15207306.147 7 -11672542.239 8
  21679176.017   -15135689.932 6 -11221330.262 6
  21975246.978    -5734650.622 5  -4318646.400 5
 95  9 27  1 13 29.9970000  0  5 15 25 14 22 29
  21474054.228     2652190.070 6   2081389.475 6
  21063134.868     1139138.591 7    905640.261 8
  20176838.571   -15298017.985 7 -11743226.778 8
  21658083.298   -15246539.173 6 -11307706.252 6
  21957798.470    -5826400.844 6  -4390140.049 5
 95  9 27  1 13 59.9970000  0  5 15 25 14 22 29
  21483527.720     2701948.005 6   2120161.853 6
  21069662.978     1173450.341 7    932376.691 8
  20159644.649   -15388360.524 7 -11813623.548 8
  21637048.329   -15357084.851 6 -11393845.681 6
  21940351.056    -5918067.581 6  -4461568.637 5
 95  9 27  1 14 29.9970000  0  5 15 25 14 22 29
  21493053.345     2752009.973 6   2159171.148 6
  21076246.470     1208053.189 7    959339.943 8
  20142522.642   -15478337.070 7 -11883735.123 8
  21616071.579   -15467322.924 6 -11479745.419 6
  21922927.165    -6009635.527 6  -4532920.264 5
 95  9 27  1 14 59.9970000  0  5 15 25 14 22 29
  21502630.470     2802368.314 6   2198411.379 6
  21082885.329     1242945.030 7    986528.389 8
  20125467.204   -15567967.823 7 -11953577.252 8
  21595151.587   -15577269.538 6 -11565418.049 6
  21905520.001    -6101106.258 6  -4604196.150 5
 95  9 27  1 15 29.9970000  0  5 15 25 14 22 29
  21512274.790     2853030.092 6   2237888.062 6
  21089578.118     1278132.569 7   1013947.241 8
  20108476.360   -15657263.022 7 -12023157.912 8
  21574283.993   -15686921.414 6 -11650861.015 6
  21888135.032    -6192465.316 6  -4675385.019 5
 95  9 27  1 15 59.9970000  0  5 15 25 14 22 29
  21521972.688     2903992.302 6   2277598.840 6
  21096333.337     1313609.871 7   1041591.900 8
  20091545.423   -15746224.864 7 -12092478.811 8
  21553472.501   -15796265.430 6 -11736064.081 6
  21870769.923    -6283722.148 6  -4746494.212 5
 95  9 27  1 16 29.9970000  0  5 15 25 14 22 29
  21531725.517     2955251.697 6   2317541.198 6
  21103140.938     1349366.042 7   1069453.848 7
  20074681.860   -15834861.151 7 -12161546.027 8
  21532727.360   -15905295.739 6 -11821022.714 6
  21853419.345    -6374888.595 6  -4817532.985 5
 95  9 27  1 16 59.9970000  0  5 15 25 14 22 29
  21541532.142     3006801.834 6   2357710.109 6
  21109989.204     1385381.067 7   1097517.511 7
  20057875.798   -15923162.821 7 -12230352.507 8
  21512042.478   -16014005.692 6 -11905731.712 6
  21836084.501    -6465981.931 6  -4888514.790 5
 95  9 27  1 17 29.9970000  0  5 15 25 14 22 29
  21551397.626     3058650.874 6   2398111.933 6
  21116892.915     1421658.741 7   1125785.833 7
  20041142.423   -16011102.461 7 -12298876.885 8
  21491418.259   -16122364.164 6 -11990166.830 6
  21818763.470    -6556993.711 6  -4959433.024 5
 95  9 27  1 17 59.9970000  0  5 15 25 14 22 29
  21561321.853     3110788.514 6   2438738.646 6
  21123844.985     1458183.740 7   1154246.877 7
  20024476.923   -16098676.009 7 -12367115.991 8
  21470865.720   -16230375.969 6 -12074331.811 6
  21801459.845    -6647938.853 6  -5030299.346 6
 95  9 27  1 18 29.9970000  0  5 15 25 14 22 29
  21571294.790     3163199.907 6   2479578.673 6
  21130839.681     1494938.282 7   1182886.783 7
  20007878.782   -16185884.430 7 -12435070.589 8
  21450375.134   -16338059.728 6 -12158241.181 6
  21784166.360    -6738829.740 6  -5101123.382 6
 95  9 27  1 18 59.9970000  0  5 15 25 14 22 29
  21581322.946     3215890.957 6   2520636.592 6
  21137876.423     1531928.012 7   1211709.953 7
  19991361.884   -16272709.546 7 -12502726.503 8
  21429946.743   -16445402.035 6 -12241884.472 6
  21766878.165    -6829661.654 6  -5171901.469 6
 95  9 27  1 19 29.9970000  0  5 15 25 14 22 29
  21591401.165     3268847.109 6   2561901.096 6
  21144961.126     1569149.000 7   1240713.325 7
  19974905.829   -16359169.408 7 -12570097.808 8
  21409579.626   -16552423.829 6 -12325278.019 6
  21749603.579    -6920453.555 6  -5242648.371 6
 95  9 27  1 19 59.9970000  0  5 15 25 14 22 29
  21601526.071     3322065.531 6   2603369.961 6
  21152090.134     1606603.972 7   1269899.023 7
  19958524.321   -16445260.083 7 -12637181.438 8
  21389283.610   -16659123.229 6 -12408420.350 6
  21732331.571    -7011210.836 7  -5313368.285 6
 95  9 27  1 20 29.9970000  0  5 15 25 14 22 29
  21611704.040     3375541.356 6   2645039.389 6
  21159262.478     1644307.051 7   1299278.044 7
  19942210.884   -16530993.490 7 -12703986.670 8
  21369035.103   -16765491.954 6 -12491305.013 6
  21715069.103    -7101920.709 7  -5384051.265 6
 95  9 27  1 20 59.9970000  0  5 15 25 14 22 29
  21621923.610     3429273.676 6   2686908.692 6
  21166484.774     1682275.384 7   1328863.768 7
  19925958.212   -16616387.270 7 -12770527.264 8
  21348865.329   -16871510.265 6 -12573916.633 6
  21697822.173    -7192573.388 7  -5454689.667 6
 95  9 27  1 21 29.9970000  0  5 15 25 14 22 29
  21632206.196     3483264.710 6   2728979.598 6
  21173763.173     1720517.850 7   1358663.088 7
  19909775.798   -16701437.366 7 -12836800.056 8
  21328758.392   -16977166.479 6 -12656246.098 6
  21680581.243    -7283153.187 7  -5525271.284 6
 95  9 27  1 21 59.9970000  0  5 15 25 14 22 29
  21642521.821     3537513.699 6   2771251.498 6
  21181093.087     1759031.046 7   1388673.382 7
  19893658.353   -16786139.291 7 -12902801.541 8
  21308716.048   -17082458.938 6 -12738292.114 6
  21663364.548    -7373637.314 6  -5595778.339 6
 95  9 27  1 22 29.9970000  0  5 15 25 14 22 29
  21652896.673     3592016.455 6   2813721.148 6
  21188473.845     1797812.419 7   1418892.644 7
  19877603.806   -16870492.089 7 -12968530.978 8
  21288750.720   -17187396.276 6 -12820061.428 6
  21646166.860    -7464022.462 6  -5666208.271 6
 95  9 27  1 22 59.9970000  0  5 15 25 14 22 29
  21663315.181     3646772.709 6   2856388.331 6
  21195896.845     1836837.765 7   1449302.011 7
  19861623.353   -16954481.433 7 -13033977.211 8
  21268850.126   -17291973.871 6 -12901550.400 6
  21628980.282    -7554316.279 6  -5736567.038 6
 95  9 27  1 23 29.9970000  0  5 15 25 14 22 29
  21673779.501     3701753.347 6   2899230.358 6
  21203363.087     1876056.974 7   1479862.450 7
  19845710.696   -17038115.915 7 -13099146.929 8
  21249012.228   -17396229.372 6 -12982788.396 6
  21611815.017    -7644547.509 6  -5806877.043 6
 95  9 27  1 23 59.9970000  0  5 15 25 14 22 29
  21684287.571     3756975.140 6   2942260.298 6
  21210867.282     1915478.267 7   1510580.342 7
  19829862.407   -17121378.888 7 -13164027.156 8
  21229243.438   -17500139.998 6 -13063757.639 6
  21594656.056    -7734708.895 6  -5877132.623 6
 95  9 27  1 24 29.9970000  0  5 15 25 14 22 29
  21694836.063     3812428.840 6   2985470.933 6
  21218401.806     1955086.339 7   1541443.778 7
  19814088.454   -17204273.240 7 -13228620.146 8
  21209530.134   -17603693.310 6 -13144448.492 6
  21577508.423    -7824820.441 6  -5947349.372 6
 95  9 27  1 24 59.9970000  0  5 15 25 14 22 29
  21705436.267     3868114.455 6   3028862.277 5
  21225967.212     1994870.492 7   1572444.432 7
  19798382.603   -17286796.248 7 -13292923.777 8
  21189898.767   -17706877.932 6 -13224852.021 6
  21560373.540    -7914873.485 6  -6017520.545 6
 95  9 27  1 25 29.9970000  0  5 15 25 14 22 29
  21716076.290     3924023.793 6   3072427.949 6
  21233576.064     2034843.085 7   1603591.903 7
  19782754.392   -17368937.930 7 -13356930.272 7
  21170327.587   -17809700.153 6 -13304973.176 6
  21543247.564    -8004868.766 6  -6087646.698 6
 95  9 27  1 25 59.9970000  0  5 15 25 14 22 29
  21726756.267     3980166.040 6   3116175.111 6
  21241230.673     2075027.603 7   1634904.523 7
  19767198.282   -17450678.862 7 -13420624.496 7
  21150839.704   -17912138.197 6 -13384794.978 7
  21526132.892    -8094788.043 6  -6157713.625 6
 95  9 27  1 26 29.9970000  0  5 15 25 14 22 29
  21737488.079     4036533.271 6   3160097.593 6
  21248912.314     2115426.839 7   1666384.455 7
  19751723.103   -17532009.133 7 -13483998.724 8
  21131418.040   -18014187.141 6 -13464313.587 7
  21509036.181    -8184618.859 6  -6227711.641 6
 95  9 27  1 26 59.9970000  0  5 15 25 14 22 29
  21748257.618     4093129.406 6   3204198.436 6
  21256646.821     2156059.522 7   1698046.277 7
  19736327.517   -17612917.077 7 -13547043.866 8
  21112073.189   -18115834.293 6 -13543519.116 6
  21491964.821    -8274345.308 6  -6297628.335 6
 95  9 27  1 27 29.9970000  0  5 15 25 14 22 29
  21759065.165     4149951.269 6   3248475.182 6
  21264421.798     2196938.605 7   1729900.123 7
  19721009.720   -17693405.557 7 -13609762.149 8
  21092814.399   -18217063.875 6 -13622399.259 7
  21474907.259    -8363973.756 6  -6367468.653 6
 95  9 27  1 27 59.9970000  0  5 15 25 14 22 29
  21769924.274     4207005.949 6   3292933.358 6
  21272249.845     2238062.745 7   1761944.908 7
  19705771.657   -17773496.403 7 -13672170.588 8
  21073630.181   -18317851.644 6 -13700935.131 6
  21457874.134    -8453495.760 6  -6437226.033 6
 95  9 27  1 28 29.9970000  0  5 15 25 14 22 29
  21780825.798     4264288.722 6   3337569.271 6
  21280121.243     2279430.308 7   1794179.371 7
  19690600.618   -17853202.532 7 -13734279.242 8
  21054537.087   -18418200.521 6 -13779129.011 6
  21440858.774    -8542924.080 6  -6506910.400 6
 95  9 27  1 28 59.9970000  0  5 15 25 14 22 29
  21791767.501     4321787.028 6   3382373.123 6
  21288036.493     2321031.319 7   1826595.764 7
  19675502.345   -17932544.566 7 -13796104.188 8
  21035518.142   -18518136.140 6 -13857000.860 7
  21423853.524    -8632282.553 6  -6576540.362 6
 95  9 27  1 29 29.9970000  0  5 15 25 14 22 29
  21802748.759     4379496.126 6   3427341.228 6
  21295996.509     2362860.737 7   1859190.113 7
  19660471.110   -18011528.668 7 -13857650.233 8
  21016576.103   -18617678.556 6 -13934566.317 6
  21406857.353    -8721587.586 6  -6646128.665 6
 95  9 27  1 29 59.9970000  0  5 15 25 14 22 29
  21813771.446     4437413.350 6   3472471.498 6
  21304002.892     2404917.332 7   1891961.488 7
  19645512.813   -18090126.797 7 -13918895.512 8
  20997704.759   -18716846.914 6 -14011840.322 6
  21389876.345    -8810833.336 6  -6715670.769 6
 95  9 27  1 30 29.9970000  0  5 15 25 14 22 29
  21824831.595     4495543.507 6   3517767.688 6
  21312048.626     2447210.675 6   1924917.348 7
  19630643.814   -18168285.048 7 -13979798.036 8
  20978904.845   -18815635.816 6 -14088818.646 6
  21372906.899    -8900005.124 6  -6785155.249 6
 95  9 27  1 30 59.9970000  0  5 15 25 14 22 29
  21835933.540     4553878.142 6   3563223.216 6
  21320139.751     2489728.023 6   1958047.755 7
  19615856.337   -18245999.626 7 -14040354.834 7
  20960182.931   -18914038.135 6 -14165495.724 6
  21355949.079    -8989104.348 6  -6854583.182 6
 95  9 27  1 31 29.9960000  0  5 15 25 14 22 29
  21847074.379     4612412.301 6   3608834.212 5
  21328271.668     2532457.709 7   1991343.626 7
  19601156.246   -18323241.564 7 -14100543.341 8
  20941529.598   -19012030.557 6 -14241853.412 6
  21339016.387    -9078116.955 6  -6923943.614 6
 95  9 27  1 31 59.9960000  0  5 15 25 14 22 29
  21858248.426     4671141.856 6   3654597.469 5
  21336439.918     2575378.610 7   2024788.489 6
  19586547.371   -18400010.930 7 -14160363.625 8
  20922972.230   -19109591.484 6 -14317874.862 6
  21322093.270    -9167042.793 6  -6993236.431 6
 95  9 27  1 32 29.9960000  0  5 15 25 14 22 29
  21869462.848     4730070.419 6   3700515.803 5
  21344642.535     2618482.434 7   2058375.895 6
  19572025.074   -18476326.051 7 -14219829.937 8
  20904488.238   -19206685.056 6 -14393532.141 6
  21305187.441    -9255875.723 6  -7062456.857 6
 95  9 27  1 32 59.9960000  0  5 15 25 14 22 29
  21880712.191     4789197.542 5   3746588.857 5
  21352873.262     2661761.408 6   2092099.779 7
  19557584.059   -18552212.626 7 -14278962.320 8
  20886104.496   -19303314.614 6 -14468827.839 6
  21288296.230    -9344621.362 7  -7131609.261 6
 95  9 27  1 33 29.9960000  0  5 15 25 14 22 29
  21892002.309     4848510.090 6   3792806.388 5
  21361144.777     2705197.563 7   2125946.138 7
  19543222.277   -18627677.000 7 -14337765.719 8
  20867799.895   -19399496.111 6 -14543774.429 6
  21271427.230    -9433291.213 7  -7200702.603 6
 95  9 27  1 33 59.9960000  0  5 15 25 14 22 29
  21903325.098     4908000.382 6   3839162.430 5
  21369437.418     2748787.723 6   2159912.510 6
  19528937.699   -18702750.203 7 -14396264.304 8
  20849576.926   -19495251.945 6 -14618389.315 6
  21254567.020    -9521890.958 7  -7269741.317 6
 95  9 27  1 34 29.9960000  0  5 15 25 14 22 29
  21914676.606     4967672.428 6   3885660.093 5
  21377765.137     2792558.186 6   2194019.373 6
  19514726.809   -18777427.403 7 -14454454.312 7
  20831434.262   -19590603.721 6 -14692689.354 7
  21237721.785    -9610413.881 7  -7338720.165 6
 95  9 27  1 34 59.9960000  0  5 15 25 14 22 29
  21926068.746     5027529.037 6   3932301.569 5
  21386134.449     2836532.776 7   2228285.305 6
  19500594.105   -18851690.376 7 -14512321.550 7
  20813364.863   -19685556.568 6 -14766678.532 6
  21220890.801    -9698850.178 7  -7407631.510 6
 95  9 27  1 35 29.9960000  0  5 15 25 14 22 29
  21937485.738     5087546.121 6   3979068.092 5
  21394543.668     2880707.580 7   2262707.241 6
  19486539.371   -18925555.454 7 -14569878.739 7
  20795376.301   -19780118.353 6 -14840362.979 6
  21204073.668    -9787216.445 7  -7476488.290 6
 95  9 27  1 35 59.9960000  0  5 15 25 14 22 29
  21948940.527     5147733.796 6   4025967.547 5
  21402990.582     2925102.189 7   2297300.455 6
  19472560.996   -18999022.897 7 -14627126.092 7
  20777456.691   -19874265.843 6 -14913724.609 6
  21187277.559    -9875496.605 7  -7545277.980 6
 95  9 27  1 36 29.9960000  0  5 15 25 14 22 29
  21960423.449     5208085.891 6   4072995.114 6
  21411479.051     2969713.009 7   2332062.130 6
  19458654.363   -19072080.328 7 -14684053.947 7
  20759623.731   -19967982.031 6 -14986750.162 6
  21170494.176    -9963692.762 7  -7614002.222 6
 95  9 27  1 36 59.9960000  0  5 15 25 14 22 29
  21971946.043     5268599.846 6   4120148.807 6
  21420006.348     3014522.888 7   2366978.931 6
  19444833.301   -19144719.386 7 -14740655.802 7
  20741866.301   -20061251.280 6 -15059427.449 6
  21153728.496   -10051802.411 7  -7682659.054 6
 95  9 27  1 37 29.9960000  0  5 15 25 14 22 29
  21983486.074     5329275.510 6   4167428.503 6
  21428563.988     3059508.124 7   2402032.361 6
  19431093.707   -19216918.544 7 -14796914.886 8
  20724209.699   -20154064.802 6 -15131749.607 6
  21136977.129   -10139823.168 7  -7751246.617 6
 95  9 27  1 37 59.9960000  0  5 15 25 14 22 29
  21995065.949     5390105.911 5   4214828.794 6
  21437156.496     3104642.585 7   2437202.088 6
  19417443.957   -19288656.807 7 -14852814.805 8
  20706636.184   -20246437.493 6 -15203728.267 6
  21120240.715   -10227758.649 7  -7819767.723 6
 95  9 27  1 38 29.9960000  0  6 15 18 25 14 22 29
  22006661.090     5451079.052 5   4262340.305 6
  23098079.613          -0.90612
  21445768.215     3149918.225 7   2472481.807 6
  19403883.176   -19359914.982 7 -14908340.636 8
  20689134.004   -20338380.409 6 -15275372.062 6
  21103521.184   -10315623.440 7  -7888233.750 6
 95  9 27  1 38 59.9960000  0  6 15 18 25 14 22 29
  22018297.988     5512206.631 5   4309972.176 5
  23076340.793     -114166.064 2        -0.21911
  21454410.566     3195338.243 6   2507874.030 6
  19390417.840   -19430675.276 7 -14963478.511 8
  20671730.723   -20429875.461 6 -15346666.840 6
  21086811.934   -10403407.678 7  -7956637.012 6
 95  9 27  1 39 29.9960000  0  6 15 18 25 14 22 29
  22029957.660     5573479.893 5   4357717.533 5
  23054622.496     -228313.725 3    -88946.399 1
  21463082.059     3240896.290 6   2543373.808 6
  19377043.621   -19500952.844 7 -15018240.230 8
  20654398.941   -20520920.695 6 -15417611.137 6
  21070123.910   -10491119.752 7  -8024984.052 6
 95  9 27  1 39 59.9960000  0  6 15 18 25 14 22 29
  22041643.629     5634894.023 5   4405572.680 5
  23032918.285     -342422.701 3   -177862.433 1
  21471780.527     3286610.872 6   2578995.545 6
  19363758.106   -19570774.839 7 -15072646.952 8
  20637164.230   -20611511.989 6 -15488201.711 6
  21053446.973   -10578759.681 7  -8093274.877 6
 95  9 27  1 40 29.9960000  0  6 15 18 25 14 22 29
  22053352.832     5696437.752 5   4453528.799 5
  23011211.371     -456491.007 3   -266746.781 2
  21480510.051     3332488.082 6   2614744.021 6
  19350551.941   -19640171.725 7 -15126722.437 8
  20620007.145   -20701634.323 6 -15558426.859 6
  21036782.520   -10666335.547 6  -8161515.776 6
 95  9 27  1 40 59.9960000  0  6 15 18 25 14 22 29
  22065083.598     5758108.234 5   4501583.684 5
  22989508.691     -570510.256 4   -355592.855 1
  21489275.863     3378529.108 7   2650620.141 6
  19337424.449   -19709157.027 7 -15180477.195 8
  20602954.145   -20791286.699 6 -15628285.806 7
  21020130.418   -10753838.453 6  -8229699.818 6
 95  9 27  1 41 29.9960000  0  6 15 18 25 14 22 29
  22076847.606     5819901.289 5   4549734.069 5
  22967827.113     -684491.718 5   -444409.519 2
  21498070.918     3424758.664 6   2686643.171 6
  19324376.223   -19777729.386 7 -15233910.181 8
  20585981.981   -20880472.983 6 -15697781.557 7
  21003491.918   -10841269.459 7  -8297827.851 6
 95  9 27  1 41 59.9960000  0  6 15 18 25 14 22 29
  22088631.168     5881816.207 5   4597979.430 5
  22946142.543     -798448.093 5   -533206.627 1
  21506905.348     3471189.854 6   2722823.323 6
  19311410.441   -19845866.512 7 -15287004.024 7
  20569101.191   -20969182.852 6 -15766906.086 7
  20986872.402   -10928623.125 7  -8365895.626 6
 95  9 27  1 42 29.9960000  0  6 15 18 25 14 22 29
  22100442.277     5943859.815 6   4646325.070 5
  22924459.668     -912387.961 4   -621990.858 1
  21515778.059     3517816.980 6   2759156.146 6
  19298533.457   -19913533.099 7 -15339731.215 7
  20552310.762   -21057399.070 6 -15835645.951 7
  20970266.949   -11015884.250 7  -8433891.270 6
 95  9 27  1 42 59.9960000  0  6 15 18 25 14 22 29
  22112270.137     6006024.275 5   4694764.880 5
  22902774.207    -1026327.463 4   -710774.800 1
  21524684.652     3564616.885 6   2795623.600 6
  19285745.988   -19980726.642 7 -15392089.797 7
  20535619.879   -21145130.883 6 -15904008.360 7
  20953677.106   -11103055.821 7  -8501817.140 6
 95  9 27  1 43 29.9960000  0  6 15 18 25 14 22 29
  22124122.887     6068316.493 5   4743304.251 6
  22881093.066    -1140258.999 4   -799552.534 1
  21533623.785     3611583.781 6   2832221.182 6
  19273053.184   -20047431.530 7 -15444067.615 7
  20519017.824   -21232360.224 6
  20937108.441   -11190130.851 7
 95  9 27  1 43 59.9960000  0  6 15 18 25 14 22 29
  22136000.473     6130729.765 5   4791937.950 5
  22859418.832    -1254188.426 4   -888328.608 1
  21542582.770     3658686.146 6   2868924.334 6
  19260451.988   -20113658.695 7 -15495673.188 7
  20502513.981   -21319089.742 6 -16039560.622 7
  20920558.324   -11277106.275 7  -8637440.823 6
 95  9 27  1 44 29.9960000  0  6 15 18 25 14 22 29
  22147898.863     6193263.560 5   4840665.551 5
  22837736.090    -1368104.897 4   -977094.611 1
  21551573.816     3705918.253 6   2905728.583 6
  19247932.465   -20179424.164 7 -15546918.995 7
  20486105.238   -21405333.500 7 -16106763.498 7
  20904027.020   -11363987.945 7  -8705140.799 6
 95  9 27  1 44 59.9960000  0  6 15 18 25 14 22 29
  22159815.988     6255912.268 5   4889482.717 5
  22816067.254    -1481999.190 4  -1065843.342 1
  21560588.590     3753285.789 6   2942638.354 6
  19235506.199   -20244732.380 7 -15597808.506 7
  20469776.809   -21491104.179 6 -16173597.750 7
  20887509.418   -11450784.552 7  -8772774.492 7
 95  9 27  1 45 29.9960000  0  6 15 18 25 14 22 29
  22171764.371     6318658.859 5   4938376.138 5
  22794387.254    -1595895.775 4  -1154593.842 1
  21569627.559     3800794.770 6   2979658.341 6
  19223165.379   -20309587.876 7 -15648345.246 7
  20453550.129   -21576417.641 7 -16240075.714 7
  20871007.223   -11537508.004 7  -8840351.186 7
 95  9 27  1 45 59.9960000  0  6 15 18 25 14 22 29
  22183714.715     6381510.890 5   4987351.738 5
  22772713.879    -1709782.383 3  -1243336.576 1
  21578698.082     3848453.682 6   3016795.166 6
  19210912.113   -20373983.766 7 -15698523.853 7
  20437403.410   -21661260.540 6 -16306187.016 7
  20854519.645   -11624145.740 7  -8907861.070 7
 95  9 27  1 46 29.9960000  0  6 15 18 25 14 22 29
  22195703.551     6444471.975 5   5036412.307 5
  22751041.363    -1823649.464 3  -1332064.102 1
  21587794.590     3896263.521 6   3054049.600 6
  19198748.824   -20437903.450 7 -15748331.382 7
  20421353.488   -21745612.123 6 -16371915.488 7
  20838042.238   -11710702.275 7  -8975307.689 7
 95  9 27  1 46 59.9960000  0  6 15 18 25 14 22 29
  22207701.809     6507528.116 5   5085546.950 5
  22729374.668    -1937507.880 3  -1420784.917 1
  21596920.402     3944211.584 6   3091411.731 6
  19186676.363   -20501353.197 7 -15797772.738 8
  20405386.754   -21829464.124 6 -16437254.658 7
  20821589.848   -11797184.986 7  -9042696.777 7
 95  9 27  1 47 29.9960000  0  6 15 18 25 14 22 29
  22219721.090     6570677.919 5   5134754.575 5
  22707712.395    -2051351.136 3  -1509493.902 1
  21606065.770     3992276.216 6   3128864.695 6
  19174690.043   -20564341.883 7 -15846854.819 7
  20389531.004   -21912805.451 6 -16502195.909 7
  20805146.918   -11883597.493 7  -9110031.168 7
 95  9 27  1 47 59.9960000  0  6 15 18 25 14 22 29
  22231752.887     6633910.784 5   5184026.929 5
  22686053.277    -2165167.347 3  -1598181.792 1
  21615225.379     4040426.829 6   3166384.668 6
  19162786.012   -20626877.977 7 -15895584.234 7
  20373775.895   -21995636.777 6 -16566739.754 7
  20788714.285   -11969960.023 7  -9177326.622 7
 95  9 27  1 48 29.9960000  0  6 15 18 25 14 22 29
  22243796.941     6697223.332 5   5233361.384 5
  22664403.691    -2278968.527 3  -1686857.991 2
  21624407.926     4088679.388 6   3203984.076 6
  19150976.645   -20688948.931 7 -15943951.201 7
  20358105.848   -22077963.750 6 -16630890.590 7
  20772288.379   -12056277.362 7  -9244586.851 7
 95  9 27  1 48 59.9960000  0  6 15 18 25 14 22 29
  22255863.676     6760620.130 5   5282761.480 5
  22642755.613    -2392746.726 3  -1775516.315 2
  21633617.410     4137052.571 6   3241677.471 6
  19139255.059   -20750542.241 7 -15991945.983 7
  20342534.738   -22159786.474 6 -16694648.511 7
  20755875.816   -12142526.501 7  -9311793.949 7
 95  9 27  1 49 29.9960000  0  6 15 18 25 14 22 29
  22267947.145     6824098.775 5   5332225.344 4
  22621105.621    -2506507.742 3  -1864161.217 2
  21642842.004     4185545.554 6   3279464.226 6
  19127627.410   -20811645.178 7 -16039558.648 7
  20327054.340   -22241115.380 6 -16758021.643 7
  20739480.730   -12228695.823 7  -9378938.855 7
 95  9 27  1 49 59.9960000  0  6 15 18 25 14 22 29
  22280038.051     6887654.057 5   5381748.924 5
  22599451.777    -2620263.686 3  -1952802.157 1
  21652100.191     4234177.553 6   3317359.289 6
  19116098.449   -20872250.471 7 -16086783.553 7
  20311666.645   -22321954.558 6 -16821013.162 7
  20723093.027   -12314770.046 7  -9446009.661 7
 95  9 27  1 50 29.9960000  0  6 15 18 25 14 22 29
  22292147.887     6951290.561 5   5431335.811 4
  22577813.973    -2734010.961 3  -2041436.366 3
  21661381.746     4282967.023 6   3355377.058 6
  19104660.457   -20932352.131 8 -16133616.005 7
  20296381.660   -22402302.286 6 -16883621.742 7
  20706740.723   -12400714.381 7  -9512979.252 7
 95  9 27  1 50 59.9960000  0  6 15 18 25 14 22 29
  22304267.121     7014997.512 5   5480977.570 4
  22556177.715    -2847741.561 3  -2130057.580 2
  21670693.488     4331893.375 6   3393501.491 6
  19093314.926   -20991963.487 8 -16180066.407 7
  20281186.105   -22482162.126 6 -16945850.140 7
  20690410.465   -12486523.511 7  -9579843.487 7
 95  9 27  1 51 29.9960000  0  6 15 18 25 14 22 29
  22316403.738     7078790.428 5   5530686.312 4
  22534532.387    -2961431.341 3  -2218647.007 3
  21680031.426     4380973.036 6   3431745.376 6
  19082069.465   -21051063.303 7 -16226118.204 7
  20266088.332   -22561512.919 6 -17007681.887 7
  20674111.777   -12572188.271 7  -9646595.227 7
 95  9 27  1 51 59.9960000  0  6 15 18 25 14 22 29
  22328560.059     7142645.238 5   5580443.283 4
  22512911.496    -3075088.697 3  -2307211.160 3
  21689397.684     4430184.014 6   3470091.596 6
  19070913.731   -21109667.732 7 -16271783.991 8
  20251088.332   -22640354.231 6 -17069116.627 7
  20657832.918   -12657743.366 7  -9713261.506 7
 95  9 27  1 52 29.9960000  0  6 15 18 25 14 22 29
  22340723.910     7206564.493 5   5630250.489 5
  22491287.637    -3188696.376 3  -2395736.620 2
  21698786.590     4479517.343 6   3508533.149 6
  19059856.590   -21167771.036 7 -16317059.284 7
  20236181.441   -22718671.388 7 -17130142.940 7
  20641571.457   -12743202.387 7  -9779852.923 7
 95  9 27  1 52 59.9960000  0  6 15 18 25 14 22 29
  22352895.004     7270545.738 5   5680105.972 5
  22469678.035    -3302258.535 3  -2484226.585 2
  21708192.426     4528967.583 6   3547065.813 6
  19048898.715   -21225367.068 7 -16361939.303 7
  20221376.809   -22796451.713 7 -17190750.943 7
  20625322.574   -12828598.501 7  -9846395.324 7
 95  9 27  1 53 29.9950000  0  6 15 18 25 14 22 29
  22365084.007     7334578.659 5   5730001.751 5
  22448076.421    -3415786.403 3  -2572689.829 1
  21717627.116     4578527.495 6   3585683.937 6
  19038038.296   -21282452.727 7 -16406421.624 7
  20206680.632   -22873694.024 7 -17250939.715 7
  20609075.913   -12913949.239 7  -9912902.370 7
 95  9 27  1 53 59.9950000  0  6 15 18 25 14 22 29
  22377276.413     7398672.038 5   5779944.637 5
  22426472.913    -3529283.472 3  -2661129.097 2
  21727078.288     4628201.700 6   3624391.113 6
  19027267.968   -21339040.244 7 -16450515.792 7
  20192088.405   -22950396.058 7 -17310707.490 7
  20592844.960   -12999247.511 7  -9979368.524 7
 95  9 27  1 54 29.9950000  0  6 15 18 25 14 22 29
  22389485.101     7462820.138 5   5829930.162 5
  22404880.429    -3642759.240 3  -2749551.745 2
  21736550.593     4677989.698 6   3663186.971 6
  19016593.546   -21395137.602 7 -16494228.011 7
  20177593.523   -23026574.405 7 -17370067.209 7
  20576626.812   -13084473.927 7 -10045778.698 7
 95  9 27  1 54 59.9950000  0  6 15 18 25 14 22 29
  22401705.905     7527010.226 5   5879948.403 5
  22383290.749    -3756228.995 3  -2837969.707 1
  21746045.812     4727886.177 6   3702067.348 6
  19006010.608   -21450753.818 7 -16537565.311 7
  20163190.030   -23102240.086 7 -17429027.447 8
  20560427.819   -13169616.685 7 -10112123.687 7
 95  9 27  1 55 29.9950000  0  6 15 18 25 14 22 29
  22413927.007     7591247.611 5   5930003.529 5
  22361706.085    -3869672.162 3  -2926366.950 3
  21755561.585     4777885.312 6   3741027.714 6
  18995519.929   -21505886.171 7 -16580525.577 7
  20148891.843   -23177381.628 7 -17487579.261 7
  20544241.507   -13254643.639 7 -10178378.447 7
 95  9 27  1 55 59.9950000  0  6 15 18 25 14 22 29
  22426152.546     7655522.055 5   5980087.520 5
  22340119.358    -3983099.233 3  -3014751.636 2
  21765089.476     4827964.911 6   3780050.771 6
  18985117.023   -21560537.518 7 -16623111.039 7
  20134688.593   -23251996.652 7 -17545720.816 7
  20528089.437   -13339551.702 7 -10244540.564 7
 95  9 27  1 56 29.9950000  0  6 15 18 25 14 22 29
  22438396.655     7719836.550 5   6030202.712 5
  22318536.132    -4096506.995 3  -3103121.243 2
  21774635.843     4878126.338 6   3819137.599 6
  18974812.616   -21614682.418 7 -16665301.860 7
  20120595.124   -23326064.027 7 -17603435.608 7
  20511953.858   -13424342.514 7 -10310611.320 7
 95  9 27  1 56 59.9950000  0  6 15 18 25 14 22 29
  22450640.327     7784183.439 5   6080343.140 5
  22296956.882    -4209898.629 3  -3191478.330 1
  21784195.405     4928358.908 6   3858279.878 6
  18964607.108   -21668317.778 7 -16707095.636 7
  20106607.273   -23399567.908 7 -17660711.328 7
  20495836.273   -13509036.241 7 -10376606.417 7
 95  9 27  1 57 29.9950000  0  6 15 18 25 14 22 29
  22462890.788     7848569.206 5   6130513.829 3
  22275386.366    -4323268.920 3  -3279818.755 2
  21793773.030     4978679.594 6   3897490.820 6
  18954502.944   -21721422.953 7 -16748476.288 7
  20092732.905   -23472499.794 7 -17717541.333 7
  20479734.265   -13593637.142 7 -10442529.176 7
 95  9 27  1 57 59.9950000  0  6 15 18 25 14 22 29
  22475155.202     7912993.732 5   6180714.748 5
  22253808.265    -4436617.775 3  -3368142.445 1
  21803373.132     5029124.420 6   3936798.498 6
  18944496.780   -21773990.124 7 -16789437.716 7
  20078964.937   -23544872.592 7 -17773935.689 7
  20463652.530   -13678149.146 7 -10508382.665 7
 95  9 27  1 58 29.9950000  0  6 15 18 25 14 22 29
  22487414.491     7977442.387 5   6230934.454 4
  22232252.273    -4549939.406 3  -3456444.973 2
  21812995.101     5079697.083 6   3976205.784 6
  18934592.804   -21826047.183 7 -16830001.647 7
  20065291.249   -23616713.335 7 -17829915.467 7
  20447584.843   -13762585.430 7 -10574177.143 7
 95  9 27  1 58 59.9950000  0  6 15 18 25 14 22 29
  22499683.132     8041903.178 5   6281163.628 5
  22210689.233    -4663234.677 3  -3544726.928 2
  21822640.976     5130392.287 6   4015708.553 6
  18924784.007   -21877602.819 8 -16870174.862 7
  20051714.140   -23688039.506 6 -17885494.276 7
  20431535.108   -13846944.881 7 -10639911.756 7
 95  9 27  1 59 29.9950000  0  6 15 18 25 14 22 29
  22511955.593     8106383.911 5   6331408.347 5
  22189142.640    -4776486.253 3  -3632974.815 3
  21832316.101     5181222.477 6   4055316.489 5
  18915070.804   -21928648.455 7 -16909950.677 7
  20038238.491   -23758853.936 6 -17940674.330 7
  20415497.671   -13931215.350 7 -10705577.038 7
 95  9 27  1 59 59.9950000  0  6 15 18 25 14 22 29
  22524218.015     8170883.293 4   6381667.634 5
  22167603.343    -4889689.627 3  -3721185.148 4
  21842008.882     5232159.767 6   4095007.880 5
  18905451.562   -21979190.272 7 -16949333.906 7
  20024862.335   -23829148.385 6 -17995449.197 7
  20399485.796   -14015381.529 7 -10771161.053 7
 95  9 27  2  0 29.9950000  0  6 15 18 25 14 22 29
  22536499.601     8235387.946 5   6431931.004 4
  22146058.530    -5002876.811 3  -3809382.857 4
  21851710.491     5283162.780 6   4134750.498 5
  18895926.163   -22029234.574 7 -16988329.460 7
  20011589.593   -23898913.383 7 -18049811.506 7
  20383482.851   -14099450.475 7 -10836669.297 7
 95  9 27  2  0 59.9950000  0  6 15 18 25 14 22 29
  22548774.233     8299894.418 4   6482195.792 5
  22124520.444    -5116061.019 3  -3897578.262 5
  21861429.382     5334230.164 6   4174543.263 5
  18886502.397   -22078764.034 7 -17026923.840 7
  19998421.015   -23968125.715 7 -18103743.151 7
  20367502.898   -14183427.043 7 -10902105.561 7
 95  9 27  2  1 29.9950000  0  6 15 18 25 14 22 29
  22561051.702     8364404.292 5   6532463.235 4
  22102980.249    -5229238.411 3  -3985768.350 3
  21871161.671     5385359.474 6   4214384.282 6
  18877177.413   -22127773.076 7 -17065112.694 7
  19985355.062   -24036782.882 7 -18157242.210 7
  20351540.663   -14267304.189 7 -10967464.353 7
 95  9 27  2  1 59.9950000  0  6 15 18 25 14 22 29
  22573334.319     8428929.741 5   6582742.809 4
  22081449.569    -5342389.978 3  -4073938.327 4
  21880901.257     5436558.728 6   4254279.816 6
  18867954.257   -22176246.169 7 -17102883.925 7
  19972395.296   -24104853.973 7 -18210284.586 7
  20335602.968   -14351064.199 7 -11032731.865 7
 95  9 27  2  2 29.9950000  0  6 15 18 25 14 22 29
  22585613.890     8493470.433 5   6633034.236 4
  22059927.694    -5455508.657 3  -4162082.689 4
  21890665.866     5487857.552 6   4294252.916 6
  18858831.077   -22224176.599 7 -17140232.299 7
  19959561.273   -24172330.254 7 -18262863.483 7
  20319681.163   -14434719.363 7 -11097917.677 7
 95  9 27  2  2 59.9950000  0  6 15 18 25 14 22 29
  22597896.226     8558002.625 5   6683319.026 3
  22038411.874    -5568592.931 4  -4250200.256 3
  21900445.007     5539245.196 6   4334295.241 6
  18849808.593   -22271582.253 7 -17177171.764 7
  19946827.476   -24239239.909 7 -18315000.853 7
  20303778.819   -14518292.005 7 -11163039.183 7
 95  9 27  2  3 29.9950000  0  6 15 18 25 14 22 29
  22610174.288     8622530.127 5   6733600.165 3
  22016898.804    -5681632.904 4  -4338283.285 3
  21910238.968     5590717.851 6   4374403.814 6
  18840891.499   -22318469.331 7 -17213707.143 7
  19934197.366   -24305597.457 7 -18366707.999 7
  20287889.327   -14601768.779 7 -11228085.978 8
 95  9 27  2  3 59.9950000  0  6 15 18 25 14 22 29
  22622446.523     8687060.871 4   6783883.865 2
  21995394.233    -5794624.069 4  -4426328.305 3
  21920048.960     5642287.600 6   4414588.037 6
  18832063.991   -22364842.031 7 -17249841.710 7
  19921685.054   -24371383.578 7 -18417969.885 7
  20272027.413   -14685149.490 7 -11293057.926 7
 95  9 27  2  4 29.9950000  0  6 15 18 25 14 22 29
  22634728.405     8751587.585 3   6834164.455 4
  21973904.897    -5907581.200 4  -4514346.810 3
  21929883.577     5693952.944 6   4454846.740 5
  18823338.585   -22410696.653 7 -17285572.583 7
  19909267.858   -24436608.783 7 -18468794.681 7
  20256180.062   -14768435.192 7 -11357955.843 8
 95  9 27  2  4 59.9950000  0  6 15 18 25 14 22 29
  22647000.733     8816097.525 3   6884431.936 3
  21952408.335    -6020506.451 4  -4602340.451 4
  21939727.093     5745683.455 6   4495156.222 6
  18814708.507   -22456040.196 7 -17320905.193 7
  19896963.319   -24501291.093 7 -18519196.453 7
  20240344.507   -14851627.255 7 -11422780.796 8
 95  9 27  2  5 29.9950000  0  6 15 18 25 14 22 29
  22659280.710     8880590.457 4   6934686.175 4
  21930932.116    -6133396.424 4  -4690306.629 3
  21949581.374     5797470.299 6   4535509.606 6
  18806181.101   -22500867.086 7 -17355835.229 7
  19884756.905   -24565417.428 7 -18569165.001 7
  20224534.108   -14934726.165 7 -11487533.167 8
 95  9 27  2  5 59.9950000  0  6 15 18 25 14 22 29
  22671555.187     8945070.998 3   6984930.764 5
  21909450.874    -6246249.980 3  -4778244.404 3
  21959451.983     5849330.571 6   4575920.199 6
  18797754.421   -22545152.506 7 -17390343.344 7
  19872661.757   -24628972.244 7 -18618688.203 8
  20208738.851   -15017725.354 7 -11552207.831 7
 95  9 27  2  6 29.9950000  0  6 15 18 25 14 22 29
  22683821.952     9009533.158 4   7035161.039 5
  21887991.312    -6359065.619 4  -4866152.637 2
  21969334.804     5901264.592 6   4616388.255 6
  18789431.319   -22588876.999 7 -17424414.360 7
  19860679.663   -24691962.945 7 -18667771.851 8
  20192967.757   -15100615.056 7 -11616797.173 7
 95  9 27  2  6 59.9950000  0  6 15 18 25 14 22 29
  22696077.452     9073970.984 3   7085372.380 5
  21866531.843    -6471837.313 5  -4954026.635 3
  21979230.585     5953270.901 6   4656912.660 6
  18781217.296   -22632046.564 7 -17458052.972 7
  19848796.921   -24754392.428 7 -18716418.175 8
  20177211.351   -15183398.788 7 -11681303.948 7
 95  9 27  2  7 29.9950000  0  6 15 18 25 14 22 29
  22708332.991     9138385.481 4   7135565.513 5
  21845076.460    -6584576.076 5  -5041874.989 3
  21989143.960     6005364.533 6   4697505.105 6
  18773108.062   -22674660.814 8 -17491258.872 7
  19837023.937   -24816251.839 7 -18764620.296 8
  20161482.444   -15266071.775 7 -11745724.432 7
 95  9 27  2  7 59.9950000  0  6 15 18 25 14 22 29
  22720591.804     9202773.089 3   7185737.688 4
  21823621.515    -6697292.332 4  -5129705.775 2
  21999072.007     6057544.565 5   4738164.881 6
  18765102.140   -22716729.500 8 -17524039.654 7
  19825362.077   -24877543.264 7 -18812379.829 7
  20145771.968   -15348628.875 7 -11810054.605 7
 95  9 27  2  8 29.9950000  0  6 15 18 25 14 22 29
  22732834.585     9267128.674 3   7235884.918 3
  21802183.116    -6809967.218 4  -5217504.341 2
  22009012.288     6109794.474 5   4778879.108 6
  18757200.241   -22758254.693 8 -17556396.946 7
  19813803.491   -24938258.006 7 -18859689.993 8
  20130082.874   -15431076.192 7 -11874299.249 7
 95  9 27  2  8 59.9950000  0  6 15 18 25 14 22 29
  22745066.757     9331443.538 3   7286000.418 3
  21780748.023    -6922609.081 4  -5305277.157 2
  22018965.218     6162092.075 5   4819630.494 6
  18749398.327   -22799243.270 7 -17588336.088 7
  19802368.233   -24998397.532 7 -18906551.943 8
  20114408.757   -15513429.015 7 -11938470.249 7
 95  9 27  2  9 29.9950000  0  6 15 18 25 14 22 29
  22757301.398     9395713.332 4   7336080.796 1
  21759319.554    -7035221.080 4  -5393026.711 2
  22028925.069     6214423.990 6   4860408.609 6
  18741703.413   -22839701.853 7 -17619862.253 7
  19791026.694   -25057964.655 7 -18952967.859 8
  20098756.093   -15595693.363 7 -12002572.323 7
 95  9 27  2  9 59.9950000  0  6 15 18 25 14 22 29
  22769521.444     9459945.181 4   7386131.530 1
  21737890.601    -7147783.930 5  -5480737.963 1
  22038891.304     6266798.651 6   4901220.041 5
  18734101.905   -22879621.166 7 -17650968.213 7
  19779805.655   -25116952.102 7 -18998932.070 7
  20083121.280   -15677856.001 7 -12066595.142 7
 95  9 27  2 10 29.9950000  0  6 15 18 25 14 22 29
  22781744.335     9524141.360 5   7436154.472 1
  21716490.483    -7260286.303 5  -5568402.095 2
  22048871.148     6319224.738 6   4942071.528 5
  18726612.460   -22918987.196 7 -17681643.041 7
  19768686.343   -25175360.487 7 -19044445.071 7
  20067506.546   -15759902.022 7 -12130527.094 7
 95  9 27  2 10 59.9950000  0  6 15 18 25 14 22 29
  22793952.991     9588301.226 5   7486149.190 3
  21695090.233    -7372746.981 5  -5656033.734 2
  22058853.702     6371707.500 5   4982967.200 6
  18719227.515   -22957808.520 7 -17711893.416 7
  19757680.882   -25233192.329 7 -19089508.820 7
  20051917.585   -15841821.434 7 -12194360.389 7
 95  9 27  2 11 29.9950000  0  6 15 18 25 14 22 29
  22806150.710     9652415.143 5   7536108.090 3
  21673693.163    -7485167.090 5  -5743633.775 3
  22068855.335     6424257.012 5   5023914.864 5
  18711935.593   -22996109.005 7 -17741737.943 7
  19746788.452   -25290451.553 7 -19134126.373 7
  20036356.538   -15923612.399 7 -12258093.593 7
 95  9 27  2 11 59.9950000  0  6 15 18 25 14 22 29
  22818341.991     9716482.351 5   7586030.577 3
  21652311.960    -7597547.716 5  -5831203.046 2
  22078869.062     6476878.321 5   5064918.473 5
  18704750.679   -23033876.407 7 -17771167.084 7
  19736005.015   -25347125.894 7 -19178288.159 7
  20020815.413   -16005262.121 7 -12321716.734 8
 95  9 27  2 12 29.9950000  0  6 15 18 25 14 22 29
  22830524.546     9780501.598 5   7635915.725 4
  21630931.460    -7709896.910 5  -5918747.836 4
  22088896.124     6529571.902 5   5105978.415 6
  18697668.343   -23071102.942 7 -17800174.768 7
  19725325.991   -25403206.243 7 -19221987.103 7
  20005305.155   -16086784.605 7 -12385240.730 7
 95  9 27  2 12 59.9950000  0  6 15 18 25 14 22 29
  22842699.780     9844475.490 3   7685765.521 4
  21609560.522    -7822207.029 5  -6006262.170 4
  22098935.530     6582354.839 5   5147107.990 5
  18690686.601   -23107786.277 7 -17828759.178 7
  19714776.530   -25458678.568 7 -19265212.258 8
  19989814.108   -16168191.355 7 -12448674.544 8
 95  9 27  2 13 29.9950000  0  6 15 18 25 14 22 29
  22854868.202     9908405.359 3   7735581.014 4
  21588202.733    -7934457.712 5  -6093730.198 4
  22109003.835     6635234.362 5   5188312.829 5
  18683810.179   -23143916.890 7 -17856912.899 7
  19704335.726   -25513534.535 7 -19307957.143 8
  19974346.952   -16249477.881 7 -12512014.676 8
 95  9 27  2 13 59.9950000  0  6 15 18 25 14 22 29
  22867020.413     9972270.017 3   7785345.718 3
  21566846.069    -8046670.794 5  -6181168.934 5
  22119074.866     6688177.150 5   5229566.941 5
  18677039.054   -23179495.156 8 -17884636.218 7
  19694016.179   -25567786.506 7 -19350231.384 8
  19958897.218   -16330663.742 7 -12575276.369 8
 95  9 27  2 14 29.9950000  0  6 15 18 25 14 22 29
  22879160.023    10036071.119 3   7835060.889 3
  21545503.968    -8158831.940 5  -6268567.186 5
  22129166.819     6741184.358 5   5270871.266 5
  18670378.233   -23214510.338 8 -17911920.775 7
  19683800.515   -25621435.499 7 -19392035.770 8
  19943469.030   -16411736.990 7 -12638450.311 8
 95  9 27  2 14 59.9940000  0  6 15 18 25 14 22 29
  22891287.307    10099794.336 3   7884715.351 2
  21524173.182    -8270939.405 5  -6355923.613 5
  22139260.072     6794230.600 5   5312206.000 5
  18663814.463   -23248982.256 7 -17938782.001 7
  19673708.221   -25674481.836 7 -19433370.556 8
  19928064.369   -16492687.934 7 -12701528.945 8
 95  9 27  2 15 29.9940000  0  6 15 18 25 14 22 29
  22903397.049    10163445.345 3   7934313.555 2
  21502841.346    -8383008.110 5  -6443249.833 5
  22149355.479     6847297.247 5   5353556.639 5
  18657359.143   -23282911.346 7 -17965220.243 7
  19663733.150   -25726919.335 7 -19474230.919 8
  19912685.315   -16573502.450 7 -12764501.281 8
 95  9 27  2 15 59.9940000  0  6 15 18 25 14 22 29
  22915498.885    10227025.407 3   7983856.453 1
  21481516.986    -8495035.042 4  -6530543.516 5
  22159461.768     6900382.886 5   5394922.063 5
  18651008.275   -23316282.821 7 -17991223.988 7
  19653876.330   -25778736.087 7 -19514607.594 8
  19897334.299   -16654173.580 7 -12827361.879 8
 95  9 27  2 16 29.9940000  0  6 15 18 25 14 22 29
  22927585.010    10290548.202 3   8033354.739 1
  21460214.697    -8606996.510 4  -6617786.189 5
  22169567.674     6953507.602 5   5436317.943 5
  18644767.393   -23349086.009 7 -18016784.910 7
  19644132.213   -25829921.425 7 -19554492.240 8
  19882008.846   -16734694.275 7 -12890105.259 8
 95  9 27  2 16 59.9940000  0  6 15 18 25 14 22 29
  22939654.947    10353986.311 3   8082787.045 2
  21438916.775    -8718922.230 5  -6705001.007 5
  22179679.721     7006646.332 5   5477724.763 5
  18638626.275   -23381353.792 7 -18041928.633 7
  19634502.338   -25880503.329 7 -19593906.699 8
  19866709.627   -16815109.663 7 -12952766.589 8
 95  9 27  2 17 29.9940000  0  6 15 18 25 14 22 29
  22951714.119    10417344.896 3   8132157.393 2
  21417632.158    -8830792.650 5  -6792172.736 5
  22189797.190     7059814.616 5   5519154.607 5
  18632595.283   -23413053.331 8 -18066629.574 7
  19624990.494   -25930494.824 7 -19632861.090 7
  19851424.596   -16895418.004 7 -13015344.494 8
 95  9 27  2 17 59.9940000  0  6 15 18 25 14 22 29
  22963755.471    10480625.416 4   8181466.923 1
  21396355.018    -8942590.181 5  -6879287.666 5
  22199923.690     7113023.485 5   5560616.069 5
  18626674.713   -23444166.829 7 -18090873.861 7
  19615586.260   -25979913.656 7 -19671369.258 7
  19836163.400   -16975617.273 7 -13077837.411 8
 95  9 27  2 18 29.9940000  0  6 15 18 25 14 22 29
  22975786.057    10543828.750 4   8230716.291 2
  21375097.588    -9054312.058 5  -6966343.650 5
  22210056.533     7166275.994 5   5602111.545 5
  18620862.893   -23474707.969 7 -18114672.145 7
  19606288.611   -26028770.870 7 -19709439.788 7
  19820927.080   -17055694.055 7 -13140234.884 8
 95  9 27  2 18 59.9940000  0  6 15 18 25 14 22 29
  22987791.096    10606944.503 4   8279897.418 2
  21353846.080    -9165972.287 5  -7053351.601 5
  22220196.385     7219555.842 5   5643628.311 5
  18615160.252   -23504690.392 7 -18138035.075 7
  19597095.799   -26077079.962 7 -19747083.225 8
  19805710.541   -17135641.901 7 -13202531.890 8
 95  9 27  2 19 29.9940000  0  6 15 18 25 14 22 29
  22999785.619    10669971.362 5   8329009.275 2
  21332611.494    -9277570.213 5  -7140310.986 5
  22230341.275     7272869.330 5   5685171.289 5
  18609561.088   -23534112.657 7 -18160961.514 7
  19588007.025   -26124828.950 7 -19784290.203 7
  19790524.346   -17215447.842 7 -13264718.312 9
 95  9 27  2 19 59.9940000  0  6 15 18 25 14 22 29
  23011761.854    10732904.821 4   8378048.355 2
  21311385.846    -9389122.315 5  -7227234.667 5
  22240491.830     7326212.974 5   5726737.770 5
  18604062.471   -23562993.488 7 -18183466.047 7
  19579031.143   -26171998.422 7 -19821045.614 7
  19775369.564   -17295109.863 7 -13326792.585 9
 95  9 27  2 20 29.9940000  0  6 15 18 25 14 22 29
  23023724.158    10795743.335 4   8427013.446 2
  21290166.174    -9500628.154 5  -7314122.299 5
  22250648.471     7379587.271 5   5768328.119 5
  18598668.799   -23591335.880 7 -18205551.030 7
  19570177.229   -26218558.120 7 -19857325.877 7
  19760234.135   -17374638.444 7 -13388762.879 8
 95  9 27  2 20 59.9940000  0  6 15 18 25 14 22 29
  23035659.416    10858483.260 4   8475901.704 2
  21268954.221    -9612086.276 5  -7400972.744 5
  22260811.361     7432995.216 5   5809944.708 5
  18593381.213   -23619114.007 7 -18227196.318 7
  19561438.064   -26264486.695 7 -19893114.344 7
  19745121.471   -17454057.172 7 -13450647.580 8
 95  9 27  2 21 29.9940000  0  6 15 18 25 14 22 29
  23047577.111    10921105.736 3   8524698.462 2
  21247753.065    -9723515.448 5  -7487800.627 4
  22270980.322     7486427.364 5   5851580.141 5
  18588206.486   -23646332.708 7 -18248405.690 7
  19552817.752   -26309780.259 7 -19928408.008 7
  19730023.307   -17533382.544 7 -13512459.534 9
 95  9 27  2 21 59.9940000  0  6 15 18 25 14 22 29
  23059473.658    10983626.471 3   8573415.997 1
  21226556.666    -9834891.272 5  -7574586.966 4
  22281154.869     7539891.939 5   5893240.847 5
  18583136.979   -23672972.091 7 -18269163.644 7
  19544318.330   -26354417.054 7 -19963189.910 7
  19714952.244   -17612599.048 7 -13574186.656 8
 95  9 27  2 22 29.9940000  0  6 15 18 25 14 22 29
  23071349.299    11046040.366 3   8622050.157 2
  21205373.072    -9946213.687 5  -7661331.669 4
  22291335.385     7593388.398 5   5934926.404 5
  18578175.479   -23699030.168 7 -18289468.638 8
  19535952.541   -26398404.359 7 -19997465.710 7
  19699898.307   -17691711.377 7 -13635832.610 8
 95  9 27  2 22 59.9940000  0  6 15 18 25 14 22 29
  23083205.947    11108345.978 3   8670600.099 2
  21184197.049   -10057493.021 5  -7748042.800 4
  22301521.588     7646920.308 5   5976639.592 5
  18573327.557   -23724512.064 7 -18309324.659 8
  19527697.174   -26441757.142 7 -20031247.078 7
  19684866.955   -17770705.181 7 -13697386.210 8
 95  9 27  2 23 29.9940000  0  6 15 18 25 14 22 29
  23095043.158    11170547.309 3   8719068.694 2
  21163031.885   -10168718.842 5  -7834712.226 5
  22311713.119     7700477.664 5   6018372.603 5
  18568586.025   -23749422.952 7 -18328735.738 8
  19519567.799   -26484480.663 7 -20064538.110 7
  19669860.830   -17849549.448 7 -13758823.288 8
 95  9 27  2 23 59.9940000  0  6 15 18 25 14 22 29
  23106855.096    11232634.695 2   8767448.515 1
  21141873.049   -10279892.678 5  -7921341.170 4
  22321910.971     7754058.812 5   6060124.156 4
  18563954.924   -23773774.377 7 -18347710.864 8
  19511551.752   -26526605.607 7 -20097362.712 7
  19654884.885   -17928254.027 7 -13820151.517 8
 95  9 27  2 24 29.9940000  0  5 18 25 14 22 29
  21120736.400   -10391005.112 5  -8007922.242 3
  22332113.572     7807676.002 5   6101903.786 4
  18559426.643   -23797559.590 7 -18366244.794 7
  19503654.518   -26568134.149 7 -20129722.594 7
  19639936.541   -18006807.616 7 -13881362.087 8
 95  9 27  2 24 59.9940000  0  5 18 25 14 22 29
  21099601.947   -10502044.084 5  -8094446.075 2
  22342319.807     7861317.284 5   6143702.180 4
  18555007.322   -23820784.208 7 -18384341.898 7
  19495861.986   -26609072.011 7 -20161622.207 8
  19625016.736   -18085206.563 7 -13942452.164 8
 95  9 27  2 25 29.9940000  0  5 18 25 14 22 29
  21078490.127   -10613002.776 5  -8180907.348 2
  22352525.518     7914965.569 5   6185506.043 3
  18550688.361   -23843463.902 7 -18402014.387 7
  19488180.057   -26649439.192 7 -20193077.130 8
  19610122.080   -18163475.084 7 -14003440.604 8
 95  9 27  2 25 59.9940000  0  5 18 25 14 22 29
  21057388.721   -10723885.854 5  -8267309.692 2
  22362738.572     7968627.037 5   6227320.162 3
  18546476.002   -23865609.914 7 -18419271.016 7
  19480604.338   -26689244.202 7 -20224094.001 8
  19595249.268   -18241639.237 7 -14064347.717 8
 95  9 27  2 26 29.9940000  0  5 18 25 14 22 29
  21036310.033   -10834669.087 5  -8353634.235 4
  22372953.338     8022310.832 5   6269151.704 4
  18542366.182   -23887201.026 7 -18436095.253 8
  19473148.182   -26728451.232 7 -20254644.910 8
  19580398.885   -18319675.424 7 -14125155.126 8
 95  9 27  2 26 59.9940000  0  5 18 25 14 22 29
  21015243.650   -10945347.919 5  -8439877.453 3
  22383178.213     8076042.133 5   6311020.258 4
  18538371.158   -23908213.313 7 -18452468.464 8
  19465797.900   -26767042.151 7 -20284715.738 8
  19565578.658   -18397566.440 7 -14185849.412 8
 95  9 27  2 27 29.9940000  0  5 18 25 14 22 29
  20994201.166   -11055937.144 5  -8526050.828 4
  22393413.190     8129827.707 5   6352931.094 4
  18534479.338   -23928650.495 7 -18468393.526 7
  19458577.025   -26805016.179 7 -20314305.866 8
  19550782.283   -18475317.660 7 -14246434.768 8
 95  9 27  2 27 59.9940000  0  5 18 25 14 22 29
  20973169.963   -11166484.571 5  -8612191.626 3
  22403653.244     8183634.405 5   6394858.395 5
  18530696.549   -23948537.469 7 -18483889.868 7
  19451462.307   -26842383.318 7 -20343423.102 8
  19536009.260   -18552938.435 7 -14306918.479 8
 95  9 27  2 28 29.9940000  0  5 18 25 14 22 29
  20952131.205   -11277000.857 5  -8698308.183 5
  22413893.190     8237445.281 5   6436788.959 5
  18527018.955   -23967875.135 7 -18498958.176 7
  19444466.518   -26879138.331 7 -20372063.357 8
  19521267.760   -18630408.871 7 -14367285.045 8
 95  9 27  2 28 59.9940000  0  5 18 25 14 22 29
  20931107.650   -11387471.015 5  -8784388.777 3
  22424136.447     8291273.258 5   6478732.833 5
  18523443.033   -23986647.117 7 -18513585.693 7
  19437598.010   -26915269.867 7 -20400217.798 8
  19506560.541   -18707710.264 7 -14427519.883 8
 95  9 27  2 29 29.9940000  0  5 18 25 14 22 29
  20910100.611   -11497889.333 5  -8870428.999 4
  22434376.705     8345090.329 5   6520668.229 5
  18519973.666   -24004863.071 7 -18527779.935 7
  19430833.580   -26950784.426 7 -20427891.467 8
  19491882.408   -18784841.919 7 -14487622.454 8
 95  9 27  2 29 59.9940000  0  5 18 25 14 22 29
  20889096.650   -11608251.472 5  -8956425.404 4
  22444618.385     8398894.880 5   6562593.851 5
  18516619.268   -24022511.017 7 -18541531.575 7
  19424194.666   -26985675.177 7 -20455079.047 8
  19477234.471   -18861803.366 7 -14547592.390 8
 95  9 27  2 30 29.9940000  0  5 18 25 14 22 29
  20868112.088   -11718535.802 6  -9042361.178 2
  22454859.705     8452704.954 5   6604523.782 4
  18513373.549   -24039580.694 7 -18554832.621 7
  19417672.322   -27019945.990 7 -20481783.565 8
  19462618.963   -18938611.654 7 -14607442.991 8
 95  9 27  2 30 59.9940000  0  5 18 25 14 22 29
  20847145.080   -11828735.036 6  -9128230.660 4
  22465097.635     8506528.365 5   6646464.095 5
  18510236.494   -24056068.117 7 -18567679.972 7
  19411266.619   -27053602.161 7 -20508009.124 8
  19448030.924   -19015285.715 7 -14667188.983 8
 95  9 27  2 31 29.9940000  0  5 18 25 14 22 29
  20826187.635   -11938848.066 6  -9214032.964 4
  22475341.643     8560360.375 5   6688411.107 5
  18507209.635   -24071974.380 7 -18580074.457 7
  19404979.314   -27086641.395 7 -20533753.968 7
  19433460.791   -19091834.698 7 -14726837.522 8
 95  9 27  2 31 59.9940000  0  5 18 25 14 22 29
  20805247.682   -12048873.446 5  -9299766.982 3
  22485590.252     8614205.787 5   6730368.591 4
  18504293.580   -24087294.167 7 -18592011.954 7
  19398817.479   -27119060.719 7 -20559015.760 7
  19418918.705   -19168261.240 7 -14786390.650 8
 95  9 27  2 32 29.9940000  0  4 25 14 22 29
  22495839.658     8668070.369 5   6772340.985 4
  18501490.619   -24102009.148 7 -18603478.164 7
  19392764.057   -27150854.155 7 -20583789.852 8
  19404403.979   -19244540.940 7 -14845829.363 8
 95  9 27  2 32 59.9940000  0  5 18 25 14 22 29
  20763434.604     -109831.226 6
  22506084.744     8721921.869 5   6814303.196 3
  18498801.971   -24116132.052 7 -18614483.028 7
  19386831.908   -27182031.427 7 -20608083.810 8
  19389916.408   -19320666.717 7 -14905148.131 8
 95  9 27  2 33 29.9940000  0  5 18 25 14 22 29
  20742549.486     -219577.937 5        -0.31815
  22516331.869     8775764.251 5   6856258.311 4
  18496226.260   -24129662.247 7 -18625026.043 7
  19381021.322   -27212576.196 7 -20631884.915 8
  19375462.182   -19396628.870 7 -14964339.405 8
 95  9 27  2 33 59.9940000  0  5 18 25 14 22 29
  20721680.619     -329247.303 5    -85456.947 4
  22526578.877     8829605.501 5   6898212.520 4
  18493767.822   -24142596.440 7 -18635104.625 7
  19375327.760   -27242484.676 7 -20655190.210 7
  19361038.369   -19472421.169 7 -15023398.327 8
 95  9 27  2 34 29.9940000  0  5 18 25 14 22 29
  20700818.666     -438858.977 5   -170868.604 5
  22536822.932     8883438.897 5   6940160.617 4
  18491416.291   -24154950.655 7 -18644731.296 8
  19369757.197   -27271757.377 7 -20678000.083 7
  19346648.822   -19548047.662 7 -15082328.053 8
 95  9 27  2 34 59.9940000  0  5 18 25 14 22 29
  20679972.518     -548421.996 5   -256242.323 5
  22547064.315     8937263.555 5   6982101.923 5
  18489172.315   -24166745.986 7 -18653922.466 7
  19364306.893   -27300396.541 7 -20700316.292 8
  19332288.190   -19623508.559 7 -15141128.739 9
 95  9 27  2 35 29.9940000  0  5 18 25 14 22 29
  20659132.260     -657943.348 6   -341583.583 5
  22557305.650     8991081.253 5   7024037.794 5
  18487030.104   -24177999.853 7 -18662691.710 8
  19358977.432   -27328419.394 7 -20722152.262 7
  19317958.424   -19698813.332 7 -15199807.761 9
 95  9 27  2 35 59.9930000  0  5 18 25 14 22 29
  20638302.591     -767391.260 6   -426867.623 5
  22567544.958     9044893.237 4   7065969.212 2
  18484992.427   -24188713.138 7 -18671039.728 7
  19353757.771   -27355836.608 7 -20743516.311 8
  19303663.231   -19773938.245 7 -15258346.638 9
 95  9 27  2 36 29.9930000  0  5 18 25 14 22 29
  20617492.927     -876762.672 6   -512092.071 5
  22577781.442     9098701.800 4   7107897.970 2
  18483055.091   -24198908.005 7 -18678983.786 8
  19348650.044   -27382659.823 7 -20764417.503 7
  19289399.364   -19848886.859 7 -15316748.137 9
 95  9 27  2 36 59.9930000  0  5 18 25 14 22 29
  20596698.263     -986021.748 6   -597228.979 5
  22588028.817     9152521.815 4   7149835.647 2
  18481214.021   -24208574.444 7 -18686516.072 8
  19343656.536   -27408882.106 7 -20784850.435 7
  19275172.450   -19923648.852 7 -15375004.219 9
 95  9 27  2 37 29.9930000  0  5 18 25 14 22 29
  20575934.677    -1095156.293 6   -682268.847 5
  22598270.958     9206353.642 3   7191782.552 2
  18479477.513   -24217692.598 7 -18693621.132 8
  19338791.122   -27434495.151 7 -20804808.632 7
  19260980.177   -19998236.167 7 -15433124.180 9
 95  9 27  2 37 59.9930000  0  5 18 25 14 22 29
  20555187.872    -1204164.884 6   -767210.580 5
  22608513.825     9260183.984 3   7233728.274 1
  18477849.122   -24226259.116 7 -18700296.346 8
  19334025.239   -27459493.231 7 -20824287.640 7
  19246817.747   -20072651.032 7 -15491109.770 8
 95  9 27  2 38 29.9930000  0  5 18 25 14 22 29
  20534465.622    -1313054.641 6   -852059.721 5
  22618762.411     9314021.760 4   7275679.778 2
  18476325.161   -24234246.990 7 -18706520.659 8
  19329395.349   -27483859.549 7 -20843274.373 7
  19232691.896   -20146892.238 7 -15548960.044 8
 95  9 27  2 38 59.9930000  0  5 18 25 14 22 29
  20513766.497    -1421831.904 6   -936821.195 5
  22629006.263     9367853.877 3   7317626.875 2
  18474919.231   -24241634.874 7 -18712277.459 8
  19324878.849   -27507605.153 7 -20861777.419 7
  19218595.317   -20220974.764 7 -15606686.677 8
 95  9 27  2 39 29.9930000  0  5 18 25 14 22 29
  20493089.255    -1530511.792 6  -1021506.777 6
  22639242.114     9421672.277 3   7359563.287 2
  18473631.224   -24248424.527 7 -18717568.095 8
  19320468.724   -27530742.043 7 -20879806.161 7
  19204525.997   -20294905.834 7 -15664295.292 8
 95  9 27  2 39 59.9930000  0  5 18 25 14 22 29
  20472423.872    -1639102.248 6  -1106122.703 5
  22649484.981     9475484.532 4   7401494.945 2
  18472444.997   -24254633.034 7 -18722405.893 8
  19316191.130   -27553275.282 7 -20897364.517 7
  19190485.013   -20368676.197 7 -15721778.682 8
 95  9 27  2 40 29.9930000  0  5 18 25 14 22 29
  20451776.927    -1747594.782 6  -1190662.304 6
  22659726.981     9529308.766 5   7443435.921 2
  18471379.591   -24260252.470 7 -18726784.680 8
  19312013.341   -27575202.656 7 -20914450.777 7
  19176481.442   -20442290.975 7 -15779140.831 8
 95  9 27  2 40 59.9930000  0  5 18 25 14 22 29
  20431152.372    -1855980.825 6  -1275118.933 6
  22669972.388     9583145.123 5   7485386.339 3
  18470417.310   -24265293.573 7 -18730712.818 8
  19307954.966   -27596520.028 7 -20931061.707 8
  19162497.294   -20515759.361 7 -15836388.907 8
 95  9 27  2 41 29.9930000  0  5 18 25 14 22 29
  20410542.622    -1964284.748 5  -1359511.565 6
  22680218.364     9636984.564 5   7527339.170 3
  18469566.044   -24269782.004 7 -18734210.287 8
  19304017.278   -27617224.090 7 -20947194.729 8
  19148545.232   -20589086.372 7 -15893526.820 8
 95  9 27  2 41 59.9930000  0  5 18 25 14 22 29
  20389947.997    -2072496.732 6  -1443832.560 6
  22690464.067     9690831.138 5   7569297.568 3
  18468819.099   -24273700.999 7 -18737264.057 8
  19300195.177   -27637294.073 7 -20962833.669 8
  19134621.364   -20662251.806 7 -15950538.839 9
 95  9 27  2 42 29.9930000  0  4 18 14 22 29
  20369376.419    -2180622.201 6  -1528086.152 6
  18468179.661   -24277050.739 7 -18739874.243 8
  19296497.560   -27656741.501 7 -20977987.506 8
  19120726.942   -20735274.463 7 -16007439.592 9
 95  9 27  2 42 59.9930000  0  4 18 14 22 29
  20348812.817    -2288667.320 5  -1612277.125 6
  18467654.677   -24279835.222 7 -18742043.971 8
  19292915.161   -27675556.139 7 -20992648.250 8
  19106860.466   -20808136.518 7 -16064215.204 9
 95  9 27  2 43 29.9930000  0  4 18 14 22 29
  20328273.067    -2396637.538 5  -1696409.722 6
  18467231.286   -24282049.221 7 -18743769.160 8
  19289454.099   -27693745.419 7 -21006821.695 7
  19093029.896   -20880812.380 7 -16120845.732 9
 95  9 27  2 43 59.9930000  0  4 18 14 22 29
  20307740.224    -2504511.293 5  -1780467.155 6
  18466913.489   -24283691.390 7 -18745048.770 8
  19286106.333   -27711325.201 7 -21020520.221 8
  19079236.544   -20953298.463 8 -16177328.376 9
 95  9 27  2 44 29.9930000  0  4 18 14 22 29
  20287232.419    -2612273.173 5  -1864437.414 6
  18466713.583   -24284761.276 7 -18745882.450 8
  19282878.981   -27728288.298 7 -21033738.207 8
  19065479.028   -21025588.715 7 -16233658.430 8
 95  9 27  2 44 59.9930000  0  4 18 14 22 29
  20266746.036    -2719935.759 5  -1948330.310 6
  18466617.708   -24285277.550 7
  19279767.716   -27744647.412 7 -21046485.559 8
  19051765.849   -21097679.529 7 -16289833.083 8
 95  9 27  2 45 29.9930000  0  4 18 14 22 29
  20246274.474    -2827490.456 5  -2032139.116 6
  18466623.146   -24285245.149 7
  19276765.099   -27760421.626 7 -21058777.136 8
  19038081.138   -21169577.743 7 -16345857.651 8
 95  9 27  2 45 59.9930000  0  4 18 14 22 29
  20225830.239    -2934934.399 5  -2115861.639 6
  18466725.372   -24284674.006 7
  19273876.278   -27775605.554 7 -21070608.769 8
  19024430.286   -21241298.610 7 -16401744.029 8
 95  9 27  2 46 29.9930000  0  4 18 14 22 29
  20205401.544    -3042299.951 5  -2199523.087 6
  18466935.646   -24283580.664 7 -18744962.514 8
  19271099.364   -27790205.554 7 -21081985.373 8
  19010815.497   -21312849.063 7 -16457497.616 8
 95  9 27  2 46 59.9930000  0  4 18 14 22 29
  20184983.903    -3149590.748 5  -2283126.254 6
  18467249.067   -24281959.928 7 -18743699.608 8
  19268435.364   -27804220.010 7 -21092905.714 8
  18997238.052   -21384218.067 7 -16513109.820 8
 95  9 27  2 47 29.9930000  0  4 18 14 22 29
  20164584.919    -3256806.567 6  -2366671.025 6
  18467656.286   -24279819.811 7 -18742031.986 8
  19265873.966   -27817659.705 7 -21103378.203 8
  18983689.005   -21455412.653 7 -16568586.102 9
 95  9 27  2 47 59.9930000  0  4 18 14 22 29
  20144196.724    -3363935.344 6  -2450147.961 6
  18468168.325   -24277141.792 7 -18739945.219 8
  19263425.669   -27830503.858 7 -21113386.619 8
  18970177.005   -21526420.474 7 -16623916.851 9
 95  9 27  2 48 29.9930000  0  4 18 14 22 29
  20123830.396    -3470953.975 6  -2533539.068 6
  18468782.161   -24273904.913 7 -18737422.983 8
  19261098.419   -27842744.538 7 -21122924.816 8
  18956699.396   -21597228.638 7 -16679092.022 8
 95  9 27  2 48 59.9930000  0  4 18 14 22 29
  20103491.888    -3577838.243 6  -2616825.478 6
  18469502.239   -24270112.928 7 -18734468.193 8
  19258880.653   -27854393.743 7 -21132002.101 8
  18943261.271   -21667853.310 7 -16734124.223 8
 95  9 27  2 49 29.9930000  0  4 18 14 22 29
  20083180.653    -3684579.567 6  -2700000.518 5
  18470334.169   -24265759.227 7 -18731075.694 8
  19256776.185   -27865463.092 7 -21140627.567 8
  18929855.481   -21738310.594 7 -16789025.991 8
 95  9 27  2 49 59.9930000  0  4 18 14 22 29
  20062891.927    -3791192.579 6  -2783075.561 6
  18471267.474   -24260845.716 7 -18727246.993 8
  19254781.708   -27875945.953 7 -21148796.024 8
  18916471.825   -21808617.375 7 -16843810.480 8
 95  9 27  2 50 29.9930000  0  4 18 14 22 29
  20042626.208    -3897698.612 6  -2866067.235 5
  18472304.630   -24255393.556 7 -18722998.551 8
  19252896.278   -27885845.892 7 -21156510.254 7
  18903122.013   -21878782.282 7 -16898484.424 8
 95  9 27  2 50 59.9930000  0  4 18 14 22 29
  20022370.044    -4004127.729 6  -2948998.990 5
  18473440.474   -24249421.995 7 -18718345.390 8
  19251125.544   -27895167.850 7 -21163774.104 8
  18889801.450   -21948801.269 7 -16953044.675 8
 95  9 27  2 51 29.9930000  0  4 18 14 22 29
  20002129.544    -4110505.567 6  -3031890.786 5
  18474675.013   -24242935.747 7 -18713291.159 8
  19249461.896   -27903898.042 7 -21170576.842 8
  18876503.849   -22018665.754 7 -17007484.523 8
 95  9 27  2 51 59.9930000  0  4 18 14 22 29
  19981891.810    -4216851.613 6  -3114757.811 5
  18476001.771   -24235955.103 7 -18707851.706 8
  19247914.427   -27912035.061 7 -21176917.369 8
  18863240.810   -22088367.261 7 -17061797.366 8
 95  9 27  2 52 29.9930000  0  4 18 14 22 29
  19961666.864    -4323140.666 6  -3197580.434 5
  18477425.161   -24228466.156 7 -18702016.161 8
  19246479.646   -27919582.041 7 -21182798.129 8
  18850012.325   -22157879.679 7 -17115962.882 8
 95  9 27  2 52 59.9930000  0  4 18 14 22 29
  19941453.278    -4429357.561 6  -3280346.825 5
  18478952.661   -24220452.848 7 -18695772.040 8
  19245154.411   -27926552.948 7 -21188229.992 8
  18836819.185   -22227203.409 7 -17169981.367 9
 95  9 27  2 53 29.9930000  0  4 18 14 22 29
  19921262.833    -4535468.938 6  -3363030.997 6
  18480583.724   -24211888.520 7 -18689098.544 8
  19243933.403   -27932940.876 7 -21193207.597 8
  18823666.638   -22296332.783 7 -17223848.393 9
 95  9 27  2 53 59.9930000  0  4 18 14 22 29
  19901082.536    -4641491.087 6  -3445645.630 6
  18482306.310   -24202800.622 7 -18682017.064 8
  19242826.981   -27938791.552 7 -21197766.557 8
  18810541.325   -22365301.376 7 -17277590.145 9
 95  9 27  2 54 29.9930000  0  4 18 14 22 29
  19880931.560    -4747403.925 6  -3528175.099 6
  18484140.286   -24193184.803 7 -18674524.233 8
  19241812.614   -27944110.757 7 -21201911.385 8
  18797446.974   -22434114.529 7 -17331210.778 9
 95  9 27  2 54 59.9930000  0  5 18 19 14 22 29
  19860795.036    -4853220.848 6  -3610629.826 6
  21474525.856     -116196.130 3
  18486071.692   -24183056.752 7 -18666632.248 8
  19240900.021   -27948896.226 7 -21205640.317 8
  18784380.200   -22502782.355 7 -17384718.162 8
 95  9 27  2 55 29.9930000  0  5 18 19 14 22 29
  19840678.786    -4958935.683 6  -3693004.998 6
  21452438.544     -232225.688 3
  18488092.599   -24172418.777 7 -18658342.912 8
  19240094.356   -27953131.774 7 -21208940.740 8
  18771342.216   -22571294.807 7 -17438104.474 8
 95  9 27  2 55 59.9930000  0  5 18 19 14 22 29
  19820579.942    -5064566.749 6  -3775314.898 6
  21430394.794     -348107.315 3
  18490209.606   -24161298.674 7 -18649677.900 8
  19239389.731   -27956830.614 7 -21211822.948 8
  18758333.036   -22639659.408 7 -17491375.575 9
 95  9 27  2 56 29.9930000  0  5 18 19 14 22 29
  19800486.435    -5170149.350 6  -3857587.040 6
  21408361.989     -463864.677 3
  18492411.177   -24149728.230 7 -18640661.972 8
  19238786.388   -27960006.809 7 -21214297.896 8
  18745349.013   -22707886.686 7 -17544539.671 9
 95  9 27  2 56 59.9930000  0  5 18 19 14 22 29
  19780406.575    -5275666.838 6  -3939808.438 6
  21386365.567     -579469.018 2        -0.35911
  18494703.177   -24137682.576 7 -18631275.756 8
  19238284.583   -27962630.532 6 -21216342.356 7
  18732398.739   -22775940.445 7 -17597568.560 9
 95  9 27  2 57 29.9920000  0  5 18 19 14 22 29
  19760338.211    -5381120.443 6  -4021980.061 6
  21364388.063     -694919.183 2
  18497084.617   -24125164.008 7 -18621521.030 8
  19237886.484   -27964722.820 7 -21217972.707 7
  18719483.680   -22843815.566 7 -17650458.251 9
 95  9 27  2 57 59.9920000  0  5 18 19 14 22 29
  19740287.524    -5486509.481 6  -4104101.369 6
  21342455.758     -810219.462 3
  18499556.781   -24112172.142 7 -18611397.504 8
  19237592.695   -27966282.773 7 -21219188.246 7
  18706599.445   -22911514.979 7 -17703211.031 9
 95  9 27  2 58 29.9920000  0  5 18 19 14 22 29
  19720244.266    -5591820.524 6  -4186161.899 6
  21320545.359     -925360.318 3        -0.43411
  18502119.727   -24098700.574 7 -18600900.179 8
  19237394.742   -27967312.251 7 -21219990.439 7
  18693751.844   -22979039.980 7 -17755827.900 9
 95  9 27  2 58 59.9920000  0  5 18 19 14 22 29
  19700219.375    -5697055.330 6  -4268163.010 6
  21298663.242    -1040358.181 3    -89609.123 1
  18504777.242   -24084758.250 7 -18590036.032 8
  19237295.094   -27967848.128 7 -21220408.003 7
  18680928.461   -23046424.366 7 -17808335.202 8
 95  9 27  2 59 29.9920000  0  5 18 19 14 22 29
  19680208.313    -5802201.712 6  -4350095.228 6
  21276796.516    -1155224.829 3   -179115.558 1
  18507517.406   -24070342.862 7 -18578803.272 8
  19237288.367   -27967894.177 7
  18668127.711   -23113684.093 7 -17860745.365 8
 95  9 27  2 59 59.9920000  0  5 18 19 14 22 29
  19660218.359    -5907257.382 6  -4431956.757 6
  21254960.984    -1269958.841 3   -268518.621 1
  18510348.680   -24055465.619 7 -18567210.617 8
  19237369.539   -27967446.398 7
  18655348.906   -23180834.505 7 -17913070.344 8
 95  9 27  3  0 29.9920000  0  5 18 19 14 22 29
  19640244.180    -6012226.543 6  -4513750.898 6
  21233153.664    -1384569.893 3   -357825.894 1
  18513266.531   -24040127.319 7 -18555258.692 8
  19237549.742   -27966519.226 7 -21219372.479 7
  18642594.164   -23247866.649 7 -17965303.186 8
 95  9 27  3  0 59.9920000  0  5 18 19 14 22 29
  19620281.602    -6117124.483 6  -4595489.511 6
  21211365.125    -1499077.832 3   -447052.857 1
  18516269.602   -24024340.089 7 -18542956.957 8
  19237815.789   -27965114.736 7 -21218278.077 7
  18629862.813   -23314781.169 7 -18017444.362 8
 95  9 27  3  1 29.9920000  0  5 18 19 14 22 29
  19600329.172    -6221969.015 6  -4677186.522 6
  21189602.234    -1613491.176 3   -536206.042 1
  18519356.711   -24008117.066 7 -18530315.642 8
  19238175.086   -27963216.807 7 -21216799.167 7
  18617153.875   -23381566.975 7 -18069485.237 9
 95  9 27  3  1 59.9920000  0  5 18 19 14 22 29
  19580386.734    -6326767.690 6  -4758847.801 6
  21167851.172    -1727798.715 3   -625276.771 1
  18522530.984   -23991451.567 7 -18517329.548 8
  19238628.563   -27960808.127 7 -21214922.273 7
  18604474.953   -23448188.649 7 -18121398.217 9
 95  9 27  3  2 29.9920000  0  5 18 19 14 22 29
  19560450.859    -6431545.073 6  -4840492.504 6
  21146110.695    -1842015.078 3   -714276.459 1
  18525784.641   -23974349.703 7 -18504003.429 8
  19239189.055   -27957894.702 7 -21212652.064 7
  18591825.078   -23514653.280 7 -18173188.834 9
 95  9 27  3  2 59.9920000  0  5 18 19 14 22 29
  19540516.578    -6536294.984 6  -4922115.788 6
  21124391.750    -1956121.933 3   -803190.820 1
  18529122.656   -23956805.355 7 -18490332.519 8
  19239845.422   -27954452.335 7 -21209969.699 7
  18579209.828   -23580962.711 7 -18224858.511 9
 95  9 27  3  3 29.9920000  0  5 18 19 14 22 29
  19520586.422    -6641024.667 6  -5003723.313 6
  21102696.047    -2070107.674 3   -892010.808 2
  18532544.133   -23938823.839 7 -18476320.957 8
  19240595.406   -27950495.194 7 -21206886.212 7
  18566617.063   -23647128.551 7 -18276416.300 9
 95  9 27  3  3 59.9920000  0  5 18 19 14 22 29
  19500666.852    -6745716.190 6  -5085301.104 6
  21081034.547    -2183961.663 3   -980728.136 3
  18536047.383   -23920410.792 7 -18461973.135 8
  19241440.859   -27946047.230 7 -21203420.260 7
  18554049.734   -23713173.775 7 -18327880.102 9
 95  9 27  3  4 29.9920000  0  5 18 19 14 22 29
  19480755.969    -6850340.262 6  -5166826.320 6
  21059399.117    -2297674.024 3  -1069335.097 2
  18539636.422   -23901567.029 7 -18447289.678 8
  19242382.320   -27941119.600 7 -21199580.545 7
  18541502.109   -23779110.763 7 -18379259.568 9
 95  9 27  3  4 59.9920000  0  5 18 19 14 22 29
  19460864.453    -6954869.066 6  -5248277.322 6
  21037788.445    -2411237.699 3  -1157826.192 3
  18543303.383   -23882287.826 7 -18432266.924 8
  19243408.305   -27935719.817 7 -21195372.918 7
  18528977.063   -23844921.711 7 -18430540.818 9
 95  9 27  3  5 29.9920000  0  5 18 19 14 22 29
  19440990.930    -7059295.231 6  -5329648.351 6
  21016202.820    -2524658.611 3  -1246206.015 2
  18547051.523   -23862581.421 7 -18416911.290 8
  19244517.719   -27929872.729 7 -21190816.743 7
  18516482.164   -23910591.399 7 -18481712.002 9
 95  9 27  3  5 59.9920000  0  5 18 19 14 22 29
  19421140.484    -7163604.598 6  -5410928.351 6
  20994646.898    -2637949.452 3  -1334484.511 4
  18550886.078   -23842450.323 7 -18401224.726 8
  19245717.024   -27923576.564 7 -21185910.632 7
  18504016.477   -23976103.950 7 -18532760.736 9
 95  9 27  3  6 29.9920000  0  5 18 19 14 22 29
  19401312.883    -7267815.072 6  -5492131.298 6
  20973114.188    -2751124.057 3  -1422672.462 4
  18554797.281   -23821885.344 7 -18385200.067 8
  19247004.859   -27916822.805 7 -21180647.960 7
  18491583.344   -24041431.609 7 -18583665.402 9
 95  9 27  3  6 59.9920000  0  5 18 19 14 22 29
  19381496.070    -7371946.574 6  -5573272.709 6
  20951593.727    -2864191.389 3  -1510776.808 4
  18558791.844   -23800891.988 7 -18368841.610 8
  19248375.594   -27909614.197 7 -21175030.862 8
  18479186.453   -24106574.111 7 -18634425.791 9
 95  9 27  3  7 29.9920000  0  5 18 19 14 22 29
  19361696.977    -7476002.235 6  -5654355.023 6
  20930099.609    -2977147.290 3  -1598794.325 4
  18562870.133   -23779469.666 7 -18352148.891 8
  19249839.594   -27901936.187 7 -21169047.998 8
  18466824.781   -24171550.578 7 -18685056.801 9
 95  9 27  3  7 59.9920000  0  5 18 19 14 22 29
  19341909.594    -7579984.246 6  -5735379.969 7
  20908620.695    -3089987.286 3  -1686721.534 4
  18567027.141   -23757606.665 7 -18335112.785 8
  19251389.641   -27893767.131 7 -21162682.494 8
  18454487.758   -24236380.255 7 -18735573.426 9
 95  9 27  3  8 29.9920000  0  5 18 19 14 22 29
  19322134.086    -7683895.769 6  -5816349.975 7
  20887183.195    -3202705.068 3  -1774553.508 4
  18571272.797   -23735303.792 7 -18317733.935 8
  19253039.180   -27885114.071 7 -21155939.852 8
  18442175.563   -24301075.721 7 -18785985.467 9
 95  9 27  3  8 59.9920000  0  5 18 19 14 22 29
  19302380.883    -7787709.215 6  -5897243.557 7
  20865763.531    -3315266.741 2  -1862263.869 2
  18575603.664   -23712552.248 7 -18300005.465 8
  19254779.031   -27875952.864 7 -21148801.250 8
  18429890.359   -24365630.125 7 -18836287.577 9
 95  9 27  3  9 29.9920000  0  5 18 19 14 22 29
  19282640.516    -7891436.221 7  -5978069.785 7
  20844360.422    -3427688.451 1  -1949865.183 2
  18580012.727   -23689374.273 7 -18281944.718 8
  19256615.477   -27866303.327 7 -21141282.119 8
  18417632.063   -24430060.213 7 -18886492.835 9
 95  9 27  3  9 59.9920000  0  4 18 14 22 29
  19262923.719    -7995060.154 7  -6058815.690 7
  18584503.125   -23665760.197 7 -18263544.131 8
  19258545.125   -27856170.482 7 -21133386.398 7
  18405401.320   -24494325.368 7 -18936569.577 9
 95  9 27  3 10 29.9920000  0  4 18 14 22 29
  19243220.188    -8098586.156 6  -6139485.281 7
  18589077.047   -23641733.958 7 -18244822.402 8
  19260563.883   -27845573.371 7 -21125128.910 7
  18393202.930   -24558421.549 7 -18986514.650 8
 95  9 27  3 10 59.9920000  0  5 18 14  4 22 29
  19223535.063    -8202027.382 6  -6220088.806 7
  18593730.820   -23617303.503 7 -18225785.695 8
  22405608.844          -0.74112
  19262664.703   -27834515.426 7 -21116512.328 8
  18381040.586   -24622346.573 7 -19036326.350 8
 95  9 27  3 11 29.9920000  0  4 18 14 22 29
  19203872.992    -8305370.754 6  -6300616.086 7
  18598455.648   -23592457.650 7 -18206425.305 8
  19264853.930   -27823010.996 7 -21107547.828 7
  18368911.414   -24686084.354 7 -19085992.147 8
 95  9 27  3 11 59.9920000  0  4 18 14 22 29
  19184226.891    -8408603.182 7  -6381056.921 7
  18603266.078   -23567177.355 7 -18186726.376 8
  19267134.570   -27811040.235 7 -21098219.965 7
  18356821.617   -24749602.089 7 -19135486.483 8
 95  9 27  3 12 29.9920000  0  4 18 14 22 29
  19164601.625    -8511741.813 7  -6461424.674 7
  18608157.000   -23541478.387 7 -18166701.221 8
  19269495.313   -27798609.965 7 -21088534.045 8
  18344772.688   -24812917.556 7 -19184823.202 8
 95  9 27  3 12 59.9920000  0  4 18 14 22 29
  19144996.602    -8614767.168 7  -6541704.150 6
  18613132.094   -23515327.646 7 -18146324.029 8
  19271954.469   -27785706.561 7 -21078479.443 7
  18332768.227   -24876011.470 7 -19233987.280 8
 95  9 27  3 13 29.9920000  0  4 18 14 22 29
  19125410.531    -8717688.664 7  -6621902.702 6
  18618192.914   -23488743.913 7 -18125609.444 7
  19274495.234   -27772347.172 7 -21068069.532 7
  18320801.156   -24938903.757 7 -19282994.261 8
 95  9 27  3 13 59.9920000  0  4 18 14 22 29
  19105845.023    -8820501.769 7  -6702016.792 7
  18623330.742   -23461727.368 7 -18104557.596 7
  19277131.008   -27758502.810 7 -21057281.717 7
  18308870.766   -25001592.095 7 -19331842.305 9
 95  9 27  3 14 29.9920000  0  4 18 14 22 29
  19086302.586    -8923204.464 7  -6782044.846 7
  18628554.594   -23434280.878 7 -18083170.742 8
  19279855.711   -27744180.632 6 -21046121.572 7
  18296975.789   -25064107.265 7 -19380555.421 9
 95  9 27  3 14 59.9920000  0  4 18 14 22 29
  19066780.172    -9025798.771 7  -6861988.455 7
  18633859.898   -23406401.433 7 -18061446.515 8
  19282677.180   -27729374.697 7 -21034584.476 7
  18285112.945   -25126444.651 7 -19429130.003 9
 95  9 27  3 15 29.9920000  0  4 18 14 22 29
  19047280.633    -9128280.503 7  -6941844.321 7
  18639246.172   -23378102.302 7 -18039395.259 8
  19285580.969   -27714080.086 6 -21022666.600 7
  18273283.070   -25188597.439 7 -19477560.739 9
 95  9 27  3 15 59.9920000  0  4 18 14 22 29
  19027796.688    -9230647.759 7  -7021610.983 7
  18644708.102   -23349387.358 7 -18017019.987 8
  19288586.859   -27698300.900 6 -21010371.142 7
  18261493.438   -25250562.623 7 -19525845.292 9
 95  9 27  3 16 29.9920000  0  4 18 14 22 29
  19008339.195    -9332890.838 7  -7101280.894 7
  18650259.539   -23320237.151 7 -17994305.541 8
  19291678.008   -27682043.725 7 -20997703.202 7
  18249738.859   -25312318.850 7 -19573967.018 9
 95  9 27  3 16 59.9920000  0  4 18 14 22 29
  18988909.984    -9435003.164 7  -7180848.912 7
  18655889.055   -23290647.750 7 -17971248.871 8
  19294867.328   -27665314.612 7 -20984667.524 7
  18238032.828   -25373850.890 7 -19621914.058 9
 95  9 27  3 17 29.9920000  0  4 18 14 22 29
  18969506.781    -9536967.153 7  -7260301.354 7
  18661602.148   -23260617.532 7 -17947848.704 8
  19298138.641   -27648112.578 7 -20971263.343 7
  18226366.789   -25435166.131 7 -19669692.156 9
 95  9 27  3 17 59.9910000  0  4 18 14 22 29
  18950129.526    -9638779.175 7  -7339635.374 7
  18667407.855   -23230135.656 7 -17924096.599 8
  19301500.323   -27630427.355 7 -20957482.642 7
  18214739.644   -25496260.966 7 -19717298.524 9
 95  9 27  3 18 29.9910000  0  4 18 14 22 29
  18930786.112    -9740439.972 7  -7418851.571 7
  18673293.089   -23199192.776 7 -17899985.268 8
  19304963.667   -27612256.091 7 -20943323.211 7
  18203157.503   -25557132.242 7 -19764730.678 9
 95  9 27  3 18 59.9910000  0  4 18 14 22 29
  18911472.886    -9841937.716 7  -7497940.707 7
  18679260.753   -23167812.453 7 -17875533.071 8
  19308509.901   -27593604.960 7 -20928789.867 7
  18191611.808   -25617790.980 7 -19811997.216 9
 95  9 27  3 19 29.9910000  0  4 18 14 22 29
  18892193.909    -9943261.289 7  -7576894.125 7
  18685317.183   -23135998.025 7 -17850742.620 8
  19312152.362   -27574461.278 7 -20913872.710 7
  18180113.401   -25678219.791 7 -19859084.593 9
 95  9 27  3 19 59.9910000  0  4 18 14 22 29
  18872945.964   -10044406.957 7  -7655708.923 8
  18691455.839   -23103749.281 7 -17825613.748 8
  19315885.800   -27554844.151 7 -20898586.639 7
  18168659.995   -25738403.787 7 -19905981.210 9
 95  9 27  3 20 29.9910000  0  4 18 14 22 29
  18853734.081   -10145363.072 7  -7734376.007 8
  18697669.284   -23071076.094 7 -17800154.136 8
  19319704.620   -27534779.537 7 -20882951.864 7
  18157253.597   -25798343.594 7 -19952687.550 9
 95  9 27  3 20 59.9910000  0  4 18 14 22 29
  18834559.097   -10246130.683 7  -7812896.212 8
  18703968.644   -23037986.822 7 -17774370.302 8
  19323610.581   -27514271.158 7 -20866971.314 7
  18145893.784   -25858040.718 7 -19999204.781 9
 95  9 27  3 21 29.9910000  0  4 18 14 22 29
  18815419.105   -10346711.726 7  -7891271.029 7
  18710348.269   -23004461.822 7 -17748246.928 7
  19327597.948   -27493302.306 7 -20850631.951 7
  18134580.433   -25917481.377 7 -20045522.181 9
 95  9 27  3 21 59.9910000  0  4 18 14 22 29
  18796314.370   -10447108.341 7  -7969502.154 7
  18716806.683   -22970507.989 7 -17721789.405 7
  19331673.972   -27471874.174 6 -20833934.698 7
  18123321.230   -25976674.883 7 -20091646.980 9
 95  9 27  3 22 29.9910000  0  4 18 14 22 29
  18777244.089   -10547317.603 7  -8047587.285 7
  18723353.105   -22936129.720 7 -17695001.152 7
  19335845.800   -27449967.752 7 -20816864.763 7
  18112102.542   -26035613.282 7 -20137572.996 8
 95  9 27  3 22 59.9910000  0  4 18 14 22 29
  18758208.737   -10647350.213 7  -8125534.763 7
  18729970.855   -22901332.171 7 -17667886.187 7
  19340103.464   -27427562.930 7 -20799406.466 7
  18100937.159   -26094297.060 7 -20183300.611 8
 95  9 27  3 23 29.9910000  0  5 18 19 14 22 29
  18739205.042   -10747211.584 7  -8203348.815 7
  20257369.706          -0.97113
  18736673.526   -22866124.738 7 -17640451.827 7
  19344461.175   -27404666.213 7 -20781564.853 7
  18089819.933   -26152729.073 7 -20228832.054 8
 95  9 27  3 23 59.9910000  0  5 18 19 14 22 29
  18720235.269   -10846899.517 7  -8281027.714 7
  20236899.448     -107563.950 3
  18743446.167   -22830524.936 7 -17612711.736 7
  19348913.409   -27381297.681 7 -20763355.627 7
  18078749.761   -26210897.099 7 -20274157.784 8
 95  9 27  3 24 29.9910000  0  5 18 19 14 22 29
  18701299.034   -10946413.500 7  -8358571.069 7
  20216470.112     -214932.447 2
  18750295.980   -22794515.179 7 -17584652.194 7
  19353449.675   -27357460.710 7 -20744781.371 7
  18067733.651   -26268780.251 7 -20319261.537 8
 95  9 27  3 24 59.9910000  0  5 18 19 14 22 29
  18682395.815   -11045743.948 7  -8435971.412 7
  20196075.542     -322091.489 2
  18757233.784   -22758067.724 7 -17556251.589 7
  19358076.925   -27333141.022 7 -20725830.969 7
  18056774.292   -26326371.953 7 -20364138.188 8
 95  9 27  3 25 29.9910000  0  5 18 19 14 22 29
  18663517.917   -11144934.586 7  -8513262.806 7
  20175734.526     -429087.406 1
  18764244.230   -22721224.601 7 -17527542.676 7
  19362779.292   -27308403.123 7 -20706554.675 7
  18045863.245   -26383714.187 7 -20408820.444 9
 95  9 27  3 25 59.9910000  0  4 18 14 22 29
  18644679.987   -11243940.480 7  -8590410.246 7
  18771341.042   -22683941.553 7 -17498490.956 7
  19367577.565   -27283209.587 7 -20686923.346 7
  18035004.753   -26440774.789 7 -20453283.246 9
 95  9 27  3 26 29.9910000  0  4 18 14 22 29
  18625875.597   -11342768.198 7  -8667418.837 7
  18778517.019   -22646218.647 7 -17469096.489 7
  19372459.292   -27257560.423 7 -20666936.995 7
  18024190.753   -26497595.154 7 -20497558.854 9
 95  9 27  3 26 59.9910000  0  4 18 14 22 29
  18607103.409   -11441407.096 7  -8744280.306 8
  18785778.651   -22608062.111 7 -17439364.133 7
  19377423.862   -27231448.891 7 -20646590.347 7
  18013425.112   -26554184.283 7 -20541654.281 9
 95  9 27  3 27 29.9910000  0  4 18 14 22 29
  18588374.620   -11539836.323 7  -8820978.388 8
  18793122.464   -22569479.279 7 -17409299.596 7
  19382477.542   -27204877.712 6 -20625885.523 7
  18002700.933   -26610524.895 7 -20585556.053 8
 95  9 27  3 27 59.9910000  0  4 18 14 22 29
  18569686.534   -11638036.348 7  -8897497.881 8
  18800544.683   -22530475.200 7 -17378906.815 7
  19387625.823   -27177842.978 6 -20604819.496 7
  17992028.933   -26666604.388 7 -20629254.360 8
 95  9 27  3 28 29.9910000  0  4 18 14 22 29
  18551038.964   -11736034.409 7  -8973859.996 8
  18808047.050   -22491064.248 7 -17348196.991 7
  19392853.698   -27150366.198 7 -20583409.021 7
  17981409.261   -26722418.158 7 -20672745.599 8
 95  9 27  3 28 59.9910000  0  4 18 14 22 29
  18532428.526   -11833824.465 7  -9050060.027 8
  18815621.948   -22451255.731 7 -17317177.365 7
  19398164.487   -27122456.217 7 -20561660.986 6
  17970843.792   -26777936.012 7 -20716006.267 8
 95  9 27  3 29 29.9910000  0  4 18 14 22 29
  18513862.245   -11931395.663 7  -9126089.520 8
  18823269.237   -22411053.904 7 -17285851.284 7
  19403557.347   -27094102.931 7 -20539567.506 6
  17960337.683   -26833144.598 7 -20759025.944 8
 95  9 27  3 29 59.9910000  0  4 18 14 22 29
  18495333.144   -12028756.936 7  -9201955.428 8
  18830997.362   -22370457.673 7 -17254217.876 7
  19409040.339   -27065295.425 7 -20517120.101 6
  17949889.175   -26888054.639 7 -20801812.987 8
 95  9 27  3 30 29.9910000  0  4 18 14 22 29
  18476845.612   -12125918.741 7  -9277665.920 8
  18838798.042   -22329470.705 7 -17222279.987 7
  19414609.144   -27036028.195 7 -20494314.472 6
  17939495.620   -26942678.095 7 -20844376.716 8
 95  9 27  3 30 59.9910000  0  4 18 14 22 29
  18458399.769   -12222850.497 7  -9353197.150 8
  18846667.198   -22288095.711 7 -17190039.755 7
  19420278.816   -27006278.056 7 -20471132.549 6
  17929154.331   -26997023.023 7 -20886723.413 8
 95  9 27  3 31 29.9910000  0  4 18 14 22 29
  18439994.120   -12319568.595 7  -9428561.885 8
  18854616.667   -22246343.702 7 -17157505.739 7
  19426020.855   -26976062.262 7 -20447587.779 7
  17918859.761   -27051113.939 7 -20928872.168 8
 95  9 27  3 31 59.9910000  0  4 18 14 22 29
  18421632.198   -12416072.438 7  -9503759.682 8
  18862627.230   -22204207.268 7 -17124672.150 7
  19431857.495   -26945410.268 7 -20423703.111 6
  17908617.433   -27104949.683 7 -20970822.089 8
 95  9 27  3 32 29.9910000  0  4 18 14 22 29
  18403312.644   -12512339.357 7  -9578772.861 8
  18870725.487   -22161675.668 7 -17091530.645 7
  19437769.394   -26914338.063 6 -20399491.016 6
  17898425.901   -27158507.451 7 -21012555.411 8
 95  9 27  3 32 59.9910000  0  4 18 14 22 29
  18385040.487   -12608360.111 7  -9653594.218 7
  18878899.065   -22118728.727 7 -17058065.493 7
  19443759.714   -26882861.773 7 -20374964.033 7
  17888285.651   -27211782.101 7 -21054068.122 8
 95  9 27  3 33 29.9910000  0  4 18 14 22 29
  18366812.581   -12704156.415 7  -9728240.683 7
  18887149.175   -22075366.226 7 -17024276.536 7
  19449819.206   -26851009.321 6 -20350143.947 7
  17878203.714   -27264762.642 7 -21095351.662 8
 95  9 27  3 33 59.9910000  0  4 18 14 22 29
  18348625.058   -12799715.231 7  -9802702.091 7
  18895482.151   -22031584.804 7 -16990161.150 7
  19455960.464   -26818763.921 7 -20325017.656 7
  17868179.581   -27317437.076 7 -21136396.680 8
 95  9 27  3 34 29.9910000  0  4 18 14 22 29
  18330482.120   -12895049.370 7  -9876988.427 7
  18903886.683   -21987387.838 7 -16955721.951 7
  19462172.909   -26786102.009 7 -20299566.824 7
  17858218.144   -27369798.518 7 -21177197.806 8
 95  9 27  3 34 59.9910000  0  4 18 14 22 29
  18312379.136   -12990185.786 7  -9951120.691 7
  18912375.519   -21942801.274 7 -16920979.207 7
  19468470.808   -26753014.624 7 -20273784.450 7
  17848310.331   -27421863.295 7 -21217767.764 8
 95  9 27  3 35 29.9910000  0  4 18 14 22 29
  18294311.769   -13085133.018 7 -10025105.538 8
  18920927.714   -21897864.889 7 -16885963.856 7
  19474849.097   -26719494.620 7 -20247664.968 7
  17838459.292   -27473626.372 7 -21258102.635 8
 95  9 27  3 35 59.9910000  0  4 18 14 22 29
  18276286.308   -13179854.955 7 -10098914.827 8
  18929545.784   -21852578.767 7 -16850675.978 7
  19481308.058   -26685534.347 7 -20221202.417 7
  17828666.683   -27525082.261 7 -21298198.117 8
 95  9 27  3 36 29.9910000  0  4 18 14 22 29
  18258307.480   -13274351.530 7 -10172548.513 8
  18938226.347   -21806944.891 7 -16815117.119 7
  19487851.894   -26651145.430 7 -20194405.863 6
  17818933.769   -27576229.406 7 -21338053.025 8
 95  9 27  3 36 59.9910000  0  4 18 14 22 29
  18240370.683   -13368594.830 7 -10245984.837 8
  18946977.136   -21760964.921 7 -16779288.587 7
  19494483.472   -26616331.065 7 -20167277.788 6
  17809261.159   -27627070.688 7 -21377669.603 8
 95  9 27  3 37 29.9900000  0  4 18 14 22 29
  18222486.615   -13462583.599 7 -10319222.835 8
  18955791.881   -21714648.322 7 -16743197.747 7
  19501179.014   -26581118.390 7 -20139839.338 7
  17799639.311   -27677624.803 7 -21417062.414 8
 95  9 27  3 37 59.9900000  0  4 18 14 22 29
  18204645.147   -13556326.257 7 -10392269.053 8
  18964674.467   -21667976.982 7 -16706830.478 7
  19507957.186   -26545507.857 7 -20112090.871 7
  17790070.006   -27727907.925 7 -21456244.070 8
 95  9 27  3 38 29.9900000  0  4 18 14 22 29
  18186855.951   -13649824.308 7 -10465124.663 8
  18973629.654   -21620929.592 7 -16670170.188 7
  19514815.076   -26509474.449 6 -20084012.901 7
  17780557.959   -27777901.427 7 -21495200.051 8
 95  9 27  3 38 59.9900000  0  4 18 14 22 29
  18169109.397   -13743083.347 7 -10537794.047 8
  18982650.100   -21573506.038 7 -16633216.768 7
  19521745.764   -26473026.426 6 -20055611.853 7
  17771096.061   -27827613.149 7 -21533936.463 8
 95  9 27  3 39 29.9900000  0  4 18 14 22 29
  18151407.318   -13836107.923 7 -10610280.732 8
  18991745.295   -21525705.177 7 -16595969.357 7
  19528760.287   -26436173.467 6 -20026895.262 7
  17761692.428   -27877031.965 7 -21572444.627 8
 95  9 27  3 39 59.9900000  0  4 18 14 22 29
  18133754.475   -13928876.681 7 -10682568.071 8
  19000913.389   -21477520.579 6 -16558422.918 7
  19535853.811   -26398905.350 6 -19997855.186 7
  17752351.373   -27926122.709 7 -21610697.167 8
 95  9 27  3 40 29.9900000  0  4 18 14 22 29
  18116150.272   -14021381.717 7 -10754649.913 8
  19010155.498   -21428952.476 6 -16520577.654 7
  19543020.365   -26361225.633 6 -19968494.375 7
  17743075.014   -27974872.925 7 -21648684.342 8
 95  9 27  3 40 59.9900000  0  4 18 14 22 29
  18098596.779   -14113631.634 7 -10826532.966 8
  19019462.436   -21380036.462 6 -16482461.294 7
  19550272.397   -26323151.431 7 -19938826.164 7
  17733859.881   -28023294.985 7 -21686415.825 8
 95  9 27  3 41 29.9900000  0  4 18 14 22 29
  18081090.647   -14205622.787 7 -10898214.380 8
  19028839.959   -21330774.927 6 -16444075.687 7
  19557591.053   -26284676.886 6 -19908846.008 7
  17724710.818   -28071376.586 7 -21723882.003 8
 95  9 27  3 41 59.9900000  0  4 18 14 22 29
  18063630.240   -14297374.136 7 -10969708.935 8
  19038274.420   -21281178.707 6 -16405429.296 6
  19564984.264   -26245821.587 7 -19878569.159 7
  17715621.334   -28119137.725 7 -21761098.472 8
 95  9 27  3 42 29.9900000  0  4 18 14 22 29
  18046211.068   -14388901.642 7 -11041029.055 8
  19047775.764   -21231247.132 6 -16366521.579 6
  19572450.639   -26206599.703 7 -19848006.658 6
  17706590.397   -28166590.577 7 -21798074.717 8
 95  9 27  3 42 59.9900000  0  4 18 14 22 29
  18028842.475   -14480198.903 7 -11112169.764 8
  19057343.826   -21180983.000 6 -16327354.727 6
  19579979.279   -26167023.305 7 -19817167.910 6
  17697622.154   -28213727.630 7 -21834804.888 8
 95  9 27  3 43 29.9900000  0  4 18 14 22 29
  18011516.795   -14571246.486 7 -11183115.924 8
  19066974.615   -21130368.181 6 -16287914.617 7
  19587575.850   -26127103.854 7 -19786061.855 6
  17688713.615   -28260541.476 7 -21871283.210 8
 95  9 27  3 43 59.9900000  0  4 18 14 22 29
  17994239.006   -14662031.589 7 -11253857.541 8
  19076673.818   -21079410.231 7 -16248207.131 7
  19595240.889   -26086828.911 7 -19754678.776 6
  17679868.303   -28307031.565 7 -21907509.246 8
 95  9 27  3 44 29.9900000  0  4 18 14 22 29
  17977012.959   -14752548.732 7 -11324390.381 8
  19086436.725   -21028115.110 7 -16208236.907 7
  19602975.897   -26046180.995 7 -19723005.075 6
  17671081.936   -28353201.806 7 -21943486.063 8
 95  9 27  3 44 59.9900000  0  4 18 14 22 29
  17959845.631   -14842779.511 7 -11394700.068 8
  19096260.522   -20976487.405 7 -16168007.526 7
  19610785.240   -26005137.645 7 -19691023.253 6
  17662352.373   -28399056.867 7 -21979217.275 8
 95  9 27  3 45 29.9900000  0  4 18 14 22 29
  17942731.240   -14932719.821 7 -11464783.418 8
  19106145.147   -20924526.319 6 -16127518.374 7
  19618671.186   -25963681.448 7 -19658719.716 6
  17653685.662   -28444606.225 7 -22014710.282 8
 95  9 27  3 45 59.9900000  0  4 18 14 22 29
  17925669.303   -15022371.348 7 -11534641.749 8
  19116093.936   -20872234.679 6 -16086771.641 6
  19626645.670   -25921807.738 7 -19626090.862 6
  17645078.248   -28489849.673 7 -22049964.918 8
 95  9 27  3 46 29.9900000  0  5 28 18 14 22 29
  21365686.068          -0.83513
  17908663.115   -15111732.398 7 -11604273.726 8
  19126111.889   -20819610.283 7 -16045765.621 6
  19634683.584   -25879559.313 6 -19593170.012 6
  17636527.154   -28534788.982 7 -22084982.562 8
 95  9 27  3 46 59.9900000  0  6 28 18 19 14 22 29
  21346389.162     -101407.525 3
  17891714.068   -15200796.071 7 -11673673.986 8
  19336396.428          -0.40913
  19136190.459   -20766654.276 6 -16004501.211 6
  19642787.006   -25836959.412 6 -19559975.292 6
  17628035.764   -28579417.301 7 -22119757.868 8
 95  9 27  3 47 29.9900000  0  6 28 18 19 14 22 29
  21327142.061     -202565.422 4        -0.43411
  17874824.084   -15289564.773 7 -11742844.401 8
  19317742.522      -98030.469 4
  19146326.045   -20713369.775 6 -15962980.833 6
  19650956.701   -25794034.840 6 -19526527.578 7
  17619597.834   -28623730.207 7 -22154287.402 8
 95  9 27  3 47 59.9900000  0  6 28 18 19 14 22 29
  21307940.967     -303472.603 4    -78629.335 1
  17857989.029   -15378039.567 7 -11811785.796 8
  19299119.670     -195889.792 4        -0.36411
  19156530.857   -20659755.166 6 -15921203.229 6
  19659184.787   -25750793.722 6 -19492833.204 7
  17611231.701   -28667706.403 7 -22188554.567 8
 95  9 27  3 48 29.9900000  0  6 28 18 19 14 22 29
  21288787.897     -404125.735 5   -157060.371 2
  17841204.662   -15466236.261 7 -11880510.491 8
  19280536.373     -293569.421 5    -76114.326 1
  19166793.982   -20605819.777 6 -15879175.660 6
  19667476.217   -25707222.821 6 -19458881.858 6
  17602930.717   -28711337.177 7 -22222552.565 8
 95  9 27  3 48 59.9900000  0  6 28 18 19 14 22 29
  21269679.639     -504512.148 5   -235283.549 3
  17824471.131   -15554160.336 7 -11949022.743 8
  19261984.428     -391036.419 5   -152062.614 2
  19177115.897   -20551567.632 6 -15836901.264 6
  19675835.193   -25663281.071 6 -19424641.535 6
  17594694.717   -28754600.774 7 -22256264.448 8
 95  9 27  3 49 29.9900000  0  6 28 18 19 14 22 29
  21250629.459     -604639.599 5   -313304.904 3
  17807790.147   -15641823.868 7 -12017331.988 8
  19243480.373     -488288.504 5   -227843.448 2
  19187492.373   -20497016.483 6 -15794393.867 6
  19684270.818   -25618970.542 6 -19390113.852 6
  17586535.108   -28797491.604 7 -22289685.876 8
 95  9 27  3 49 59.9900000  0  6 28 18 19 14 22 29
  21231625.217     -704505.708 5   -391122.653 4
  17791154.647   -15729237.400 7 -12085446.420 8
  19225012.459     -585324.060 5   -303455.510 2
  19197935.756   -20442170.777 6 -15751656.967 6
  19692772.436   -25574281.618 6 -19355291.312 6
  17578446.482   -28840004.354 7 -22322812.706 8
 95  9 27  3 50 29.9900000  0  6 28 18 19 14 22 29
  21212669.803     -804104.570 5   -468732.121 4
  17774572.240   -15816395.335 7 -12153361.687 8
  19206594.326     -682122.674 5   -378883.001 2
  19208421.920   -20387038.221 6 -15708696.519 6
  19701343.490   -25529221.494 6 -19320179.526 6
  17570426.068   -28882156.429 7 -22355658.492 9
 95  9 27  3 50 59.9900000  0  6 28 18 19 14 22 29
  21193764.803     -903432.320 5   -546130.358 4
  17758039.537   -15903270.663 7 -12221056.748 8
  19188222.068     -778681.101 5   -454123.323 3
  19218973.139   -20331617.218 6 -15665511.327 6
  19709989.006   -25483816.856 6 -19284799.294 6
  17562471.162   -28923959.754 7 -22388232.506 8
 95  9 27  3 51 29.9900000  0  6 28 18 19 14 22 29
  21174915.139    -1002485.263 5   -623314.442 3
  17741564.920   -15989849.140 7 -12288520.490 8
  19169881.881     -875013.562 4   -529187.571 3
  19229576.576   -20275899.816 6 -15622095.179 6
  19718692.662   -25438082.441 6 -19249162.090 6
  17554578.725   -28965426.975 7 -22420544.627 8
 95  9 27  3 51 59.9900000  0  6 28 18 19 14 22 29
  21156121.037    -1101271.294 5   -700290.561 4
  17725140.381   -16076150.808 7 -12355768.537 8
  19151598.475     -971146.990 4   -604096.723 2
  19240231.170   -20219898.755 6 -15578457.997 6
  19727454.857   -25392025.010 6 -19213273.183 6
  17546748.967   -29006582.395 7 -22452613.786 8
 95  9 27  3 52 29.9900000  0  6 28 18 19 14 22 29
  21137372.193    -1199778.516 5   -777049.426 4
  17708775.889   -16162150.739 7 -12422781.458 8
  19133342.764    -1067077.137 4   -678847.463 2
  19250944.029   -20163607.666 6 -15534594.819 6
  19736279.045   -25345646.413 6 -19177134.016 6
  17538973.631   -29047418.140 7 -22484433.843 8
 95  9 27  3 52 59.9900000  0  6 28 18 19 14 22 29
  21118680.404    -1298003.302 5   -853588.192 3
  17692469.982   -16247837.839 7 -12489550.620 8
  19115116.342    -1162822.976 4   -753454.606 3
  19261713.779   -20107015.881 6 -15490497.335 6
  19745171.147   -25298935.552 6 -19140735.946 6
  17531267.803   -29087915.193 7 -22515989.994 8
 95  9 27  3 53 29.9900000  0  6 28 18 19 14 22 29
  21100049.936    -1395949.171 5   -929909.628 3
  17676217.889   -16333239.452 7 -12556097.325 8
  19096934.193    -1258399.332 5   -827929.661 2
  19272535.686   -20050132.547 6 -15446172.686 6
  19754125.873   -25251884.044 6 -19104072.432 6
  17523631.037   -29128063.764 7 -22547274.586 8
 95  9 27  3 53 59.9900000  0  6 28 18 19 14 22 29
  21081464.076    -1493604.302 5  -1006004.551 4
  17660023.084   -16418345.061 7 -12622413.375 8
  19078779.639    -1353795.599 5   -902264.399 3
  19283422.318   -19992953.147 6 -15401617.323 6
  19763145.037   -25204486.165 6 -19067139.025 6
  17516056.873   -29167848.231 7 -22578275.456 8
 95  9 27  3 54 29.9900000  0  7 28 18 19 14 31 22 29
  21062933.381    -1590968.843 5  -1081873.043 4
  17643887.686   -16503138.459 7 -12688486.146 8
  19060655.045    -1449009.277 5   -976456.864 4
  19294355.857   -19935475.283 6 -15356829.389 6
  21301135.576     -127400.929 3
  19772225.576   -25156759.453 6 -19029949.382 6
  17508555.975   -29207273.566 7 -22608996.509 8
 95  9 27  3 54 59.9900000  0  7 28 18 19 14 31 22 29
  21044458.490    -1688038.790 5  -1157511.901 4
  17627809.201   -16587637.071 7 -12754329.220 8
  19042573.553    -1544036.710 5  -1050504.210 3
  19305352.412   -19877699.138 6 -15311809.026 6
  21276894.295     -254797.067 3        -0.27113
  19781369.451   -25108704.315 6 -18992503.830 6
  17501118.693   -29246343.459 7 -22639440.588 8
 95  9 27  3 55 29.9900000  0  7 28 18 19 14 31 22 29
  21026042.811    -1784818.298 5  -1232924.486 2
  17611781.022   -16671858.095 7 -12819955.990 8
  19024528.779    -1638873.547 5  -1124403.054 5
  19316399.115   -19819645.507 6 -15266572.437 6
  21252646.303     -382205.681 3    -99279.699 3
  19790573.865   -25060344.437 6 -18954820.816 6
  17493751.178   -29285080.638 7 -22669625.414 8
 95  9 27  3 55 59.9900000  0  7 28 18 19 14 31 22 29
  21007685.389    -1881300.953 5  -1308105.745 3
  17595813.803   -16755773.228 7 -12885344.404 8
  19006518.600    -1733513.978 5  -1198148.849 4
  19327495.162   -19761311.400 6 -15221117.299 6
  21228398.795     -509619.231 3   -198562.941 2
  19799830.842   -25011693.090 6 -18916910.677 6
  17486436.982   -29323501.789 7 -22699563.974 8
 95  9 27  3 56 29.9890000  0  7 28 18 19 14 31 22 29
  20989385.267    -1977473.940 5  -1383045.721 3
  17579907.345   -16839373.241 7 -12950487.269 9
  18988553.431    -1827938.985 5  -1271726.762 4
  19338648.118   -19702702.072 6 -15175447.711 6
  21204164.110     -637013.547 3   -297831.282 2
  19809148.040   -24962746.565 6 -18878770.545 6
  17479190.079   -29361598.861 7 -22729250.022 8
 95  9 27  3 56 59.9890000  0  7 28 18 19 14 31 22 29
  20971144.821    -2073348.654 5  -1457753.259 3
  17564053.525   -16922671.692 7 -13015395.140 8
  18970617.939    -1922156.073 5  -1345142.665 4
  19349851.892   -19643838.079 6 -15129579.664 6
  21179917.220     -764413.522 3   -397103.957 2
  19818518.110   -24913513.110 6 -18840406.812 6
  17472003.360   -29399363.689 7 -22758677.162 8
 95  9 27  3 57 29.9890000  0  7 28 18 19 14 31 22 29
  20952954.571    -2168924.092 5  -1532227.645 3
  17548263.978   -17005645.382 7 -13080049.945 8
  18952736.360    -2016165.152 5  -1418396.477 5
  19361099.423   -19584734.641 6 -15083525.027 6
  21155671.907     -891811.989 3   -496375.491 2
  19827935.720   -24863996.376 6 -18801822.355 6
  17464882.798   -29436788.437 7 -22787839.306 8
 95  9 27  3 57 59.9890000  0  7 28 18 19 14 31 22 29
  20934820.806    -2264191.134 5  -1606461.645 5
  17532539.571   -17088277.675 7 -13144438.730 8
  18934887.876    -2109966.553 5  -1491488.469 5
  19372394.337   -19525393.102 6 -15037284.871 6
  21131437.134    -1019198.324 3   -595637.518 1
  19837417.626   -24814179.527 6 -18763004.029 6
  17457829.415   -29473841.527 7 -22816711.844 8
 95  9 27  3 58 29.9890000  0  7 28 18 19 14 31 22 29
  20916752.071    -2359153.401 5  -1680458.228 4
  17516877.189   -17170588.840 7 -13208577.286 8
  18917073.204    -2203564.594 5  -1564421.992 5
  19383725.970   -19465824.079 6 -14990867.451 6
  21107192.064    -1146589.676 3   -694903.538 1
  19846952.079   -24764055.839 6 -18723946.616 6
  17450852.040   -29510508.271 7 -22845283.341 8
 95  9 27  3 58 59.9890000  0  7 28 18 19 14 31 22 29
  20898742.189    -2453811.677 5  -1754217.906 4
  17501273.884   -17252584.528 7 -13272470.017 8
  18899298.235    -2296964.814 5  -1637201.372 5
  19395107.157   -19406025.043 6 -14944270.799 6
  21082949.407    -1273997.695 3   -794182.465 2
  19856551.978   -24713627.697 6 -18684651.958 6
  17443948.525   -29546803.276 7 -22873565.171 8
 95  9 27  3 59 29.9890000  0  7 28 18 19 14 31 22 29
  20880789.321    -2548160.352 5  -1827736.340 5
  17485729.212   -17334272.097 7 -13336122.659 8
  18881562.243    -2390165.452 5  -1709825.235 5
  19406531.235   -19345980.172 6 -14897482.595 6
  21058704.595    -1401395.266 3   -893453.252 1
  19866208.673   -24662885.231 6 -18645112.375 6
  17437109.025   -29582736.011 7 -22901564.702 9
 95  9 27  3 59 59.9890000  0  7 28 18 19 14 31 22 29
  20862891.392    -2642198.423 5  -1901012.749 3
  17470240.267   -17415660.820 7 -13399542.442 8
  18863867.485    -2483162.796 5  -1782290.680 5
  19418009.306   -19285688.884 6 -14850502.379 6
  21034467.579    -1528777.484 4   -992712.166 1
  19875921.001   -24611832.256 6 -18605330.839 6
  17430335.595   -29618310.428 7 -22929285.015 8
 95  9 27  4  0 29.9890000  0  7 28 18 19 14 31 22 29
  20845052.259    -2735924.167 5  -1974045.807 4
  17454807.415   -17496759.165 7 -13462735.959 8
  18846212.556    -2575944.703 5  -1854588.251 4
  19429529.978   -19225140.250 6 -14803321.640 6
  21010229.423    -1656129.556 3  -1091947.547 3
  19885691.845   -24560481.600 6 -18565317.340 5
  17423632.337   -29653545.479 7 -22956740.898 8
 95  9 27  4  0 59.9890000  0  7 28 18 19 14 31 22 29
  20827280.985    -2829323.374 5  -2046824.381 3
  17439431.673   -17577553.002 7 -13525692.191 7
  18828598.126    -2668505.697 5  -1926713.672 5
  19441101.431   -19164320.641 6 -14755929.765 6
  20986006.446    -1783418.486 4  -1191133.662 2
  19895523.103   -24508836.507 6 -18525074.424 6
  17416995.259   -29688428.269 7 -22983922.296 8
 95  9 27  4  1 29.9890000  0  7 28 18 19 14 31 22 29
  20809572.806    -2922397.153 5  -2119349.380 5
  17424118.157   -17658036.197 7 -13588406.371 8
  18811024.720    -2760854.112 5  -1998673.469 5
  19452726.204   -19103245.907 6 -14708339.088 5
  20961795.275    -1910646.742 3  -1290272.557 1
  19905403.126   -24456908.715 6 -18484611.219 5
  17410430.501   -29722939.177 7 -23010813.902 8
 95  9 27  4  1 59.9890000  0  7 28 18 19 14 31 22 29
  20791921.993    -3015143.584 5  -2191619.293 5
  17408862.907   -17738198.392 7 -13650870.417 8
  18793486.071    -2853004.010 5  -2070478.572 5
  19464396.470   -19041932.640 6 -14660562.532 6
  20937590.095    -2037840.542 4  -1389384.625 2
  19915336.595   -24404705.240 6 -18443933.183 5
  17403930.657   -29757080.852 7 -23037417.805 8
 95  9 27  4  2 29.9890000  0  7 28 18 19 14 31 22 29
  20774335.712    -3107558.800 5  -2263631.141 5
  17393668.657   -17818045.870 7 -13713089.223 8
  18775990.642    -2944967.868 5  -2142138.710 5
  19476102.212   -18980386.316 6 -14612604.368 6
  20913393.189    -2165017.394 4  -1488483.437 2
  19925321.673   -24352238.728 6 -18403050.206 6
  17397503.150   -29790866.578 7 -23063744.342 9
 95  9 27  4  2 59.9890000  0  7 28 18 19 14 31 22 29
  20756811.079    -3199642.535 5  -2335384.703 5
  17378537.501   -17897573.058 7 -13775058.455 8
  18758518.868    -3036759.925 5  -2213664.969 5
  19487859.868   -18918628.865 6 -14564481.691 5
  20889189.735    -2292193.732 4  -1587581.860 2
  19935354.900   -24299517.618 6 -18361968.830 6
  17391139.290   -29824300.419 7 -23089796.688 9
 95  9 27  4  3 29.9890000  0  7 28 18 19 14 31 22 29
  20739352.345    -3291392.840 5
  17363465.743   -17976771.331 7 -13836771.390 8
  18741085.407    -3128382.647 5
  19499643.290   -18856666.262 6 -14516199.137 6
  20864986.110    -2419381.467 3  -1686689.171 2
  19945433.525   -24246544.469 6 -18320691.063 6
  17384842.946   -29857390.769 7 -23115581.380 9
 95  9 27  4  3 59.9890000  0  7 28 18 19 14 31 22 29
  20721955.720    -3382807.453 5
  17348454.954   -18055646.904 7 -13898232.869 8
  18723678.626    -3219837.571 5
  19511470.001   -18794501.360 6 -14467758.956 6
  20840778.657    -2546569.423 4  -1785796.663 1
  19955563.821   -24193316.613 6 -18279214.813 6
  17378607.454   -29890151.933 7 -23141109.560 8
 95  9 27  4  4 29.9890000  0  7 28 18 19 14 31 22 29
  20704627.321    -3473869.039 5  -2549067.624 5
  17333513.900   -18134176.278 7 -13959424.586 8
  18706316.845    -3311093.686 5  -2427431.448 5
  19523353.556   -18732116.099 6 -14419147.072 6
  20816595.314    -2673719.398 4  -1884874.559 2
  19965741.587   -24139828.132 6 -18237535.475 6
  17372442.009   -29922558.564 7 -23166361.488 9
 95  9 27  4  4 59.9890000  0  7 28 18 19 14 31 22 29
  20687369.610    -3564589.211 5  -2619758.679 5
  17318636.673   -18212346.110 7 -14020336.137 8
  18688986.689    -3402157.736 5  -2498390.418 5
  19535256.384   -18669526.083 6 -14370375.619 6
  20792405.360    -2800821.264 3  -1983914.993 1
  19975967.556   -24086090.248 6 -18195661.796 6
  17366345.532   -29954591.927 7 -23191322.560 9
 95  9 27  4  5 29.9890000  0  7 28 18 19 14 31 22 29
  20670170.360    -3654964.558 5  -2690181.013 5
  17303833.321   -18290147.113 7 -14080960.295 8
  18671692.321    -3493019.975 5  -2569192.150 5
  19547209.384   -18606715.838 6 -14321432.573 6
  20768230.267    -2927856.194 4  -2082903.224 2
  19986241.775   -24032099.923 6 -18153591.414 6
  17360321.485   -29986246.899 7 -23215988.773 9
 95  9 27  4  5 59.9890000  0  7 28 18 19 14 31 22 29
  20653037.150    -3744988.047 5  -2760329.203 4
  17289096.759   -18367580.321 7 -14141297.852 8
  18654444.415    -3583668.856 5  -2639827.617 5
  19559206.376   -18543682.954 6 -14272316.037 5
  20744071.243    -3054805.236 3  -2181824.562 3
  19996563.228   -23977858.051 6 -18111325.029 6
  17354370.868   -30017515.681 7 -23240354.054 9
 95  9 27  4  6 29.9890000  0  7 28 18 19 14 31 22 29
  20635971.806    -3834663.745 5  -2830206.371 5
  17274429.353   -18444650.910 7 -14201352.844 8
  18637239.040    -3674107.940 5  -2710299.615 5
  19571247.642   -18480427.184 6 -14223025.829 5
  20719922.384    -3181673.728 3  -2280683.113 2
  20006931.657   -23923381.804 6 -18068876.010 6
  17348494.126   -30048398.998 7 -23264418.974 8
 95  9 27  4  6 59.9890000  0  7 28 18 19 14 31 22 29
  20618972.704    -3923990.337 5  -2899811.472 5
  17259830.470   -18521377.846 7 -14261140.064 8
  18620064.923    -3764339.041 6  -2780609.539 5
  19583322.720   -18416939.294 6 -14173554.737 5
  20695797.939    -3308457.042 3  -2379475.275 3
  20017343.595   -23868666.488 6 -18026240.703 5
  17342688.759   -30078909.479 7 -23288193.375 8
 95  9 27  4  7 29.9890000  0  8 28 18 19 27 14 31 22 29
  20602046.407    -4012959.895 5  -2969138.412 5
  17245290.329   -18597788.540 7 -14320680.849 8
  18602937.431    -3854359.028 6  -2850754.955 5
  20915249.048          -0.22612
  19595450.892   -18353218.580 6 -14123902.258 6
  20671692.728    -3435155.537 3  -2478201.370 3
  20027803.001   -23813697.046 6 -17983407.385 6
  17336948.829   -30109072.617 7 -23311697.131 8
 95  9 27  4  7 59.9890000  0  8 28 18 19 27 14 31 22 29
  20585183.657    -4101578.075 5  -3038191.526 5
  17230806.267   -18673905.538 7 -14379992.795 8
  18585843.017    -3944176.929 6  -2920742.909 5
  20893254.845     -115603.804 2
  19607618.353   -18289296.035 6 -14074092.495 6
  20647594.118    -3561788.738 3  -2576876.582 2
  20038313.540   -23758463.885 6 -17940368.561 5
  17331273.587   -30138896.357 7 -23334936.413 8
 95  9 27  4  8 29.9890000  0  7 28 18 19 14 31 22 29
  20568387.196    -4189830.455 5  -3106959.629 5
  17216379.610   -18749706.636 7 -14439058.581 8
  18568793.728    -4033776.681 6  -2990560.891 5
  19619818.165   -18225165.391 6 -14024120.574 5
  20623511.657    -3688364.157 4  -2675506.748 2
  20048878.657   -23702945.610 6 -17897107.570 5
  17325668.774   -30168362.961 7 -23357897.413 8
 95  9 27  4  8 59.9890000  0  7 28 18 19 14 31 22 29
  20551664.415    -4277707.868 5  -3175435.520 5
  17202016.618   -18825187.002 7 -14497874.437 8
  18551785.892    -4123153.883 6  -3060205.449 5
  19632060.876   -18160830.668 6 -13973989.629 5
  20599436.540    -3814883.765 3  -2774093.451 2
  20059498.423   -23647137.642 6 -17853620.856 5
  17320129.306   -30197472.208 7 -23380579.947 8
 95  9 27  4  9 29.9890000  0  7 28 18 19 14 31 22 29
  20535014.298    -4365217.935 5  -3243625.168 4
  17187716.259   -18900340.679 7 -14556435.739 8
  18534814.579    -4212324.503 6  -3129689.052 5
  19644331.306   -18096328.250 6 -13923728.016 5
  20575366.126    -3941373.717 4  -2872657.030 2
  20070168.181   -23591065.339 6 -17809928.150 5
  17314658.220   -30226219.287 7 -23402980.278 8
 95  9 27  4  9 59.9890000  0  7 28 18 19 14 31 22 29
  20518435.298    -4452340.265 5  -3311512.696 5
  17173485.204   -18975127.157 7 -14614710.914 8
  18517890.431    -4301275.112 6  -3199001.201 6
  19656648.876   -18031634.271 6 -13873317.132 5
  20551302.235    -4067808.715 4  -2971177.795 2
  20080883.915   -23534742.599 6 -17766040.300 5
  17309265.665   -30254560.140 7 -23425064.059 8
 95  9 27  4 10 29.9890000  0  7 28 18 19 14 31 22 29
  20501928.478    -4539092.406 5  -3379111.752 5
  17159319.978   -19049559.726 7 -14672710.306 8
  18501000.243    -4390036.915 6  -3268166.230 6
  19668987.423   -17966758.227 6 -13822764.380 5
  20527247.853    -4194193.401 4  -3069659.401 2
  20091640.212   -23478229.758 6 -17722004.323 5
  17303946.657   -30282505.542 7 -23446839.699 8
 95  9 27  4 10 59.9890000  0  7 28 18 19 14 31 22 29
  20485492.345    -4625469.014 5  -3446418.205 5
  17145220.634   -19123644.994 7 -14730439.081 8
  18484140.556    -4478621.915 6  -3337193.496 6
  19681372.337   -17901702.429 6 -13772071.561 5
  20503223.196    -4320494.216 5  -3168075.582 1
  20102430.220   -23421535.678 6 -17677827.116 5
  17298704.181   -30310049.386 7 -23468302.434 8
 95  9 27  4 11 29.9890000  0  7 28 18 19 14 31 22 29
  20469126.595    -4711462.031 5  -3513425.724 5
  17131192.064   -19197370.691 7 -14787887.676 8
  18467321.009    -4567029.701 6  -3406082.643 6
  19693782.454   -17836464.111 6 -13721236.512 5
  20479204.462    -4446683.478 5  -3266404.881 1
  20113252.259   -23364646.863 6 -17633498.171 5
  17293544.134   -30337168.622 7 -23489434.295 8
 95  9 27  4 11 59.9890000  0  7 28 18 19 14 31 22 29
  20452832.579    -4797069.769 5  -3580133.050 4
  17117233.345   -19270736.276 7 -14845055.657 8
  18450527.978    -4655262.672 6  -3474835.582 6
  19706227.025   -17771042.379 5 -13670258.532 5
  20455213.189    -4572747.946 5  -3364636.916 2
  20124121.681   -23307543.251 6 -17589001.862 5
  17288464.720   -30363866.548 7 -23510237.873 8
 95  9 27  4 12 29.9890000  0  7 28 18 19 14 31 22 29
  20436618.954    -4882289.764 5  -3646538.228 5
  17103340.048   -19343741.045 7 -14901942.489 8
  18433772.860    -4743317.643 6  -3543449.817 6
  19718715.704   -17705452.765 5 -13619149.768 5
  20431252.032    -4698693.079 5  -3462775.936 1
  20135034.595   -23250199.976 6 -17544318.793 5
  17283462.704   -30390155.572 7 -23530722.831 8
 95  9 27  4 12 59.9890000  0  7 28 18 19 14 31 22 29
  20420476.423    -4967114.070 5  -3712635.073 5
  17089518.524   -19416365.361 7 -14958532.856 8
  18417054.079    -4831183.741 6  -3611916.882 6
  19731234.064   -17639689.787 5 -13567905.895 5
  20407308.228    -4824512.377 5  -3560816.935 1
  20145994.634   -23192594.243 6 -17499431.223 5
  17278535.571   -30416039.089 7 -23550891.810 8
 95  9 27  4 13 29.9890000  0  7 28 18 19 14 31 22 29
  20404410.126    -5051545.477 5  -3778425.777 5
  17075770.931   -19488598.251 7 -15014818.227 8
  18400366.462    -4918859.750 6  -3680235.825 6
  19743776.985   -17573763.649 5 -13516534.875 5
  20383385.946    -4950224.903 5  -3658774.768 3
  20157008.157   -23134731.202 6 -17454343.143 5
  17273682.735   -30441539.730 7 -23570762.447 8
 95  9 27  4 13 59.9890000  0  7 28 18 19 14 31 22 29
  20388413.181    -5135586.857 5  -3843912.554 5
  17062103.415   -19560438.656 7 -15070797.750 8
  18383719.618    -5006351.975 6  -3748411.563 6
  19756350.431   -17507680.708 5 -13465041.670 5
  20359480.446    -5075845.236 5  -3756660.721 1
  20168063.321   -23076623.711 6 -17409064.587 5
  17268899.868   -30466683.275 7 -23590354.831 8
 95  9 27  4 14 29.9890000  0  7 28 18 19 14 31 22 29
  20372494.540    -5219227.148 5  -3909086.824 5
  17048508.681   -19631882.707 7 -15126468.432 7
  18367104.696    -5093654.923 6  -3816439.813 6
  19768956.892   -17441427.804 5 -13413416.057 5
  20335600.142    -5201355.435 5  -3854460.847 3
  20179164.306   -23018289.617 6 -17363609.459 5
  17264180.134   -30491467.112 7 -23609666.914 8
 95  9 27  4 14 59.9890000  0  7 28 18 19 14 31 22 29
  20356654.798    -5302465.287 5  -3973947.714 5
  17034985.603   -19702931.814 7 -15181831.371 8
  18350532.321    -5180771.740 6  -3884323.035 6
  19781601.525   -17375001.811 5 -13361655.567 5
  20311733.946    -5326738.176 5  -3952161.682 1
  20190304.142   -22959738.514 6 -17317985.233 6
  17259532.931   -30515890.392 7 -23628698.050 9
 95  9 27  4 15 29.9890000  0  7 28 18 19 14 31 22 29
  20340897.907    -5385298.690 5  -4038493.222 5
  17021539.751   -19773601.937 7 -15236898.996 8
  18333990.618    -5267689.312 6  -3952050.996 6
  19794270.329   -17308412.394 5 -13309767.716 4
  20287902.282    -5451991.716 5  -4049761.839 2
  20201486.618   -22900972.964 6 -17272193.900 5
  17254958.353   -30539942.618 7 -23647440.048 8
 95  9 27  4 15 59.9880000  0  7 28 18 19 14 31 22 29
  20325208.262    -5467726.940 5  -4102723.021 5
  17008160.192   -19843909.096 7 -15291683.790 8
  18317486.363    -5354405.457 6  -4019622.000 6
  19806975.785   -17241657.062 6 -13257750.610 5
  20264099.770    -5577108.023 5  -4147255.041 1
  20212708.363   -22842017.270 6 -17226254.412 5
  17250456.106   -30563604.292 7 -23665877.722 9
 95  9 27  4 16 29.9880000  0  7 28 18 19 14 31 22 29
  20309602.715    -5549758.829 5  -4166643.953 5
  16994845.246   -19913864.945 7 -15346194.838 8
  18301025.379    -5440917.071 6  -4087033.643 6
  19819709.496   -17174736.971 6 -13205605.107 4
  20240312.652    -5702091.921 4  -4244645.081 2
  20223957.090   -22782892.453 6 -17180183.124 5
  17246032.051   -30586860.324 7 -23683999.314 9
 95  9 27  4 16 59.9880000  0  7 28 18 19 14 31 22 29
  20294073.684    -5631377.965 6  -4230243.255 5
  16981600.863   -19983457.447 7 -15400422.746 8
  18284606.504    -5527197.991 6  -4154265.522 6
  19832477.121   -17107646.422 6 -13153326.779 5
  20216554.754    -5826926.701 5  -4341918.897 1
  20235243.879   -22723584.801 5 -17133969.376 5
  17241682.746   -30609697.175 7 -23701794.264 9
 95  9 27  4 17 29.9880000  0  7 28 18 19 14 31 22 29
  20278617.254    -5712587.584 5  -4293523.462 5
  16968430.777   -20052693.345 7 -15454372.799 8
  18268231.106    -5613253.607 6  -4221321.826 7
  19845271.457   -17040406.072 6 -13100931.717 5
  20192824.840    -5951625.735 5  -4439086.963 1
  20246560.473   -22664113.616 5 -17087628.194 5
  17237417.895   -30632118.260 7 -23719265.254 9
 95  9 27  4 17 59.9880000  0  8 28 18 19 27 14 31 22 29
  20263239.910    -5793395.401 5  -4356490.597 5
  16955321.902   -20121569.461 7 -15508042.495 8
  18251890.121    -5699116.443 6  -4288227.920 7
  20457131.762          -0.70612
  19858090.942   -16973032.379 6 -13048432.748 5
  20169117.246    -6076201.863 5  -4536159.255 1
  20257904.387   -22604490.596 5 -17041168.707 5
  17233228.035   -30654138.649 7 -23736423.995 9
 95  9 27  4 18 29.9880000  0  8 28 18 19 27 14 31 22 29
  20247939.957    -5873784.227 5  -4419131.227 5
  16942287.574   -20190068.460 7 -15561418.333 8
  18235592.871    -5784770.789 6  -4354971.557 7
  20435523.402     -113597.721 2        -0.36511
  19870940.543   -16905521.054 6 -12995826.531 5
  20145439.723    -6200635.133 5  -4633120.208 1
  20269290.191   -22544676.488 5 -16994560.318 5
  17229110.348   -30675767.039 7 -23753277.289 9
 95  9 27  4 18 59.9880000  0  8 28 18 19 27 14 31 22 29
  20232724.301    -5953754.054 5  -4481445.398 5
  16929323.582   -20258189.333 7 -15614499.533 8
  18219330.754    -5870222.506 6  -4421557.295 7
  20413925.426     -227078.040 3    -88426.560 1
  19883811.567   -16837888.738 6 -12943126.043 5
  20121789.340    -6324928.938 5  -4729972.539 2
  20280711.465   -22484650.986 5 -16947787.202 5
  17225066.902   -30697022.664 7 -23769840.117 9
 95  9 27  4 19 29.9880000  0  8 28 18 19 27 14 31 22 29
  20217580.270    -6033305.186 5  -4543433.294 5
  16916435.871   -20325922.726 7 -15667278.797 8
  18203105.238    -5955485.118 6  -4487995.676 7
  20392347.113     -340448.359 3   -176767.087 1
  19896700.293   -16770136.168 5 -12890331.834 5
  20098160.184    -6449094.746 5  -4826725.094 3
  20292178.324   -22424408.100 5 -16900844.703 5
  17221095.418   -30717894.517 7 -23786103.906 8
 95  9 27  4 19 59.9880000  0  8 28 18 19 27 14 31 22 29
  20202524.246    -6112440.658 5  -4605097.299 5
  16903620.941   -20393265.189 7 -15719753.440 8
  18186915.027    -6040559.329 6  -4554287.264 7
  20370792.316     -453727.324 3   -265036.358 1
  19909621.160   -16702244.583 5 -12837429.286 5
  20074555.746    -6573133.394 5  -4923378.594 2
  20303682.465   -22363941.494 5 -16853727.864 5
  17217191.981   -30738392.365 7 -23802076.256 8
 95  9 27  4 20 29.9880000  0  8 28 18 19 27 14 31 22 29
  20187550.223    -6191153.098 5  -4666431.657 5
  16890880.621   -20460206.421 7 -15771915.445 8
  18170768.840    -6125426.049 6  -4620417.157 6
  20349258.645     -566906.271 3   -353227.721 1
  19922571.348   -16634203.597 5 -12784410.324 5
  20050983.520    -6697024.225 4  -5019916.881 4
  20315230.277   -22303256.374 5 -16806440.774 5
  17213365.176   -30758512.065 7 -23817753.958 8
 95  9 27  4 20 59.9880000  0  8 28 18 19 27 14 31 22 29
  20172646.996    -6269438.998 5  -4727433.647 5
  16878223.520   -20526741.454 7 -15823760.926 8
  18154652.426    -6210098.890 6  -4686395.981 7
  20327739.488     -679982.519 3   -441339.090 1
  19935542.621   -16566014.056 5 -12731275.609 5
  20027429.981    -6820774.949 4  -5116346.004 4
  20326815.934   -22242378.796 5 -16759003.713 5
  17209612.176   -30778231.178 7 -23833119.507 8
 95  9 27  4 21 29.9880000  0  8 28 18 19 27 14 31 22 29
  20157838.613    -6347296.189 5  -4788101.550 5
  16865636.723   -20592874.211 7 -15875292.950 8
  18138575.496    -6294583.354 6  -4752228.010 7
  20306239.356     -792948.923 3   -529364.812 1
  19948551.551   -16497670.104 5 -12678020.623 5
  20003907.395    -6944378.664 4  -5212660.560 2
  20338432.020   -22181332.212 5 -16711434.968 5
  17205936.785   -30797551.133 7 -23848174.021 8
 95  9 27  4 21 59.9880000  0  8 28 18 19 27 14 31 22 29
  20143097.645    -6424732.668 5  -4848441.655 4
  16853128.504   -20658618.112 7 -15926521.959 8
  18122535.199    -6378882.424 6  -4817915.589 7
  20284761.543     -905820.584 3
  19961579.895   -16429200.386 5 -12624667.594 5
  19980413.559    -7067833.887 5  -5308859.434 4
  20350069.973   -22120160.077 5 -16663768.369 5
  17202332.301   -30816493.911 7 -23862934.638 8
 95  9 27  4 22 29.9880000  0  8 28 18 19 27 14 31 22 29
  20128448.090    -6501728.268 5  -4908438.233 4
  16840690.777   -20723961.879 7 -15977439.174 8
  18106534.207    -6462972.980 6  -4883440.699 7
  20263306.707    -1018590.898 2
  19974629.020   -16360614.538 5 -12571224.099 4
  19956951.246    -7191114.896 4  -5404922.528 4
  20361739.176   -22058858.900 5 -16616001.218 5
  17198804.309   -30835035.745 7 -23877382.826 8
 95  9 27  4 22 59.9880000  0  8 28 18 19 27 14 31 22 29
  20113877.566    -6578296.037 5  -4968101.400 5
  16828329.488   -20788923.162 7 -16028058.353 8
  18090568.277    -6546872.368 6  -4948816.830 7
  20241857.840    -1131288.208 1        -0.26611
  19987700.559   -16291937.432 5 -12517709.474 4
  19933531.496    -7314237.814 5  -5500862.461 4
  20373424.871   -21997438.892 5 -16568141.493 5
  17195348.887   -30853187.318 7 -23891526.905 8
 95  9 27  4 23 29.9880000  0  7 28 18 19 14 31 22 29
  20099390.777    -6654426.636 6  -5027423.930 5
  16816043.410   -20853484.269 7 -16078365.696 8
  18074638.629    -6630570.080 6  -5014035.808 7
  20000786.621   -16223164.739 5 -12464120.390 3
  19910138.520    -7437181.183 5  -5596662.461 3
  20385139.785   -21935877.740 5 -16520171.769 4
  17191968.176   -30870949.589 7 -23905367.646 8
 95  9 27  4 23 59.9880000  0  7 28 18 19 14 31 22 29
  20084987.215    -6730119.108 6  -5086405.069 5
  16803833.840   -20917642.124 7 -16128358.838 8
  18058752.270    -6714070.802 6  -5079101.280 7
  20013889.965   -16154305.127 5 -12410463.564 4
  19886769.395    -7559949.130 5  -5692325.777 3
  20396889.168   -21874147.944 5 -16472070.651 5
  17188665.184   -30888314.228 7 -23918898.539 8
 95  9 27  4 24 29.9880000  0  7 28 18 19 14 31 22 29
  20070666.004    -6805372.354 6  -5145043.937 5
  16791701.840   -20981403.307 7 -16178042.875 8
  18042897.098    -6797384.156 7  -5144020.763 7
  20027011.785   -16085352.341 5 -12356734.129 4
  19863441.246    -7682536.571 5  -5787848.473 4
  20408672.590   -21812220.527 5 -16423815.545 5
  17185435.684   -30905275.649 7 -23932115.234 8
 95  9 27  4 24 59.9880000  0  8 28 18 19 27 14 31 22 29
  20056429.731    -6880185.238 6  -5203339.680 5
  16779644.840   -21044769.887 7 -16227419.439 8
  18027074.277    -6880525.876 6  -5208806.506 7
  20156206.504          -0.00212
  20040149.723   -16016307.768 5 -12302933.148 5
  19840143.777    -7804949.659 4  -5883235.288 4
  20420494.637   -21750097.860 5 -16375408.292 5
  17182284.934   -30921835.463 7 -23945018.993 8
 95  9 27  4 25 29.9880000  0  8 28 18 19 27 14 31 22 29
  20042278.981    -6954555.026 6  -5261290.128 5
  16767660.434   -21107740.720 7 -16276487.620 8
  18011283.660    -6963499.519 6  -5273461.284 7
  20134833.738     -112340.494 3
  20053304.152   -15947169.506 5 -12249059.185 3
  19816888.387    -7927194.080 5  -5978490.667 4
  20432346.840   -21687784.790 5 -16326852.648 4
  17179210.051   -30938001.804 7 -23957616.146 8
 95  9 27  4 25 59.9880000  0  8 28 18 19 27 14 31 22 29
  20028208.832    -7028478.240 5  -5318892.645 5
  16755755.418   -21170316.393 7 -16325247.877 8
  17995528.621    -7046295.518 6  -5337977.624 7
  20113470.824     -224593.494 2
  20066477.332   -15877935.220 5 -12195110.412 2
  19793656.965    -8049262.533 5  -6073608.955 3
  20444239.059   -21625294.064 5 -16278158.583 5
  17176209.988   -30953764.322 7 -23969898.637 8
 95  9 27  4 26 29.9880000  0  7 28 18 19 14 31 22 29
  20014230.285    -7101961.340 6  -5376152.174 5
  16743919.965   -21232492.390 7 -16373696.713 7
  17979809.020    -7128921.877 6  -5402361.782 7
  20079677.145   -15808612.116 5 -12141092.437 4
  19770460.582    -8171150.028 5  -6168586.204 4
  20456155.887   -21562672.898 5 -16229362.868 5
  17173286.441   -30969130.448 7 -23981872.240 8
 95  9 27  4 26 59.9880000  0  7 28 18 19 14 31 22 29
  20000330.473    -7175004.431 5  -5433068.874 5
  16732168.840   -21294257.988 7 -16421825.748 7
  17964115.426    -7211372.832 6  -5466609.248 7
  20092880.442   -15739199.805 5 -12087004.957 2
  19747302.652    -8292864.612 5  -6263428.728 4
  20468097.106   -21499935.119 5 -16180476.293 5
  17170435.332   -30984109.775 7 -23993544.450 8
 95  9 27  4 27 29.9880000  0  7 28 18 19 14 31 22 29
  19986509.770    -7247597.328 5  -5489634.737 5
  16720495.340   -21355593.565 7 -16469619.706 7
  17948463.809    -7293628.984 6  -5530704.934 7
  20106111.426   -15669681.462 5 -12032834.835 4
  19724176.684    -8414392.409 5  -6358125.696 4
  20480054.199   -21437068.100 5 -16131489.014 5
  17167661.621   -30998681.709 7 -24004899.212 9
 95  9 27  4 27 59.9880000  0  7 28 18 19 14 31 22 29
  19972783.559    -7319731.553 6  -5545843.242 5
  16708904.051   -21416500.947 7 -16517080.004 7
  17932850.356    -7375675.858 6  -5594637.532 7
  20119355.902   -15600061.080 5 -11978585.205 5
  19701089.652    -8535717.569 5  -6452664.777 5
  20492041.981   -21374080.634 5 -16082407.871 5
  17164972.402   -31012823.201 7 -24015918.560 8
 95  9 27  4 28 29.9880000  0  7 28 18 19 14 31 22 29
  19959143.020    -7391420.828 5  -5601704.973 5
  16697394.160   -21477003.932 7 -16564225.186 7
  17917274.699    -7457528.377 6  -5658418.704 7
  20132625.113   -15530365.530 5 -11924276.973 4
  19678037.481    -8656867.517 5  -6547067.320 5
  20504049.309   -21310985.713 5 -16033242.994 5
  17162359.715   -31026550.973 7 -24026615.522 9
 95  9 27  4 28 59.9880000  0  7 28 18 19 14 31 22 29
  19945587.246    -7462648.988 5  -5657207.435 5
  16685956.004   -21537104.952 7 -16611057.150 7
  17901739.285    -7539162.919 6  -5722030.029 7
  20145898.215   -15460585.169 5 -11869902.672 4
  19655015.738    -8777835.787 5  -6641328.294 4
  20516083.340   -21247753.119 5 -15983970.853 5
  17159830.191   -31039848.152 7 -24036976.965 9
 95  9 27  4 29 29.9880000  0  7 28 18 19 14 31 22 29
  19932120.402    -7533417.600 5  -5712351.792 4
  16674595.598   -21596808.422 7 -16657579.336 7
  17886246.270    -7620588.820 6  -5785478.766 7
  20159191.395   -15390738.020 5 -11815476.356 3
  19632033.965    -8898606.384 5  -6735435.228 4
  20528141.910   -21184388.916 5 -15934596.165 5
  17157380.793   -31052711.062 7 -24047000.011 8
 95  9 27  4 29 59.9880000  0  7 28 18 19 14 31 22 29
  19918742.691    -7603720.458 5  -5767133.223 5
  16663309.754   -21656116.865 7 -16703793.710 7
  17870790.410    -7701811.945 6  -5848769.500 7
  20172499.418   -15320830.366 5 -11761002.876 4
  19609091.629    -9019161.204 5  -6829374.041 5
  20540227.832   -21120891.027 5 -15885117.283 5
  17155015.449   -31065148.589 7 -24056691.593 8
 95  9 27  4 30 29.9880000  0  7 28 18 19 14 31 22 29
  19905450.981    -7673570.434 5  -5821561.767 5
  16652097.012   -21715035.853 7 -16749704.618 7
  17855368.527    -7782848.997 6  -5911915.242 7
  20185811.871   -15250866.376 5 -11706485.486 4
  19586191.332    -9139504.142 5  -6923147.725 4
  20552336.410   -21057253.444 5 -15835529.566 5
  17152722.848   -31077189.708 7 -24066074.292 8
 95  9 27  4 30 59.9880000  0  7 28 18 19 14 31 22 29
  19892247.598    -7742957.882 5  -5875629.883 5
  16640962.449   -21773552.258 7 -16795301.820 7
  17839981.410    -7863703.983 6  -5974919.108 7
  20199137.543   -15180832.718 5 -11651913.811 4
  19563331.895    -9259610.559 5  -7016737.132 5
  20564469.934   -20993468.553 5 -15785827.069 5
  17150506.590   -31088833.130 7 -24075147.097 8
 95  9 27  4 31 29.9880000  0  7 28 18 19 14 31 22 29
  19879130.317    -7811881.745 5  -5929336.787 5
  16629903.410   -21831658.509 7 -16840579.420 7
  17824628.059    -7944393.842 7  -6037794.301 7
  20212476.746   -15110728.197 5 -11597286.907 5
  19540529.754    -9379466.010 5  -7110130.986 5
  20576639.317   -20929541.955 5 -15736014.127 4
  17148366.457   -31100085.086 7 -24083914.865 8
 95  9 27  4 31 59.9880000  0  7 28 18 19 14 31 22 29
  19866104.856    -7880332.380 5  -5982674.935 5
  16618926.996   -21889347.477 7 -16885531.854 7
  17809305.145    -8024913.241 7  -6100536.679 7
  20225833.379   -15040534.406 5 -11542590.440 4
  19517765.098    -9499078.185 5  -7203335.250 5
  20588830.145   -20865477.431 5 -15686093.715 5
  17146299.512   -31110946.122 7 -24092378.020 8
 95  9 27  4 32 29.9880000  0  7 28 18 19 14 31 22 29
  19853165.238    -7948319.297 5  -6035651.742 5
  16608027.410   -21946620.681 7 -16930160.334 7
  17794015.613    -8105277.887 7  -6163158.488 7
  20239209.973   -14970259.386 5 -11487830.732 4
  19495051.363    -9618465.772 5  -7296364.515 5
  20601041.621   -20801299.456 5 -15636084.908 4
  17144306.043   -31121424.392 7 -24100542.914 8
 95  9 27  4 32 59.9880000  0  7 28 18 19 14 31 22 29
  19840320.215    -8015831.110 5  -6088258.335 5
  16597211.121   -22003469.385 7 -16974458.016 7
  17778750.574    -8185482.637 7  -6225655.687 7
  20252595.809   -14899903.597 5 -11433008.039 5
  19472375.449    -9737621.528 5  -7389213.148 5
  20613276.402   -20737014.502 5 -15585992.725 4
  17142387.691   -31131507.346 7 -24108399.773 8
 95  9 27  4 33 29.9880000  0  7 28 18 19 14 31 22 29
  19827563.692    -8082877.465 5  -6140502.234 5
  16586474.934   -22059885.992 7 -17018419.009 7
  17763518.207    -8265527.708 6  -6288028.462 7
  20265994.512   -14829485.748 5 -11378137.004 4
  19449741.059    -9856558.100 5  -7481890.991 5
  20625522.473   -20672646.438 5 -15535835.780 4
  17140541.387   -31141207.744 7 -24115958.532 8
 95  9 27  4 33 59.9880000  0  7 28 18 19 14 31 22 29
  19814893.598    -8149446.284 6  -6192374.008 5
  16575823.465   -22115848.959 7 -17062026.517 7
  17748320.051    -8345387.796 6  -6350257.083 7
  20279407.809   -14759002.078 5 -11323214.663 3
  19427146.707    -9975277.970 5  -7574399.957 5
  20637788.527   -20608191.137 5 -15485610.866 4
  17138769.645   -31150514.583 7 -24123210.618 8
 95  9 27  4 34 29.9880000  0  7 28 18 19 14 31 22 29
  19802316.746    -8215544.841 6  -6243879.393 6
  16565257.059   -22171369.568 7 -17105289.326 7
  17733160.129    -8425060.505 6  -6412339.702 7
  20292823.754   -14688481.102 4 -11268263.255 3
  19404599.277   -10093770.494 5  -7666731.775 5
  20650073.410   -20543648.362 5 -15435317.776 3
  17137073.387   -31159425.885 7 -24130154.489 8
 95  9 27  4 34 59.9880000  0  7 28 18 19 14 31 22 29
  19789834.731    -8281160.434 6  -6295008.406 6
  16554777.410   -22226439.700 7 -17148201.118 7
  17718037.449    -8504525.318 6  -6474260.326 7
  20306252.551   -14617928.532 4 -11213287.242 3
  19382102.637   -10212013.375 5  -7758869.086 5
  20662375.910   -20478995.308 5 -15384938.770 3
  17135453.324   -31167939.057 7 -24136788.143 8
 95  9 27  4 35 29.9870000  0  7 28 18 19 14 31 22 29
  19777438.984    -8346300.907 6  -6345767.200 5
  16544384.444   -22281067.799 7 -17190768.467 7
  17702955.163    -8583792.277 6  -6536026.774 7
  20319679.273   -14547375.125 5 -11158310.601 1
  19359647.241   -10330006.952 5  -7850812.122 5
  20674693.171   -20414250.604 5 -15334488.332 2
  17133910.312   -31176054.558 7 -24143111.921 8
 95  9 27  4 35 59.9870000  0  7 28 18 19 14 31 22 29
  19765134.585    -8410958.118 6  -6396149.448 6
  16534068.976   -22335271.357 7 -17233005.008 7
  17687908.991    -8662861.028 6  -6597638.778 7
  20333103.726   -14476814.475 4 -11103328.263 4
  19337244.921   -10447739.143 5  -7942551.477 5
  20687039.093   -20349389.671 4 -15283947.346 2
  17132445.921   -31183751.704 7 -24149109.706 8
 95  9 27  4 36 29.9870000  0  7 28 18 19 14 31 22 29
  19752914.202    -8475136.988 6  -6446158.947 6
  16523830.929   -22389068.077 7 -17274924.521 7
  17672898.273    -8741746.498 6  -6659107.972 7
  20346529.366   -14406264.774 4 -11048354.498 4
  19314892.773   -10565191.074 5  -8034072.459 5
  20699405.171   -20284413.120 4 -15233316.251 2
  17131060.593   -31191029.291 7 -24154780.563 8
 95  9 27  4 36 59.9870000  0  8 28 18 19 27 14 31 22 29
  19740798.523    -8538837.440 6  -6495795.636 5
  16513672.890   -22442451.561 7 -17316522.042 7
  17657918.530    -8820456.037 6  -6720440.075 7
  19647991.765          -0.91313
  20359960.491   -14335713.053 5 -10993379.164 4
  19292595.843   -10682382.358 5  -8125390.328 5
  20711788.671   -20219331.415 4 -15182603.235 2
  17129754.851   -31197891.101 7 -24160127.435 8
 95  9 27  4 37 29.9870000  0  8 28 18 19 27 14 31 22 29
  19728769.890    -8602055.201 6  -6545056.215 5
  16503593.874   -22495415.986 7 -17357793.032 7
  17642972.905    -8898987.407 7  -6781633.343 7
  19627032.116     -110127.643 3
  20373384.351   -14265143.218 4 -10938389.676 4
  19270335.640   -10799321.725 5  -8216511.896 5
  20724190.116   -20154155.230 4 -15131816.571 3
  17128528.921   -31204324.991 7 -24165140.852 9
 95  9 27  4 37 59.9870000  0  8 28 18 19 27 14 31 22 29
  19716824.882    -8664789.033 5  -6593939.718 5
  16493595.562   -22547952.695 7 -17398730.722 7
  17628067.687    -8977343.683 7  -6842690.181 7
  19606086.085     -220189.755 3        -0.07313
  20386816.460   -14194533.435 3 -10883369.066 4
  19248132.046   -10916019.322 5  -8307445.090 5
  20736605.241   -20088887.522 3 -15080958.609 2
  17127380.765   -31210344.179 7 -24169831.136 9
 95  9 27  4 38 29.9870000  0  8 28 18 19 27 14 31 22 29
  19704989.194    -8727029.885 6  -6642439.065 5
  16483683.733   -22600044.085 7 -17439321.418 7
  17613189.132    -9055519.272 7  -6903606.211 7
  19585158.226     -330178.075 3    -85705.258 2
  20400264.327   -14123868.009 4 -10828305.079 2
  19225972.319   -11032471.275 5  -8398186.858 5
  20749046.726   -20023542.569 4 -15030040.440 3
  17126314.952   -31215957.165 7 -24174204.908 8
 95  9 27  4 38 59.9870000  0  8 28 18 19 27 14 31 22 29
  19693229.741    -8788785.613 5  -6690560.412 5
  16473854.898   -22651696.167 7 -17479569.790 7
  17598347.827    -9133519.039 7  -6964385.244 7
  19564240.429     -440104.705 4   -171362.361 2
  20413725.890   -14053150.270 5 -10773200.367 4
  19203856.007   -11148690.998 5  -8488747.680 5
  20761488.577   -19958151.128 4 -14979086.061 1
  17125320.023   -31221187.611 7 -24178280.578 8
 95  9 27  4 39 29.9870000  0  8 28 18 19 27 14 31 22 29
  19681579.734    -8850047.795 6  -6738297.181 5
  16464113.046   -22702895.774 7 -17519465.587 7
  17583537.273    -9211334.966 6  -7025021.010 7
  19543340.538     -549945.822 5   -256952.813 3
  20427192.327   -13982383.526 4 -10718057.465 3
  19181792.093   -11264640.156 5  -8579097.658 5
  20773938.687   -19892709.786 4 -14928092.813 2
  17124401.694   -31226016.333 7 -24182043.231 8
 95  9 27  4 39 59.9870000  0  8 28 18 19 27 14 31 22 29
  19670010.804    -8910815.930 5  -6785648.956 5
  16454454.562   -22753646.209 7 -17559011.388 7
  17568766.257    -9288961.719 7  -7085509.373 7
  19522452.921     -659692.709 5   -342469.848 2
  20440662.054   -13911583.064 3 -10662888.282 1
  19159785.101   -11380300.228 5  -8669222.379 5
  20786404.663   -19827212.297 4 -14877055.779 1
  17123558.640   -31230447.179 7 -24185495.846 8
 95  9 27  4 40 29.9870000  0  8 28 18 19 27 14 31 22 29
  19658543.444    -8971089.807 5  -6832615.608 5
  16444880.749   -22803956.989 7 -17598214.589 7
  17554029.476    -9366387.234 6  -7145840.932 7
  19501590.069     -769338.015 5   -427907.731 2
  20454138.687   -13840771.136 3 -10607710.193 2
  19137829.905   -11495657.864 5  -8759111.445 5
  20798882.069   -19761644.272 4 -14825963.808 2
  17122795.984   -31234470.824 7 -24188631.170 8
 95  9 27  4 40 59.9870000  0  8 28 18 19 27 14 31 22 29
  19647163.577    -9030868.921 5  -6879196.722 5
  16435389.515   -22853828.002 7 -17637075.130 7
  17539340.640    -9443606.228 7  -7206011.569 7
  19480749.663     -878872.966 5   -513259.610 3
  20467612.874   -13769961.180 4 -10552533.644 1
  19115933.757   -11610716.205 5  -8848767.273 5
  20811379.577   -19695990.588 4 -14774805.080 1
  17122108.835   -31238069.864 7 -24191435.626 8
 95  9 27  4 41 29.9870000  0  8 28 18 19 27 14 31 22 29
  19635889.140    -9090153.324 5  -6925392.360 5
  16425981.187   -22903267.757 7 -17675599.608 7
  17524683.749    -9520622.530 7  -7266024.258 7
  19459924.312     -988308.620 5   -598534.123 3
  20481087.062   -13699167.608 3 -10497369.796 2
  19094095.249   -11725479.958 5  -8938193.567 5
  20823889.116   -19630251.953 4 -14723580.139 1
  17121505.898   -31241241.542 7 -24193907.072 8
 95  9 27  4 41 59.9870000  0  8 28 18 19 27 14 31 22 29
  19624698.694    -9148934.900 5  -6971196.157 5
  16416653.101   -22952285.392 7 -17713795.170 7
  17510068.108    -9597440.824 7  -7325882.671 7
  19439113.343    -1097654.544 5   -683738.731 4
  20494554.296   -13628384.827 4 -10442214.404 2
  19072312.718   -11839963.507 5  -9027401.515 5
  20836416.257   -19564416.668 4 -14672279.947 1
  17120981.507   -31244005.437 7 -24196060.771 8
 95  9 27  4 42 29.9870000  0  8 28 18 19 27 14 31 22 29
  19613606.757    -9207223.662 6  -7016615.962 5
  16407409.405   -23000880.739 7 -17751661.673 7
  17495475.632    -9674090.947 7  -7385610.031 7
  19418324.515    -1206933.567 5   -768891.197 3
  20508023.038   -13557622.128 4 -10387074.646 3
  19050576.234   -11954181.314 5  -9116402.403 5
  20848958.015   -19498509.301 4 -14620923.570 1
  17120530.882   -31246372.346 7 -24197905.114 8
 95  9 27  4 42 59.9870000  0  8 28 18 19 27 14 31 22 29
  19602612.452    -9265008.315 6  -7061642.936 5
  16398245.593   -23049029.986 7 -17789180.562 7
  17480922.257    -9750578.432 7  -7445210.648 7
  19397540.327    -1316135.197 5   -853983.356 2
  20521489.429   -13486863.251 4 -10331937.892 2
  19028892.671   -12068127.864 5  -9205191.929 5
  20861510.515   -19432541.291 3 -14569519.924 1
  17120155.491   -31248341.543 7 -24199439.563 8
 95  9 27  4 43 29.9870000  0  8 28 18 19 27 14 31 22 29
  19591715.476    -9322285.700 6  -7106274.637 5
  16389167.312   -23096724.320 7 -17826344.981 7
  17466393.187    -9826913.400 7  -7504692.426 7
  19376773.007    -1425255.507 5   -939012.167 3
  20534950.538   -13416103.156 4 -10276800.109 2
  19007263.163   -12181792.263 5  -9293761.573 5
  20874075.726   -19366513.571 3 -14518069.739 1
  17119851.351   -31249929.518 7 -24200676.948 8
 95  9 27  4 43 59.9870000  0  8 28 18 19 27 14 31 22 29
  19580913.702    -9379054.518 6  -7150510.074 5
  16380181.210   -23143950.234 7 -17863144.391 7
  17451901.163    -9903094.306 7  -7564054.153 7
  19356028.929    -1534272.871 5  -1023960.738 2
  20548419.624   -13345341.143 4 -10221660.882 2
  18985686.194   -12295170.440 5  -9382108.178 5
  20886652.421   -19300415.886 3 -14466565.058 1
  17119626.249   -31251125.530 7 -24201608.908 8
 95  9 27  4 44 29.9870000  0  8 28 18 19 27 14 31 22 29
  19570200.476    -9435317.823 6  -7194351.599 5
  16371286.327   -23190700.176 7 -17899572.922 7
  17437434.929    -9979106.189 7  -7623284.181 7
  19335302.929    -1643189.911 5  -1108831.144 3
  20561888.234   -13274587.102 4 -10166527.889 2
  18964167.335   -12408252.028 5  -9470223.692 5
  20899235.819   -19234256.384 3 -14415012.196 1
  17119479.085   -31251910.650 7 -24202220.694 8
 95  9 27  4 44 59.9870000  0  8 28 18 19 27 14 31 22 29
  19559589.226    -9491071.090 6  -7237795.692 5
  16362480.405   -23236984.919 7 -17935638.962 7
  17423003.952   -10054934.247 7  -7682370.981 7
  19314596.624    -1752006.778 5  -1193623.503 3
  20575344.171   -13203838.909 4 -10111399.425 1
  18942707.679   -12521030.691 5  -9558103.159 5
  20911836.999   -19168026.534 3 -14363404.487 1
  17119405.296   -31252277.394 7
 95  9 27  4 45 29.9870000  0  8 28 18 19 27 14 31 22 29
  19549080.444    -9546314.248 5  -7280842.308 5
  16353757.632   -23282818.166 7 -17971353.184 7
  17408611.788   -10130565.892 7  -7741304.707 7
  19293905.984    -1860738.961 5  -1278349.871 2
  20588800.773   -13133099.659 3 -10056277.967 1
  18921302.327   -12633495.490 5  -9645738.061 5
  20924456.523   -19101721.352 3 -14311738.101 1
  17119417.296   -31252216.372 7
 95  9 27  4 45 59.9870000  0  8 28 18 19 27 14 31 22 29
  19538665.163    -9601051.270 5  -7323494.522 5
  16345117.609   -23328215.421 7 -18006727.665 7
  17394258.741   -10205996.494 6  -7800081.795 7
  19273228.757    -1969401.449 5  -1363021.944 2
  20602265.452   -13062374.024 3 -10001167.109 1
  18899967.312   -12745651.076 5  -9733132.006 5
  20937089.351   -19035360.742 3 -14260028.511 1
  17119513.694   -31251722.750 7
 95  9 27  4 46 29.9870000  0  8 28 18 19 27 14 31 22 29
  19528347.015    -9655272.097 5  -7365744.520 5
  16336563.835   -23373174.827 7 -18041760.973 7
  17379945.780   -10281212.427 6  -7858691.610 7
  19252563.929    -2077989.748 5  -1447636.175 3
  20615724.663   -12991653.172 3  -9946059.937 2
  18878685.319   -12857479.394 5  -9820270.955 5
  20949726.202   -18968958.378 3 -14208286.410 1
  17119684.984   -31250803.218 7 -24201357.780 8
 95  9 27  4 46 59.9870000  0  8 28 18 19 27 14 31 22 29
  19518122.991    -9708991.413 5  -7407603.704 5
  16328087.288   -23417719.567 7 -18076471.164 7
  17365666.866   -10356243.241 6  -7917157.177 7
  19231913.718    -2186505.135 5  -1532193.590 3
  20629181.054   -12920952.794 3  -9890968.735 2
  18857462.991   -12968998.901 6  -9907169.253 5
  20962367.702   -18902540.916 3 -14156532.512 1
  17119936.788   -31249479.746 7 -24200326.518 8
 95  9 27  4 47 29.9870000  0  8 28 18 19 27 14 31 22 29
  19507996.413    -9762193.859 5  -7449060.159 5
  16319694.679   -23461829.208 7 -18110842.322 7
  17351428.882   -10431080.421 7  -7975471.861 7
  19211285.562    -2294912.169 5  -1616666.603 5
  20642619.116   -12850269.768 3  -9835891.032 1
  18836301.210   -13080195.022 6  -9993815.572 5
  20975011.351   -18836094.365 3 -14104755.980 1
  17120267.890   -31247745.047 7 -24198974.808 8
 95  9 27  4 47 59.9870000  0  8 28 18 19 27 14 31 22 29
  19497971.343    -9814884.467 5  -7490117.766 5
  16311385.601   -23505494.960 7 -18144867.586 7
  17337219.460   -10505739.145 7  -8033647.493 7
  19190678.749    -2403194.837 5  -1701042.690 4
  20656075.694   -12779623.643 4  -9780842.097 2
  18815201.187   -13191074.887 5 -10080215.430 5
  20987662.093   -18769630.202 3 -14052965.766 1
  17120676.202   -31245613.380 7 -24197313.790 8
 95  9 27  4 48 29.9870000  0  8 28 18 19 27 14 31 22 29
  19488041.991    -9867059.147 5  -7530773.350 5
  16303160.163   -23548699.932 7 -18178533.809 7
  17323047.929   -10580221.728 7  -8091685.865 7
  19170090.226    -2511352.092 5  -1785321.055 4
  20669507.694   -12709025.983 4  -9725830.952 3
  18794168.507   -13301625.523 6 -10166358.778 5
  21000310.405   -18703135.255 2 -14001151.473 1
  17121157.601   -31243079.106 7 -24195339.037 8
 95  9 27  4 48 59.9870000  0  7 28 18 19 27 14 31 29
  19478217.710    -9918722.923 6  -7571030.824 5
  16295026.648   -23591443.421 7 -18211840.430 7
  17308901.984   -10654552.627 7  -8149606.027 7
  19149537.827    -2619402.685 5  -1869516.318 4
  20682930.069   -12638478.267 3  -9670858.709 1
  18773187.116   -13411854.840 5 -10252251.753 5
  17121717.343   -31240140.575 7 -24193049.281 8
 95  9 27  4 49 29.9870000  0  7 28 18 19 27 14 31 29
  19468485.351    -9969860.870 6  -7610878.570 5
  16286987.187   -23633694.362 7 -18244763.242 7
  17294786.976   -10728713.915 7  -8207394.029 8
  19128998.265    -2727351.131 5  -1953631.975 5
  20696343.171   -12567972.782 3  -9615919.373 3
  18752275.858   -13521745.330 6 -10337880.661 5
  17122350.163   -31236782.286 7 -24190432.448 8
 95  9 27  4 49 59.9870000  0  7 28 18 19 27 14 31 29
  19458850.116   -10020469.216 6  -7650313.633 5
  16279041.421   -23675447.111 7 -18277297.857 7
  17280710.905   -10802700.280 7  -8265045.733 8
  19108462.991    -2835227.298 5  -2037691.298 5
  20709756.788   -12497506.923 3  -9561010.942 1
  18731433.882   -13631285.889 6 -10423236.938 5
  17123077.671   -31232990.793 7 -24187478.042 8
 95  9 27  4 50 29.9870000  0  7 28 18 19 27 14 31 29
  19449319.780   -10070558.825 6  -7689344.484 6
  16271187.241   -23716724.371 7 -18309461.952 7
  17266661.093   -10876529.782 7  -8322575.203 8
  19087947.093    -2943056.519 5  -2121714.054 5
  20723153.984   -12427081.512 3  -9506133.980 1
  18710653.218   -13740489.288 6 -10508330.505 5
  17123877.319   -31228769.093 7 -24184188.410 8
 95  9 27  4 50 59.9870000  0  7 28 18 19 27 14 31 29
  19439889.866   -10120123.055 6  -7727965.941 6
  16263422.358   -23757527.173 7 -18341256.342 7
  17252640.796   -10950202.394 7  -8379982.432 7
  19067440.655    -3050828.847 5  -2205692.479 3
  20736553.233   -12356687.550 2  -9451281.482 2
  18689938.218   -13849351.178 6 -10593157.926 5
  17124761.616   -31224120.405 7 -24180566.064 8
 95  9 27  4 51 29.9870000  0  7 28 18 19 27 14 31 29
  19430555.327   -10169161.553 6  -7766177.746 6
  16255749.413   -23797853.705 7 -18372679.617 7
  17238655.023   -11023700.158 7  -8437253.411 7
  19046943.030    -3158529.790 5  -2289615.299 2
  20749936.093   -12286350.121 3  -9396473.100 1
  18669286.741   -13957860.515 6 -10677710.636 5
  17125730.546   -31219050.258 7 -24176615.303 8
 95  9 27  4 51 59.9870000  0  7 28 18 19 27 14 31 29
  19421323.257   -10217675.241 6  -7803980.625 5
  16248163.085   -23837712.161 7 -18403738.143 7
  17224704.905   -11097019.752 7  -8494385.559 7
  19026463.944    -3266144.104 5  -2373470.616 3
  20763312.413   -12216060.719 3  -9341702.111 1
  18648709.812   -14066007.275 6 -10761980.837 6
  17126771.960   -31213571.143 7 -24172345.865 8
 95  9 27  4 52 29.9870000  0  7 28 18 19 27 14 31 29
  19412194.257   -10265661.995 6  -7841372.883 5
  16240667.905   -23877101.364 7 -18434431.030 7
  17210786.116   -11170153.469 6  -8551372.853 7
  19006010.077    -3373644.647 5
  20776676.851   -12145814.187 3  -9286964.575 2
  18628198.780   -14173780.453 6
  17127887.890   -31207695.488 7 -24167767.437 8
 95  9 27  4 52 59.9870000  0  7 28 18 19 27 14 31 29
  19403157.280   -10313114.585 5  -7878348.924 6
  16233265.085   -23916004.240 7 -18464744.964 7
  17196912.913   -11243071.486 7  -8608192.087 7
  18985571.351    -3481023.566 5
  20790042.491   -12075620.425 3  -9232268.206 1
  18607768.054   -14281166.578 6
  17129081.890   -31201425.385 7 -24162881.656 8
 95  9 27  4 53 29.9870000  0  7 28 18 19 27 14 31 29
  19394235.890   -10360035.394 5  -7914910.600 5
  16225953.679   -23954420.394 7 -18494679.638 7
  17183078.296   -11315760.948 6  -8664833.216 7
  18965161.437    -3588287.843 5  -2624491.706 4
  20803381.765   -12005477.391 2
  18587401.194   -14388179.088 6 -11013023.775 6
  17130346.913   -31194759.340 7 -24157687.346 8
 95  9 27  4 53 59.9870000  0  6 28 18 19 27 31 29
  19385406.030   -10406426.960 6  -7951059.837 5
  16218735.085   -23992358.837 7 -18524242.067 7
  17169282.890   -11388237.781 6  -8721308.663 7
  18944769.335    -3695459.298 5  -2708001.920 5
  18567105.163   -14494833.028 6 -11096130.724 6
  17131694.546   -31187698.099 7 -24152185.088 8
 95  9 27  4 54 29.9870000  0  6 28 18 19 27 31 29
  19376682.179   -10452284.257 5  -7986792.769 5
  16211606.335   -24029814.359 7 -18553428.185 7
  17155531.773   -11460513.949 6  -8777627.746 7
  18924391.319    -3802542.352 5  -2791443.251 3
  18546874.976   -14601131.835 6 -11178960.958 5
  17133114.898   -31180233.253 7 -24146368.337 8
 95  9 27  4 54 59.9860000  0  6 28 18 19 27 31 29
  19368054.002   -10497604.442 5  -8022107.195 5
  16204571.041   -24066791.706 7 -18582241.712 7
  17141814.611   -11532600.874 6  -8833799.383 7
  18904026.291    -3909546.819 5  -2874823.339 4
  18526717.065   -14707081.844 6 -11261519.399 5
  17134613.791   -31172359.660 7 -24140233.093 8
 95  9 27  4 55 29.9860000  0  6 28 18 19 27 31 29
  19359531.119   -10542396.586 5  -8057010.145 5
  16197622.791   -24103306.658 7 -18610694.925 7
  17128126.268   -11604539.589 7  -8889855.501 7
  18883678.627    -4016483.747 5  -2958150.806 4
  18506617.557   -14812689.719 6 -11343811.238 6
  17136189.518   -31164081.839 7 -24133782.845 8
 95  9 27  4 55 59.9860000  0  6 28 18 19 27 31 29
  19351115.299   -10586652.770 5  -8091495.474 5
  16190764.690   -24139355.520 7 -18638784.961 7
  17114461.080   -11676333.740 7  -8945798.990 7
  18863343.307    -4123335.236 5  -3041411.680 4
  18486595.018   -14917921.156 6 -11425809.738 6
  17137841.135   -31155391.083 7 -24127010.845 8
 95  9 27  4 56 29.9860000  0  6 28 18 19 27 31 29
  19342791.518   -10630376.480 5  -8125565.888 5
  16183991.432   -24174950.427 7 -18666521.257 7
  17100829.877   -11747969.008 7  -9001618.675 7
  18843031.869    -4230090.599 5  -3124597.678 4
  18466643.088   -15022771.430 6 -11507511.230 5
  17139575.619   -31146287.900 7 -24119917.473 8
 95  9 27  4 56 59.9860000  0  6 28 18 19 27 31 29
  19334566.307   -10673570.366 5  -8159223.448 5
  16177301.893   -24210097.721 7 -18693908.759 7
  17087231.096   -11819433.598 7  -9057305.365 7
  18822730.666    -4336758.490 5  -3207715.506 4
  18446765.150   -15127234.764 6 -11588911.223 6
  17141383.275   -31136773.588 7 -24112503.739 8
 95  9 27  4 57 29.9860000  0  7 28 18 19 27  2 31 29
  19326454.361   -10716214.296 5  -8192452.481 5
  16170704.752   -24244767.112 7 -18720923.873 7
  17073670.955   -11890696.792 7  -9112835.118 7
  18802463.182    -4443307.265 5  -3290740.538 3
  20714377.197          -0.18513
  18426962.838   -15231288.046 6 -11669991.671 6
  17143278.354   -31126818.822 7 -24104746.782 8
 95  9 27  4 57 59.9860000  0  7 28 18 19 27  2 31 29
  19318444.736   -10758317.612 5  -8225260.245 6
  16164196.775   -24278958.847 7 -18747566.790 7
  17060149.900   -11961748.564 7  -9168200.121 7
  18782203.885    -4549749.889 5  -3373682.827 4
  20688720.533     -134807.186 3
  18407238.494   -15334946.131 6 -11750764.204 5
  17145254.346   -31116433.283 7 -24096654.171 8
 95  9 27  4 58 29.9860000  0  7 28 18 19 27  2 31 29
  19310537.205   -10799873.807 5  -8257641.704 5
  16157785.190   -24312657.613 7 -18773825.574 7
  17046671.229   -12032584.334 6  -9223396.813 7
  18761970.088    -4656087.209 5  -3456543.058 5
  20663102.174     -269468.691 2        -0.30712
  18387585.588   -15438206.840 6 -11831227.083 6
  17147313.830   -31105615.910 7 -24088225.056 8
 95  9 27  4 58 59.9860000  0  7 28 18 19 27  2 31 29
  19302735.049   -10840886.415 5  -8289599.583 5
  16151466.565   -24345849.680 7 -18799689.523 7
  17033221.924   -12103233.807 6  -9278448.339 8
  18741749.111    -4762324.762 5  -3539325.548 5
  20637493.432     -403992.110 2   -104823.767 3
  18368014.994   -15541066.659 6 -11911377.568 5
  17149454.346   -31094375.220 7 -24079466.092 8
 95  9 27  4 59 29.9860000  0  7 28 18 19 27  2 31 29
  19295031.213   -10881356.667 5  -8321134.833 5
  16145247.291   -24378537.643 7 -18825160.671 7
  17019818.838   -12173704.236 7  -9333360.351 8
  18721551.486    -4868460.328 5  -3622028.560 5
  20611930.150     -538382.796 3   -209543.765 2
  18348514.104   -15643535.523 6 -11991223.427 5
  17151676.408   -31082711.844 7 -24070377.752 8
 95  9 27  4 59 59.9860000  0  7 28 18 19 27  2 31 29
  19287435.236   -10921277.976 6  -8352242.340 5
  16139122.041   -24410725.691 7 -18850242.271 7
  17006439.432   -12243996.834 7  -9388133.793 8
  18701374.830    -4974504.385 5  -3704660.265 5
  20586377.205     -672642.362 3   -314161.621 3
  18329095.002   -15745597.398 6 -12070752.145 6
  17153969.533   -31070647.188 7 -24060976.737 8
 95  9 27  5  0 29.9860000  0  7 28 18 19 27  2 31 29
  19279941.104   -10960667.851 6  -8382935.725 5
  16133087.135   -24442451.169 7 -18874963.428 7
  16993090.783   -12314150.500 7  -9442798.982 8
  18681211.393    -5080472.521 5  -3787232.830 5
  20560850.604     -806770.013 3   -418676.692 3
  18309743.197   -15847271.910 6 -12149979.017 6
  17156334.783   -31058206.635 7 -24051282.823 8
 95  9 27  5  0 59.9860000  0  7 28 18 19 27  2 31 29
  19272547.330   -10999513.890 6  -8413205.352 5
  16127136.080   -24473706.983 7 -18899318.612 7
  16979767.979   -12384148.980 7  -9497343.245 8
  18661066.744    -5186348.047 5  -3869733.219 5
  20535352.994     -940743.543 3   -523071.627 3
  18290470.783   -15948556.458 6 -12228902.043 6
  17158779.533   -31045376.730 7 -24041285.504 8
 95  9 27  5  1 29.9860000  0  7 28 18 19 27  2 31 29
  19265258.979   -11037820.675 6  -8443054.782 5
  16121278.783   -24504493.235 7 -18923307.903 7
  16966483.330   -12453970.427 7  -9551749.568 7
  18640932.643    -5292140.920 5  -3952169.207 5
  20509896.658    -1074558.414 4   -627342.939 3
  18271273.650   -16049448.716 6 -12307519.373 6
  17161290.322   -31032160.075 7 -24030986.833 8
 95  9 27  5  1 59.9860000  0  7 28 18 19 27  2 31 29
  19258069.580   -11075582.818 5  -8472479.832 5
  16115512.283   -24534799.205 7 -18946922.951 7
  16953232.986   -12523600.764 7  -9606006.966 7
  18620816.791    -5397837.808 5  -4034530.402 5
  20484458.893    -1208195.002 3   -731475.337 5
  18252147.986   -16149929.872 6 -12385816.374 6
  17163884.572   -31018552.623 7 -24020383.634 8
 95  9 27  5  2 29.9860000  0  7 28 18 19 27  2 31 29
  19250984.869   -11112800.186 5  -8501480.365 6
  16109838.525   -24564613.974 7 -18970155.250 7
  16940021.010   -12593024.156 7  -9660103.112 7
  18600719.205    -5503428.652 5  -4116808.966 5
  20459073.416    -1341634.982 4   -835454.526 3
  18233107.643   -16249999.295 6 -12463792.538 6
  17166551.033   -31004523.752 7 -24009452.054 8
 95  9 27  5  2 59.9860000  0  7 28 18 19 27  2 31 29
  19244005.736   -11149474.133 5  -8530057.464 6
  16104262.471   -24593914.509 7 -18992986.842 7
  16926855.158   -12662213.996 7  -9714017.283 7
  18580644.971    -5608926.805 5  -4199015.320 5
  20433705.190    -1474896.836 3   -939294.925 3
  18214147.736   -16349641.187 6 -12541435.543 6
  17169301.893   -30990066.633 7 -23998186.776 8
 95  9 27  5  3 29.9860000  0  7 28 18 19 27  2 31 29
  19237135.510   -11185605.942 5  -8558212.116 6
  16098783.150   -24622703.542 7 -19015419.853 7
  16913730.596   -12731179.379 7  -9767756.542 7
  18560589.502    -5714332.693 5  -4281149.770 5
  20408386.283    -1607994.309 4  -1043007.229 2
  18195271.619   -16448841.125 6 -12618734.190 6
  17172131.369   -30975185.996 7 -23986591.486 8
 95  9 27  5  3 59.9860000  0  7 28 18 19 27  2 31 29
  19230363.697   -11221195.261 6  -8585944.021 6
  16093400.408   -24650998.344 7 -19037467.752 7
  16900645.002   -12799952.949 7  -9821346.335 7
  18540552.033    -5819646.680 5  -4363212.621 5
  20383079.440    -1740942.767 4  -1146603.448 4
  18176475.252   -16547607.860 6 -12695695.261 6
  17175042.432   -30959885.789 6 -23974669.260 8
 95  9 27  5  4 29.9860000  0  7 28 18 19 27  2 31 29
  19223690.690   -11256231.727 5  -8613245.167 6
  16088114.713   -24678780.372 7 -19059116.089 7
  16887594.025   -12868542.406 7  -9874792.660 7
  18520530.885    -5924862.614 6  -4445199.048 5
  20357814.150    -1873750.472 4  -1250089.966 3
  18157766.861   -16645930.238 6 -12772310.114 6
  17178036.861   -30944161.796 7 -23962416.809 8
 95  9 27  5  4 59.9860000  0  7 28 18 19 27  2 31 29
  19217131.815   -11290713.632 6  -8640114.182 6
  16082922.861   -24706059.635 7 -19080372.660 7
  16874572.346   -12936970.359 7  -9928113.139 7
  18500528.861    -6029973.122 6  -4527103.332 5
  20332563.979    -2006431.690 5  -1353477.912 4
  18139137.033   -16743815.130 6 -12848584.028 6
  17181105.471   -30928030.221 7 -23949846.764 8
 95  9 27  5  5 29.9860000  0  7 28 18 19 27  2 31 29
  19210675.854   -11324654.080 6  -8666561.275 6
  16077821.994   -24732862.367 7 -19101257.898 7
  16861576.065   -13005270.907 7  -9981334.352 7
  18480548.119    -6134978.923 6  -4608926.007 6
  20307341.908    -2138986.803 5  -1456767.603 2
  18120590.736   -16841281.164 6 -12924531.607 6
  17184250.674   -30911506.693 7 -23936971.293 8
 95  9 27  5  5 59.9860000  0  7 28 18 19 27  2 31 29
  19204317.557   -11358051.917 5  -8692585.545 6
  16072813.190   -24759187.558 7 -19121771.042 7
  16848608.205   -13073427.597 7 -10034443.467 7
  18460580.940    -6239888.833 6  -4690673.965 6
  20282141.221    -2271399.641 5  -1559946.423 2
  18102119.940   -16938334.029 6 -13000157.188 6
  17187469.033   -30894598.303 7 -23923795.941 8
 95  9 27  5  6 29.9860000  0  7 28 18 19 27  2 31 29
  19198070.291   -11390903.641 5  -8718184.298 5
  16067893.815   -24785031.107 7 -19141908.882 7
  16835670.283   -13141407.768 7 -10087415.027 7
  18440631.572    -6344704.381 6  -4772348.399 5
  20256984.885    -2403645.426 5  -1662995.081 2
  18083734.986   -17034965.437 6 -13075454.379 6
  17190760.385   -30877300.130 7 -23910316.853 8
 95  9 27  5  6 59.9860000  0  7 28 18 19 27  2 31 29
  19191919.596   -11423201.246 5  -8743351.265 6
  16063070.127   -24810396.172 7 -19161673.879 7
  16822771.486   -13209185.616 7 -10140228.918 7
  18420704.729    -6449422.512 6  -4853946.944 5
  20231843.283    -2535705.705 5  -1765899.189 2
  18065429.908   -17131157.949 6 -13150409.577 6
  17194129.838   -30859605.272 7 -23896528.680 8
 95  9 27  5  7 29.9860000  0  7 28 18 19 27  2 31 29
  19185880.916   -11454940.821 5  -8768083.375 5
  16058334.619   -24835270.201 7 -19181056.254 7
  16809918.549   -13276739.947 7 -10192868.641 7
  18400797.025    -6554051.591 6  -4935476.079 6
  20206753.400    -2667564.107 5  -1868646.008 1
  18047215.424   -17226894.242 6 -13225009.274 6
  17197572.494   -30841506.377 7 -23882425.662 8
 95  9 27  5  7 59.9860000  0  7 28 18 19 27  2 31 29
  19179942.322   -11486133.390 5  -8792389.280 5
  16053692.033   -24859667.955 7 -19200067.502 7
  16797100.104   -13344075.131 7 -10245337.610 8
  18380900.869    -6658606.148 6  -5016947.151 6
  20181699.900    -2799238.348 5  -1971249.250 1
  18029075.322   -17322180.120 5 -13299257.988 6
  17201094.650   -30823012.885 7 -23868015.151 8
 95  9 27  5  8 29.9860000  0  7 28 18 19 27  2 31 29
  19174112.963   -11516774.373 5  -8816265.365 6
  16049138.854   -24883585.679 7 -19218704.691 7
  16784324.611   -13411208.899 7 -10297649.630 8
  18361022.205    -6763068.855 6  -5098346.651 6
  20156674.416    -2930740.716 5  -2073718.622 1
  18011036.650   -17416995.587 6 -13373140.166 6
  17204691.440   -30804109.100 7 -23853284.954 7
 95  9 27  5  8 59.9860000  0  7 28 18 19 27  2 31 29
  19168388.674   -11546864.950 5  -8839712.554 6
  16044683.408   -24907013.377 7 -19236960.048 7
  16771584.205   -13478164.673 7 -10349822.954 8
  18341159.846    -6867432.234 6  -5179668.743 6
  20131683.158    -3062086.692 5  -2176066.123 1
  17993085.768   -17511333.050 6 -13446649.880 6
  17208361.635   -30784798.823 7 -23838237.991 7
 95  9 27  5  9 29.9860000  0  7 28 18 19 27  2 31 29
  19162762.838   -11576412.263 5  -8862736.439 6
  16040317.096   -24929955.127 7 -19254836.737 7
  16758873.182   -13544967.085 7 -10401876.777 8
  18321321.221    -6971705.602 6  -5260920.695 6
  20106714.650    -3193286.892 4
  17975219.541   -17605202.644 6 -13519794.988 6
  17212114.143   -30765082.972 6 -23822875.005 7
 95  9 27  5  9 59.9860000  0  7 28 18 19 27  2 31 29
  19157243.197   -11605412.818 5  -8885334.266 6
  16036042.400   -24952411.564 7 -19272335.264 7
  16746190.604   -13611610.910 7 -10453807.030 8
  18301497.252    -7075873.076 6  -5342090.129 6
  20081772.994    -3324349.483 4        -0.23211
  17957450.322   -17698594.398 6 -13592567.774 6
  17215945.338   -30744974.914 6 -23807206.408 7
 95  9 27  5 10 29.9860000  0  7 28 18 19 27  2 31 29
  19151833.111   -11633866.611 5  -8907506.053 5
  16031864.596   -24974371.684 7 -19289447.049 7
  16733541.932   -13678089.141 7 -10505608.246 8
  18281695.822    -7179934.812 6  -5423177.185 6
  20056864.721    -3455268.473 3   -102014.987 3
  17939770.447   -17791509.225 6 -13664968.954 6
  17219843.893   -30724473.246 6 -23791231.088 7
 95  9 27  5 10 59.9860000  0  7 28 18 19 27  2 31 29
  19146526.150   -11661769.322 6  -8929248.417 5
  16027781.385   -24995824.721 7 -19306163.705 7
  16720926.994   -13744381.661 7 -10557264.742 8
  18261914.002    -7283888.929 6  -5504180.379 6
  20031983.080    -3586022.811 3   -203901.500 2
  17922174.057   -17883954.457 6 -13737004.175 6
  17223819.096   -30703578.557 6 -23774949.518 7
 95  9 27  5 11 29.9860000  0  7 28 18 19 27  2 31 29
  19141318.135   -11689126.688 6  -8950565.839 5
  16023796.002   -25016776.498 7 -19322489.768 7
  16708346.494   -13810479.788 7 -10608769.756 8
  18242148.244    -7387740.267 6  -5585103.490 6
  20007118.315    -3716604.730 3   -305653.650 3
  17904674.760   -17975940.555 6 -13808681.639 6
  17227869.869   -30682300.068 7 -23758368.875 7
 95  9 27  5 11 59.9860000  0  7 28 18 19 27  2 31 29
  19136213.400   -11715932.743 6  -8971453.657 6
  16019903.291   -25037223.596 7 -19338422.584 7
  16695813.002   -13876366.485 7 -10660110.026 8
  18222412.721    -7491476.964 6  -5665937.266 6
  19982313.322    -3846999.992 3   -407260.358 2
  17887256.065   -18067463.565 6 -13879998.265 6
  17231992.674   -30660629.569 7 -23741482.790 7
 95  9 27  5 12 29.9860000  0  7 28 18 19 27  2 31 29
  19131217.697   -11742193.747 6  -8991916.776 5
  16016111.072   -25057165.106 7 -19353961.437 7
  16683307.158   -13942059.873 7 -10711299.667 8
  18202690.994    -7595107.070 6  -5746687.974 6
  19957536.893    -3977193.231 5   -508709.627 3
  17869928.283   -18158540.498 6 -13950967.283 6
  17236193.588   -30638549.823 7 -23724277.817 7
 95  9 27  5 12 59.9860000  0  7 28 18 19 27  2 31 29
  19126324.385   -11767906.708 6  -9011952.834 5
  16012414.463   -25076594.885 7 -19369101.532 7
  16670843.385   -14007560.520 7 -10762339.128 7
  18182991.760    -7698631.007 6  -5827355.965 6
  19932807.846    -4107173.396 5   -609992.864 2
  17852678.729   -18249170.924 6 -14021588.386 6
  17240472.291   -30616067.699 7 -23706759.289 7
 95  9 27  5 13 29.9860000  0  7 28 18 19 27  2 31 29
  19121533.627   -11793072.212 6  -9031562.307 5
  16008811.947   -25095519.417 7 -19383847.925 7
  16658419.213   -14072862.393 7 -10813223.706 8
  18163308.510    -7802059.269 6  -5907949.398 6
  19908111.127    -4236948.953 5   -711116.674 2
  17835516.432   -18339344.780 6 -14091853.697 6
  17244827.643   -30593172.745 7 -23688919.083 7
 95  9 27  5 13 59.9850000  0  7 28 18 19 27  2 31 29
  19116851.528   -11817689.074 5  -9050744.269 5
  16005305.974   -25113939.657 7 -19398201.369 8
  16646029.849   -14137970.254 7 -10863957.106 8
  18143644.052    -7905392.257 6  -5988468.590 6
  19883454.560    -4366525.607 5   -812085.481 2
  17818448.708   -18429056.233 6 -14161758.732 6
  17249265.036   -30569855.073 7 -23670749.483 7
 95  9 27  5 14 29.9850000  0  7 28 18 19 27  2 31 29
  19112269.466   -11841757.830 5  -9069499.145 5
  16001900.521   -25131846.630 7 -19412154.868 8
  16633675.474   -14202898.484 7 -10914550.529 8
  18123995.950    -8008638.512 6  -6068920.201 6
  19858828.341    -4495920.252 5   -912912.458 2
  17801465.474   -18518312.142 6 -14231308.759 6
  17253781.364   -30546120.854 7 -23652255.315 7
 95  9 27  5 14 59.9850000  0  7 28 18 19 27  2 31 29
  19107795.107   -11865281.113 6  -9087828.965 5
  15998586.528   -25149256.594 7 -19425721.081 8
  16621350.521   -14267653.294 7 -10965008.810 8
  18104367.716    -8111805.629 6  -6149310.154 6
  19834236.419    -4625162.847 5  -1013620.975 4
  17784570.575   -18607097.926 6 -14300492.485 6
  17258374.208   -30521987.792 7 -23633450.353 7
 95  9 27  5 15 29.9850000  0  7 28 18 19 27  2 31 29
  19103422.028   -11888267.323 5  -9105740.297 5
  15995364.185   -25166193.819 7 -19438918.924 8
  16609058.685   -14332257.673 7 -11015349.883 8
  18084748.950    -8214893.987 6  -6229638.736 6
  19809671.107    -4754272.180 5  -1114225.630 2
  17767767.349   -18695400.758 6 -14369299.892 6
  17263040.333   -30497465.078 6 -23614341.756 7
 95  9 27  5 15 59.9850000  0  7 28 18 19 27  2 31 29
  19099149.669   -11910701.905 5  -9123221.791 5
  15992230.192   -25182650.065 7 -19451741.986 7
  16596790.919   -14396713.517 7 -11065575.212 8
  18065149.552    -8317873.169 6  -6309882.232 6
  19785130.521    -4883229.581 5  -1214711.890 2
  17751057.232   -18783205.150 6 -14437718.878 6
  17267781.911   -30472559.045 6 -23594934.472 7
 95  9 27  5 16 29.9850000  0  7 28 18 19 27  2 31 29
  19094986.880   -11932586.236 5  -9140274.522 6
  15989188.442   -25198635.170 7 -19464197.926 7
  16584557.271   -14461012.495 7 -11115678.310 8
  18045575.966    -8420745.210 6  -6390042.239 6
  19760622.997    -5012020.746 4  -1315068.616 2
  17734443.903   -18870505.840 6 -14505745.379 6
  17272587.224   -30447290.229 6 -23575244.481 7
 95  9 27  5 16 59.9850000  0  7 28 18 19 27  2 31 29
  19090930.653   -11953927.426 5  -9156904.001 5
  15986235.349   -25214158.552 7 -19476294.067 7
  16572348.622   -14525153.627 7 -11165658.406 8
  18026020.450    -8523517.817 6  -6470124.773 6
  19736151.005    -5140641.110 5  -1415292.284 2
  17717925.864   -18957294.350 6 -14573372.778 6
  17277465.114   -30421670.467 6 -23555281.037 7
 95  9 27  5 17 29.9850000  0  7 28 18 19 27  2 31 29
  19086970.513   -11974718.868 5  -9173105.134 5
  15983374.177   -25229195.563 7 -19488011.233 7
  16560178.427   -14589117.844 7 -11215500.654 8
  18006484.982    -8626178.956 6  -6550120.440 6
  19711707.028    -5269061.048 4  -1515359.766 1
  17701508.528   -19043569.391 6 -14640600.073 6
  17282408.333   -30395689.301 6 -23535035.978 8
 95  9 27  5 17 59.9850000  0  7 28 18 19 27  2 31 29
  19083116.716   -11994960.471 5  -9188877.798 5
  15980609.982   -25243722.507 7 -19499330.935 7
  16548041.919   -14652891.760 7 -11265194.611 8
  17986966.888    -8728737.949 6  -6630036.536 6
  19687310.380    -5397272.606 4  -1615264.837 1
  17685184.661   -19129352.137 6 -14707443.747 6
  17287421.310   -30369344.698 6 -23514507.729 7
 95  9 27  5 18 29.9850000  0  7 28 18 19 27  2 31 29
  19079372.427   -12014658.839 5  -9204227.171 5
  15977941.591   -25257737.566 7 -19510251.761 7
  16535942.997   -14716478.554 7 -11314742.735 8
  17967463.958    -8831213.489 6  -6709887.599 7
  19662952.153    -5525283.482 4  -1715013.546 2
  17668957.794   -19214650.133 6 -14773909.713 6
  17292506.911   -30342632.002 6 -23493692.661 7
 95  9 27  5 18 59.9850000  0  7 28 18 19 27  2 31 29
  19075723.903   -12033807.978 5  -9219148.561 5
  15975374.177   -25271229.305 7 -19520764.816 7
  16523877.372   -14779881.111 7 -11364147.328 8
  17947983.302    -8933598.457 6  -6789668.081 7
  19638620.583    -5653097.554 3  -1814608.913 1
  17652814.896   -19299461.094 6 -14839996.156 6
  17297663.583   -30315527.695 6 -23472572.430 7
 95  9 27  5 19 29.9850000  0  7 28 18 19 27  2 31 29
  19072183.747   -12052399.654 5  -9233635.592 5
  15972908.591   -25284191.811 7 -19530865.477 7
  16511850.458   -14843089.353 7 -11413400.493 8
  17928516.614    -9035892.811 6  -6869377.954 7
  19614341.810    -5780700.767 3  -1914039.996 2
  17636767.489   -19383782.775 6 -14905701.342 6
  17302899.192   -30288018.200 7 -23451136.475 7
 95  9 27  5 19 59.9850000  0  7 28 18 19 27  2 31 29
  19068756.521   -12070449.767 6  -9247700.602 5
  15970536.591   -25296651.249 7 -19540574.139 7
  16499855.974   -14906115.686 7 -11462511.905 8
  17909064.708    -9138109.181 6  -6949027.066 6
  19590100.864    -5908099.863 3  -2013311.973 2
  17620816.802   -19467620.719 6 -14971029.597 6
  17308203.099   -30260127.688 7 -23429403.626 7
 95  9 27  5 20 29.9850000  0  7 28 18 19 27  2 31 29
  19065419.591   -12087954.463 6  -9261340.615 5
  15968261.435   -25308619.992 7 -19549900.444 7
  16487898.107   -14968955.847 7 -11511478.257 8
  17889634.286    -9240233.726 6  -7028604.622 6
  19565894.036    -6035296.637 3  -2112426.342 4
  17604954.286   -19550950.132 6 -15035961.581 6
  17313585.888   -30231851.017 7 -23407369.884 7
 95  9 27  5 20 59.9850000  0  7 28 18 19 27  2 31 29
  19062192.419   -12104917.115 5  -9274558.275 5
  15966076.661   -25320099.571 7 -19558845.583 7
  16475979.232   -15031593.200 7 -11560286.592 8
  17870217.271    -9342259.230 6  -7108104.982 6
  19541732.747    -6162292.171 3  -2211383.916 3
  17589202.857   -19633761.899 6 -15100490.217 6
  17319040.989   -30203194.286 7 -23385039.976 7
 95  9 27  5 21 29.9850000  0  7 28 18 19 27  2 31 29
  19059066.755   -12121339.833 6  -9287355.195 6
  15963986.099   -25331082.910 7 -19567404.030 8
  16464098.755   -15094018.636 7 -11608929.788 8
  17850826.802    -9444170.173 6  -7187516.101 6
  19517603.388    -6289088.753 5  -2310186.437 5
  17573539.552   -19716044.350 6 -15164606.403 6
  17324559.357   -30174173.999 7 -23362426.784 7
 95  9 27  5 21 59.9850000  0  7 28 18 19 27  2 31 29
  19056049.677   -12137216.446 6  -9299726.575 5
  15961990.708   -25341561.834 7 -19575569.430 8
  16452257.677   -15156222.408 7 -11657400.258 7
  17831458.786    -9545938.638 6  -7266816.178 6
  19493511.255    -6415698.116 5  -2408843.087 5
  17557988.521   -19797791.199 6 -15228305.213 6
  17330159.810   -30144776.918 6 -23339519.986 7
 95  9 27  5 22 29.9850000  0  7 28 18 19 27  2 31 29
  19053130.310   -12152552.964 6  -9311677.101 5
  15960090.833   -25351542.588 7 -19583346.656 8
  16440467.357   -15218210.367 7 -11705702.564 7
  17812118.528    -9647581.197 6  -7346018.165 6
  19469444.802    -6542136.791 5  -2507366.725 5
  17542528.036   -19879022.183 6 -15291602.079 6
  17335820.630   -30114999.913 6 -23316317.151 7
 95  9 27  5 22 59.9850000  0  7 28 18 19 27  2 31 29
  19050314.567   -12167344.105 6  -9323202.663 6
  15958288.841   -25361013.006 7 -19590726.201 8
  16428714.060   -15279975.885 7 -11753831.534 7
  17792802.825    -9749101.766 5  -7425125.088 6
  19445424.786    -6668379.516 5  -2605737.682 5
  17527170.114   -19959743.617 6 -15354501.896 6
  17341554.950   -30084841.973 6 -23292817.457 7
 95  9 27  5 23 29.9850000  0  7 28 18 19 27  2 31 29
  19047601.247   -12181594.257 6  -9334306.675 5
  15956586.021   -25369979.090 7 -19597712.765 8
  16416992.864   -15341552.055 7 -11801812.963 7
  17773501.513    -9850518.175 6  -7504150.834 6
  19421437.380    -6794421.966 5  -2703952.556 5
  17511905.302   -20039968.456 6 -15417014.744 6
  17347368.380   -30054306.317 6 -23269023.453 7
 95  9 27  5 23 59.9850000  0  7 28 18 19 27  2 31 29
  19044999.357   -12195300.478 5  -9344986.842 5
  15954971.419   -25378449.722 7 -19604313.268 8
  16405309.903   -15402952.216 7 -11849657.242 7
  17754216.708    -9951853.689 6  -7583113.567 6
  19397496.505    -6920257.838 4  -2802006.471 5
  17496732.411   -20119700.200 6 -15479143.357 6
  17353256.630   -30023384.131 6 -23244928.270 7
 95  9 27  5 24 29.9850000  0  7 28 18 19 27  2 31 29
  19042487.302   -12208460.465 5  -9355241.385 6
  15953455.388   -25386420.626 7 -19610524.373 8
  16393659.052   -15464190.115 7 -11897375.087 8
  17734949.575   -10053110.308 6  -7662014.805 6
  19373595.989    -7045868.566 5  -2899884.952 5
  17481654.208   -20198917.556 6 -15540871.162 6
  17359215.122   -29992083.751 7 -23220538.373 7
 95  9 27  5 24 59.9850000  0  7 28 18 19 27  2 31 29
  19040087.153   -12221085.046 5  -9365078.717 5
  15952032.060   -25393895.982 7 -19616349.332 8
  16382030.419   -15525291.150 7 -11944986.265 8
  17715693.146   -10154281.554 6  -7740849.522 6
  19349722.521    -7171260.974 4  -2997593.306 5
  17466682.380   -20277600.753 6 -15602182.718 6
  17365240.817   -29960414.890 7 -23195861.358 7
 95  9 27  5 25 29.9850000  0  7 28 18 19 27  2 31 29
  19037785.560   -12233173.765 5  -9374498.494 6
  15950702.716   -25400878.210 7 -19621790.030 8
  16370426.966   -15586261.507 7 -11992495.629 8
  17696459.567   -10255354.728 6  -7819607.818 6
  19325904.349    -7296445.685 4  -3095139.821 5
  17451812.942   -20355728.862 6 -15663061.767 6
  17371333.052   -29928371.988 6 -23170892.879 7
 95  9 27  5 25 59.9850000  0  7 28 18 19 27  2 31 29
  19035590.247   -12244726.215 5  -9383500.396 5
  15949467.739   -25407370.031 7 -19626848.594 8
  16358851.802   -15647081.622 7 -12039887.925 8
  17677247.864   -10356309.078 6  -7898273.522 6
  19302122.669    -7421425.983 4  -3192527.062 5
  17437053.521   -20433292.403 6 -15723500.875 6
  17377508.450   -29895955.721 7 -23145633.468 6
 95  9 27  5 26 29.9850000  0  7 28 18 19 27  2 31 29
  19033489.786   -12255742.666 5  -9392084.657 6
  15948326.466   -25413371.339 7 -19631524.948 8
  16347312.232   -15707736.612 7 -12087151.545 8
  17658067.825   -10457132.728 6  -7976837.403 6
  19278382.216    -7546192.522 5  -3289747.736 5
  17422401.114   -20510286.665 6 -15783496.385 6
  17383748.036   -29863169.723 7 -23120085.942 6
 95  9 27  5 26 59.9850000  0  7 28 18 19 27  2 31 29
  19031496.747   -12266224.139 5  -9400252.056 6
  15947274.341   -25418895.172 7 -19635829.239 8
  16335804.935   -15768207.119 7 -12134271.410 8
  17638901.903   -10557836.526 6  -8055307.862 6
  19254682.919    -7670739.273 5  -3386797.147 4
  17407857.247   -20586726.017 6 -15843059.504 6
  17390058.700   -29830006.384 7 -23094244.390 6
 95  9 27  5 27 29.9850000  0  7 28 18 19 27  2 31 29
  19029607.567   -12276175.265 5  -9408006.167 5
  15946314.442   -25423950.556 7 -19639768.515 8
  16324337.208   -15828482.815 7 -12181239.475 8
  17619757.357   -10658444.345 6  -8133703.541 6
  19231016.599    -7795072.398 4  -3483680.108 3
  17393410.060   -20662638.905 6 -15902212.381 6
  17396439.442   -29796479.676 6 -23068119.711 6
 95  9 27  5 27 59.9850000  0  7 28 18 19 27  2 31 29
  19027816.364   -12285589.034 5  -9415341.577 5
  15945442.169   -25428525.286 7 -19643333.257 8
  16312902.942   -15888548.500 7 -12228043.894 7
  17600628.114   -10758963.002 6  -8212029.758 6
  19207405.552    -7919185.771 5  -3580391.796 4
  17379061.927   -20738036.418 6 -15960963.685 6
  17402883.224   -29762593.255 6 -23041714.729 7
 95  9 27  5 28 29.9850000  0  7 28 18 19 27  2 31 29
  19026125.966   -12294455.037 6  -9422250.141 5
  15944666.341   -25432599.891 7 -19646508.287 8
  16301514.888   -15948399.222 7 -12274680.820 7
  17581515.489   -10859404.034 6  -8290295.478 6
  19183829.607    -8043061.707 5  -3676918.505 3
  17364817.950   -20812907.224 6 -16019304.560 6
  17409404.544   -29728337.667 6 -23015022.079 7
 95  9 27  5 28 59.9850000  0  7 28 18 19 27  2 31 29
  19024539.989   -12302782.181 6  -9428738.822 5
  15943987.513   -25436171.273 7 -19649291.187 8
  16290164.607   -16008047.819 7 -12321160.237 7
  17562414.091   -10959777.407 6  -8368508.498 6
  19160300.669    -8166713.849 5  -3773270.793 3
  17350666.099   -20887253.791 6 -16077236.927 6
  17415989.067   -29693728.680 6 -22988054.055 7
 95  9 27  5 29 29.9850000  0  7 28 18 19 27  2 31 29
  19023057.849   -12310575.912 6  -9434811.852 5
  15943404.607   -25439235.723 7 -19651679.094 8
  16278849.177   -16067505.470 7 -12367490.866 7
  17543328.685   -11060075.086 6  -8446662.524 6
  19136811.560    -8290162.549 5  -3869464.573 3
  17336619.692   -20961076.534 6 -16134761.135 6
  17422635.263   -29658782.121 6 -22960822.975 6
 95  9 27  5 29 59.9850000  0  7 28 18 19 27  2 31 29
  19021674.333   -12317840.540 6  -9440472.602 5
  15942914.950   -25441806.858 7 -19653682.577 8
  16267569.232   -16126777.959 6 -12413677.216 7
  17524259.802   -11160280.643 6  -8524744.765 6
  19113357.708    -8413411.179 5  -3965502.435 2
  17322676.380   -21034358.336 6 -16191863.825 7
  17429355.239   -29623506.935 6 -22933335.835 6
 95  9 27  5 30 29.9850000  0  7 28 18 19 27  2 31 29
  19020392.794   -12324568.658 5  -9445715.294 5
  15942517.310   -25443885.363 7 -19655302.204 8
  16256327.638   -16185859.318 7 -12459714.636 7
  17505216.942   -11260367.605 6  -8602734.594 6
  19089942.919    -8536454.126 5  -4061380.032 2
  17308838.075   -21107064.840 6 -16248518.241 7
  17436129.825   -29587886.576 6 -22905579.733 7
 95  9 27  5 30 59.9850000  0  7 28 18 19 27  2 31 29
  19019217.403   -12330761.416 5  -9450540.819 5
  15942214.989   -25445484.616 7 -19656548.381 8
  16245123.638   -16244739.117 6 -12505595.001 8
  17486196.607   -11360314.005 6  -8680614.887 6
  19066563.435    -8659304.193 5  -4157107.340 3
  17295111.997   -21179198.210 6 -16304726.054 7
  17442971.802   -29551921.273 6 -22877554.840 6
 95  9 27  5 31 29.9850000  0  7 28 18 19 27  2 31 29
  19018141.185   -12336425.485 5  -9454954.387 5
  15941997.692   -25446620.952 7 -19657433.856 8
  16233957.450   -16303420.580 7 -12551320.803 8
  17467201.974   -11460123.861 6  -8758388.801 6
  19043220.005    -8781967.435 5  -4252689.066 2
  17281495.263   -21250760.256 6 -16360488.678 6
  17449881.388   -29515604.251 6 -22849255.882 7
 95  9 27  5 31 59.9850000  0  7 28 18 19 27  2 31 29
  19017162.857   -12341559.460 5  -9458954.884 5
  15941874.216   -25447283.643 7 -19657950.237 8
  16222827.513   -16361900.942 6 -12596889.908 8
  17448233.200   -11559805.014 6  -8836062.411 6
  19019918.521    -8904430.448 5  -4348114.771 2
  17267987.989   -21321746.056 6 -16415802.272 7
  17456861.177   -29478927.973 6 -22820676.974 7
 95  9 27  5 32 29.9850000  0  7 28 18 19 27  2 31 29
  19016288.841   -12346158.009 5  -9462538.172 5
  15941844.646   -25447442.922 7
  16211741.224   -16420171.071 6 -12642295.191 8
  17429287.982   -11659363.177 6  -8913640.177 6
  18996655.427    -9026676.570 5  -4443371.470 2
  17254585.857   -21392160.778 6 -16470670.868 7
  17463911.911   -29441877.770 6 -22791806.708 6
 95  9 27  5 32 59.9850000  0  7 28 18 19 27  2 31 29
  19015516.372   -12350226.016 5  -9465708.053 5
  15941911.575   -25447087.638 7
  16200691.153   -16478235.105 6 -12687539.891 8
  17410361.263   -11758811.847 6  -8991132.641 7
  18973434.833    -9148700.893 5  -4538455.348 2
  17241292.153   -21462025.194 6 -16525110.668 7
  17471035.638   -29404457.428 6 -22762648.016 7
 95  9 27  5 33 29.9840000  0  7 28 18 19 27  2 31 29
  19014841.844   -12353767.736 5  -9468467.841 5
  15942075.336   -25446211.214 7 -19657114.613 8
  16189676.414   -16536112.078 7 -12732638.833 7
  17391457.109   -11858163.527 6  -9068549.529 7
  18950260.938    -9270488.753 5  -4633354.972 2
  17228102.492   -21531339.400 6 -16579121.717 7
  17478224.766   -29366671.311 6 -22733204.317 6
 95  9 27  5 33 59.9840000  0  7 28 18 19 27  2 31 29
  19014264.375   -12356781.314 5  -9470816.074 5
  15942346.250   -25444807.268 7 -19656020.639 8
  16178696.063   -16593811.047 7 -12777599.081 7
  17372568.570   -11957421.737 6  -9145893.564 7
  18927130.281    -9392042.526 5  -4728072.199 2
  17215017.625   -21600115.678 6 -16632713.612 7
  17485485.438   -29328520.026 6 -22703476.041 6
 95  9 27  5 34 29.9840000  0  7 28 18 19 27  2 31 29
  19013792.484   -12359267.204 5  -9472753.147 5
  15942707.836   -25442892.430 7 -19654528.561 8
  16167751.063   -16651331.476 7 -12822420.205 7
  17353698.461   -12056582.746 6  -9223161.861 7
  18904040.649    -9513360.294 5  -4822605.520 3
  17202029.555   -21668348.020 6 -16685881.659 7
  17492816.063   -29290000.432 6 -22673460.788 6
 95  9 27  5 34 59.9840000  0  7 28 18 19 27  2 31 29
  19013416.313   -12361228.570 6  -9474281.480 5
  15943165.289   -25440490.516 7 -19652656.956 8
  16156839.445   -16708683.531 7 -12867110.130 7
  17334850.289   -12155637.820 6  -9300347.610 7
  18881000.766    -9634444.063 5  -4916956.491 4
  17189150.281   -21736026.066 6 -16738617.793 7
  17500217.406   -29251119.398 6 -22643163.889 6
 95  9 27  5 35 29.9840000  0  7 28 18 19 27  2 31 29
  19013148.797   -12362655.741 6  -9475393.564 5
  15943716.500   -25437603.950 7 -19650407.702 8
  16145960.024   -16765855.079 7 -12911659.397 8
  17316024.180   -12254572.183 6  -9377439.298 7
  18858006.461    -9755279.315 5  -5011113.813 5
  17176382.406   -21803123.072 6 -16790901.167 7
  17507681.399   -29211873.671 6 -22612582.806 6
 95  9 27  5 35 59.9840000  0  7 28 18 19 27  2 31 29
  19012975.695   -12363560.965 5  -9476098.936 5
  15944353.547   -25434241.715 7 -19647787.792 8
  16135114.313   -16822843.939 7 -12956066.308 7
  17297220.297   -12353391.442 6  -9454441.303 7
  18835052.469    -9875888.462 5  -5105094.975 5
  17163722.992   -21869642.517 6 -16842734.481 7
  17515213.703   -29172281.880 6 -22581732.072 7
 95  9 27  5 36 29.9840000  0  7 28 18 19 27  2 31 29
  19012900.695   -12363946.363 5
  15945085.422   -25430398.715 7 -19644793.266 8
  16124305.344   -16879642.055 7 -13000324.569 8
  17278439.414   -12452083.841 6  -9531344.457 7
  18812146.289    -9996266.618 5  -5198896.116 5
  17151178.500   -21935571.444 6 -16894107.656 7
  17522814.805   -29132351.932 6 -22550617.849 6
 95  9 27  5 36 59.9840000  0  7 28 18 19 27  2 31 29
  19012925.320   -12363812.113 5
  15945911.297   -25426061.297 7 -19641413.472 8
  16113532.344   -16936244.707 7 -13044430.517 8
  17259683.758   -12550637.638 6  -9608139.613 7
  18789289.274   -10116405.659 5  -5292510.951 5
  17138745.367   -22000908.355 6 -16945019.518 7
  17530474.422   -29092087.950 6 -22519243.320 6
 95  9 27  5 37 29.9840000  0  7 28 18 19 27  2 31 29
  19013056.016   -12363155.102 5  -9475782.693 5
  15946831.930   -25421222.189 7 -19637642.754 8
  16102802.695   -16992646.495 7 -13088379.963 7
  17240953.133   -12649062.724 6  -9684834.473 7
  18766465.875   -10236316.661 5  -5385948.064 4
  17126425.195   -22065665.963 6 -16995479.972 7
  17538201.609   -29051481.813 6 -22487602.188 6
 95  9 27  5 37 59.9840000  0  7 28 18 19 27  2 31 29
  19013276.992   -12361984.421 5  -9474870.487 5
  15947847.414   -25415892.566 7 -19633489.807 8
  16092108.445   -17048847.806 7 -13132173.193 8
  17222248.422   -12747372.788 6  -9761439.700 7
  18743695.961   -10356013.950 5  -5479218.667 4
  17114204.008   -22129865.428 6 -17045505.519 7
  17545997.281   -29010539.895 6 -22455699.420 6
 95  9 27  5 38 29.9840000  0  7 28 18 19 27  2 31 29
  19013596.859   -12360295.707 5  -9473554.600 5
  15948954.477   -25410077.551 7 -19628958.647 8
  16081453.641   -17104847.312 7 -13175809.170 8
  17203562.274   -12845569.597 6  -9837956.693 7
  18720956.797   -10475488.685 5  -5572315.838 5
  17102094.664   -22193501.697 6 -17095092.216 7
  17553846.664   -28969255.908 6 -22423530.088 6
 95  9 27  5 38 59.9840000  0  7 28 18 19 27  2 31 29
  19014020.047   -12358085.240 5  -9471832.170 5
  15950151.899   -25403779.126 7 -19624050.788 8
  16070835.555   -17160643.023 7 -13219286.344 7
  17184891.227   -12943668.491 6  -9914397.375 7
  18698265.008   -10594742.533 5  -5665240.896 5
  17090096.266   -22256572.371 6 -17144238.192 7
  17561773.766   -28927627.493 6 -22391092.391 6
 95  9 27  5 39 29.9840000  0  7 28 18 19 27  2 31 29
  19014536.656   -12355360.901 5  -9469709.302 5
  15951437.367   -25397007.966 7 -19618774.558 8
  16060255.414   -17216239.437 7 -13262608.218 8
  17166241.203   -13041684.246 6  -9990773.270 6
  18675612.539   -10713787.910 5  -5758003.503 4
  17078200.125   -22319079.425 6 -17192944.968 7
  17569759.016   -28885674.240 6 -22358401.561 6
 95  9 27  5 39 59.9840000  0  7 28 18 19 27  2 31 29
  19015152.781   -12352119.869 5  -9467183.827 5
  15952822.180   -25389751.393 7 -19613120.099 8
  16049712.563   -17271624.467 7 -13305765.395 8
  17147608.016   -13139598.035 6 -10067069.724 7
  18653001.102   -10832601.892 5  -5850585.814 5
  17066420.508   -22381002.376 6 -17241196.618 7
  17577796.750   -28843406.307 6 -22325465.523 6
 95  9 27  5 40 29.9840000  0  7 28 18 19 27  2 31 29
  19015872.328   -12348364.424 5  -9464257.515 5
  15954295.602   -25382002.764 7 -19607082.225 8
  16039211.922   -17326815.790 7 -13348771.624 8
  17128995.047   -13237410.319 6 -10143287.075 7
  18630436.734   -10951174.161 5  -5942979.780 4
  17054747.883   -22442334.910 6 -17288988.196 7
  17585902.070   -28800829.607 6 -22292288.878 6
 95  9 27  5 40 59.9840000  0  7 28 18 19 27  2 31 29
  19016684.188   -12344090.963 5  -9460927.545 5
  15955864.625   -25373757.303 7 -19600657.202 9
  16028748.070   -17381812.658 7 -13391626.334 8
  17110404.828   -13335108.397 6 -10219415.438 7
  18607918.758   -11069484.439 5  -6035169.587 3
  17043186.383   -22503076.559 6 -17336319.328 7
  17594064.242   -28757933.799 6 -22258863.597 6
 95  9 27  5 41 29.9840000  0  7 28 18 19 27  2 31 29
  19017589.156   -12339306.675 5  -9457199.535 5
  15957525.711   -25365022.059 7 -19593850.526 8
  16018316.070   -17436620.762 7 -13434333.953 8
  17091837.149   -13432678.164 6 -10295443.812 7
  18585457.891   -11187533.184 5  -6127155.590 3
  17031740.516   -22563232.643 6 -17383194.186 7
  17602292.289   -28714712.852 6 -22225184.952 6
 95  9 27  5 41 59.9840000  0  7 28 18 19 27  2 31 29
  19018598.281   -12334010.805 5  -9453072.890 5
  15959280.180   -25355801.277 7 -19586665.503 8
  16007921.438   -17491251.988 7 -13476903.732 8
  17073296.688   -13530110.077 6 -10371364.778 7
  18563046.766   -11305312.725 5  -6218931.853 2
  17020404.391   -22622800.184 6 -17429610.456 7
  17610578.227   -28671158.587 6 -22191246.591 6
 95  9 27  5 42 29.9840000  0  7 28 18 19 27  2 31 29
  19019702.414   -12328205.445 5  -9448549.221 5
  15961127.234   -25346105.282 7 -19579110.191 8
  15997557.766   -17545711.385 7 -13519339.629 8
  17054781.719   -13627405.405 6 -10447179.305 7
  18540681.875   -11422829.747 5  -6310503.508 1
  17009178.180   -22681785.664 6 -17475573.140 7
  17618935.008   -28627258.440 6 -22157038.706 6
 95  9 27  5 42 59.9840000  0  7 28 18 19 27  2 31 29
  19020906.086   -12321889.070 5  -9443627.370 5
  15963064.203   -25335931.851 7 -19571182.848 8
  15987230.266   -17599978.126 7 -13561625.396 8
  17036293.703   -13724550.042 6 -10522876.411 7
  18518367.453   -11540092.386 5  -6401876.962 2
  16998071.258   -22740180.359 6 -17521075.501 7
  17627353.344   -28583006.151 6 -22122556.425 6
 95  9 27  5 43 29.9840000  0  7 28 18 19 27  2 31 29
  19022203.164   -12315064.674 5  -9438309.650 5
  15965088.672   -25325282.701 7 -19562884.818 8
  15976942.469   -17654041.898 7 -13603753.010 8
  17017838.328   -13821540.473 6 -10598453.362 7
  18496102.789   -11657111.478 5  -6493060.659 2
  16987068.977   -22797978.951 6 -17566113.344 7
  17635837.578   -28538422.560 6 -22087815.971 6
 95  9 27  5 43 59.9840000  0  7 28 18 19 27  2 31 29
  19023598.633   -12307733.078 5  -9432596.713 5
  15967207.258   -25314154.937 7 -19554213.847 8
  15966695.070   -17707906.734 7 -13645725.610 8
  16999412.469   -13918385.624 7 -10673917.112 7
  18473880.219   -11773885.718 5  -6584053.562 3
  16976182.055   -22855185.658 6 -17610689.997 7
  17644378.133   -28493520.782 6 -22052827.586 6
 95  9 27  5 44 29.9840000  0  7 28 18 19 27  2 31 29
  19025089.274   -12299899.247 5  -9426492.434 5
  15969414.688   -25302549.151 7 -19545170.389 8
  15956483.430   -17761565.614 7 -13687537.723 8
  16981008.422   -14015095.922 7 -10749275.779 7
  18451698.422   -11890418.269 5  -6674858.150 3
  16965405.984   -22911802.268 6 -17654806.834 6
  17652982.758   -28448304.567 6 -22017594.187 6
 95  9 27  5 44 59.9840000  0  7 28 18 19 27  2 31 29
  19026678.055   -12291555.667 5  -9419990.950 5
  15971716.133   -25290457.850 7 -19535748.608 8
  15946311.336   -17815007.777 7 -13729180.962 8
  16962628.383   -14111669.246 7 -10824527.707 7
  18429573.289   -12006695.333 5  -6765463.650 4
  16954751.703   -22967807.941 6 -17698447.604 7
  17661644.961   -28402782.784 6 -21982122.687 6
 95  9 27  5 45 29.9840000  0  7 28 18 19 27  2 31 29
  19028361.797   -12282715.734 5  -9413102.690 5
  15974105.891   -25277899.750 7 -19525963.088 8
  15936180.141   -17868260.239 7 -13770676.391 8
  16944277.000   -14208130.690 7 -10899692.466 7
  18407496.836   -12122728.713 5  -6855879.258 4
  16944206.109   -23023216.029 6 -17741622.733 7
  17670362.367   -28356976.203 6 -21946429.261 6
 95  9 27  5 45 59.9840000  0  7 28 18 19 27  2 31 29
  19030134.852   -12273372.635 5  -9405822.366 5
  15976584.805   -25264868.522 7 -19515808.892 8
  15926082.703   -17921323.880 7 -13812024.685 8
  16925935.750   -14304497.103 7 -10974783.166 7
  18385461.016   -12238520.786 5  -6946106.844 5
  16933778.750   -23078021.797 6 -17784328.523 7
  17679136.500   -28310861.409 6 -21910495.676 6
 95  9 27  5 46 29.9840000  0  7 28 18 19 27  2 31 29
  19032013.805   -12263531.732 5  -9398154.131 5
  15979152.102   -25251370.039 7 -19505290.602 8
  15916021.594   -17974187.886 7 -13853217.415 8
  16907612.305   -14400780.527 7 -11049809.206 7
  18363464.867   -12354078.684 5  -7036151.946 5
  16923464.008   -23132216.793 6 -17826558.379 7
  17687976.438   -28264430.995 6 -21874316.140 6
 95  9 27  5 46 59.9840000  0  7 28 18 19 27  2 31 29
  19033979.969   -12253198.795 5  -9390102.489 5
  15981810.899   -25237407.692 7 -19494410.859 8
  15905998.195   -18026847.226 7 -13894250.667 8
  16889307.820   -14496981.689 7 -11124771.144 8
  18341520.969   -12469417.708 5  -7126026.512 5
  16913265.125   -23185808.106 6 -17868317.829 7
  17696872.195   -28217694.011 6 -21837897.731 6
 95  9 27  5 47 29.9840000  0  7 28 18 19 27  2 31 29
  19036037.094   -12242372.595 5  -9381666.502 5
  15984554.305   -25222982.147 7 -19483170.183 8
  15896019.727   -18079296.704 7 -13935120.385 8
  16871017.719   -14593093.770 7 -11199663.667 7
  18319622.141   -12584541.725 5  -7215733.528 5
  16903177.039   -23238802.802 6 -17909612.404 7
  17705819.609   -28170637.589 6 -21801230.398 6
 95  9 27  5 47 59.9840000  0  7 28 18 19 27  2 31 29
  19038191.328   -12231054.333 5  -9372847.079 5
  15987392.125   -25208085.802 7 -19471562.647 8
  15886081.508   -18131523.250 7
  16852747.531   -14689094.340 6 -11274469.299 7
  18297750.461   -12699438.243 5  -7305263.279 5
  16893210.570   -23291202.718 6
  17714837.289   -28123243.406 6 -21764299.890 6
 95  9 27  5 48 29.9840000  0  7 28 18 19 27  2 31 29
  19040437.399   -12219244.354 5  -9363644.501 5
  15990313.820   -25192727.090 7 -19459594.839 8
  15876187.649   -18183515.199 7 -14016329.600 8
  16834509.359   -14784952.709 7 -11349164.116 7
  18275932.891   -12814088.337 5  -7394601.001 5
  16883352.875   -23342995.307 6
  17723921.852   -28075516.715 6 -21727110.274 6
 95  9 27  5 48 59.9840000  0  7 28 18 19 27  2 31 29
  19042775.406   -12206953.894 5  -9354067.512 5
  15993322.109   -25176923.428 7 -19447280.306 8
  15866333.500   -18235296.451 7 -14056678.614 8
  16816293.484   -14880665.828 6 -11423745.765 7
  18254165.953   -12928491.939 5  -7483746.653 5
  16873614.024   -23394195.624 6 -17996298.197 6
  17733066.305   -28027471.919 6 -21689672.788 6
 95  9 27  5 49 29.9840000  0  7 28 18 19 27  2 31 29
  19045208.750   -12194178.498 5  -9344112.659 5
  15996415.680   -25160662.915 7 -19434609.794 8
  15856518.063   -18286877.050 7 -14096871.287 8
  16798106.258   -14976233.193 6 -11498213.844 7
  18232443.836   -13042622.188 5  -7572679.305 5
  16863978.086   -23444804.677 6 -18035733.818 7
  17742274.117   -27979093.187 6 -21651975.097 6
 95  9 27  5 49 59.9840000  0  7 28 18 19 27  2 31 29
  19047733.805   -12180918.158 5  -9333779.927 5
  15999600.859   -25143932.510 7 -19421573.120 8
  15846740.820   -18338262.607 7 -14136911.985 8
  16779947.875   -15071660.095 6 -11572572.464 7
  18210778.016   -13156476.769 5  -7661397.158 5
  16854463.070   -23494820.958 6 -18074707.536 7
  17751539.274   -27930388.096 6 -21614023.092 6
 95  9 27  5 50 29.9840000  0  7 28 18 19 27  2 31 29
  19050347.563   -12167179.894 5  -9323074.789 5
  16002868.750   -25126744.248 7 -19408179.680 8
  15836996.547   -18389467.887 7 -14176812.206 8
  16761811.320   -15166972.567 6 -11646841.908 7
  18189165.836   -13270071.267 5  -7749912.339 5
  16845059.680   -23544252.672 6 -18113225.745 7
  17760864.641   -27881393.077 6 -21575845.163 5
 95  9 27  5 50 59.9840000  0  7 28 18 19 27  2 31 29
  19053052.094   -12152954.016 5  -9311989.691 5
  16006234.453   -25109066.829 7 -19394405.066 8
  15827283.234   -18440496.151 7 -14216574.487 8
  16743695.274   -15262166.020 6 -11721018.622 7
  18167600.875   -13383406.082 5  -7838225.189 6
  16835766.672   -23593101.839 6 -18151290.030 7
  17770243.516   -27832107.712 6 -21537441.001 6
 95  9 27  5 51 29.9840000  0  7 28 18 19 27  2 31 29
  19055853.008   -12138239.408 5  -9300523.770 5
  16009693.820   -25090889.169 7 -19380240.674 8
  15817609.797   -18491336.948 7 -14256190.695 8
  16725605.844   -15357235.984 6 -11795099.111 7
  18146080.305   -13496491.077 5  -7926343.349 5
  16826575.024   -23641360.995 6 -18188894.552 7
  17779670.883   -27782542.958 6 -21498819.128 5
 95  9 27  5 51 59.9840000  0  7 28 18 19 27  2 31 29
  19058748.516   -12123042.640 5  -9288682.138 5
  16013242.664   -25072235.797 7 -19365705.588 8
  15807972.602   -18541987.664 7 -14295658.775 8
  16707538.047   -15452176.711 6 -11869078.891 7
  18124604.406   -13609340.154 6  -8014277.680 5
  16817507.906   -23689016.345 6 -18226028.591 7
  17789159.359   -27732715.529 6 -21459992.590 5
 95  9 27  5 52 29.9830000  0  7 28 18 19 27  2 31 29
  19061725.980   -12107368.972 5  -9276468.889 5
  16016877.433   -25053123.566 7 -19350812.960 8
  15798370.191   -18592440.758 7 -14334972.875 8
  16689498.308   -15546975.853 6 -11942948.349 7
  18103178.386   -13721943.714 5  -8102020.702 5
  16808558.534   -23736054.012 6 -18262681.307 7
  17798688.480   -27682619.981 6 -21420957.128 5
 95  9 27  5 52 59.9830000  0  7 28 18 19 27  2 31 29
  19064798.472   -12091217.103 5  -9263883.025 5
  16020604.011   -25033541.901 7 -19335554.525 8
  15788810.519   -18642692.468 7 -14374130.038 8
  16671489.183   -15641625.384 6 -12016701.220 7
  18081798.206   -13834303.613 6  -8189573.852 5
  16799727.987   -23782466.568 7 -18298846.923 7
  17808283.394   -27632236.321 6 -21381697.164 5
 95  9 27  5 53 29.9830000  0  7 28 18 19 27  2 31 29
  19067962.659   -12074591.888 5  -9250928.313 5
  16024418.081   -25013503.498 7 -19319940.197 8
  15779283.909   -18692728.975 7 -14413119.518 8
  16653505.191   -15736130.397 6 -12090341.485 7
  18060463.167   -13946410.233 6  -8276929.632 6
  16791014.456   -23828244.219 6 -18334517.807 7
  17817921.800   -27581563.152 6 -21342211.587 5
 95  9 27  5 53 59.9830000  0  7 28 18 19 27  2 31 29
  19071216.183   -12057493.414 5  -9237604.825 5
  16028318.370   -24993014.299 7 -19303974.599 8
  15769804.558   -18742547.060 7 -14451938.801 8
  16635548.909   -15830491.914 6 -12163869.934 7
  18039178.394   -14058253.183 6  -8364079.972 6
  16782424.933   -23873390.962 6 -18369697.076 7
  17827621.526   -27530594.874 6 -21302496.056 5
 95  9 27  5 54 29.9830000  0  7 28 18 19 27  2 31 29
  19074563.667   -12039916.965 5  -9223908.885 5
  16032301.691   -24972059.003 7 -19287645.809 8
  15760369.526   -18792146.388 7 -14490587.631 8
  16617619.362   -15924707.104 7 -12237284.350 7
  18017946.370   -14169838.614 6  -8451029.649 6
  16773949.722   -23917911.124 6 -18404388.101 7
  17837374.511   -27479332.422 6 -21262551.311 5
 95  9 27  5 54 59.9830000  0  7 28 18 19 27  2 31 29
  19077995.683   -12021878.583 5  -9209853.009 5
  16036379.636   -24950653.125 7 -19270965.907 8
  15750966.714   -18841541.726 7 -14529077.508 8
  16599714.761   -16018798.076 7 -12310601.979 8
  17996759.573   -14281178.833 6  -8537788.245 6
  16765597.472   -23961828.001 6 -18438609.035 7
  17847187.636   -27427792.923 6 -21222390.688 5
 95  9 27  5 55 29.9830000  0  7 28 18 19 27  2 31 29
  19081515.214   -12003368.426 5  -9195429.509 5
  16040535.183   -24928808.731 7 -19253944.307 8
  15741610.620   -18890713.939 7 -14567393.515 8
  16581832.573   -16112758.982 7 -12383818.242 7
  17975620.237   -14392251.963 6  -8624338.731 6
  16757356.097   -24005134.319 6 -18472354.215 7
  17857046.855   -27375962.783 6 -21182003.566 6
 95  9 27  5 55 59.9830000  0  7 28 18 19 27  2 31 29
  19085126.480   -11984396.150 5  -9180645.908 5
  16044773.776   -24906539.628 7 -19236591.756 8
  15732293.714   -18939683.439 7 -14605551.557 8
  16563978.526   -16206591.106 7 -12456934.179 7
  17954533.073   -14503061.193 6  -8710683.573 6
  16749226.355   -24047837.975 6 -18505629.789 7
  17866965.433   -27323841.964 6 -21141389.965 6
 95  9 27  5 56 29.9830000  0  7 28 18 19 27  2 31 29
  19088827.878   -11964960.997 5  -9165501.631 4
  16049093.206   -24883839.649 7 -19218903.473 8
  15723017.191   -18988441.775 7 -14643545.065 8
  16546146.847   -16300291.848 7 -12529947.730 7
  17933500.347   -14613599.302 6  -8796817.165 6
  16741219.831   -24089932.717 6 -18538430.893 7
  17876939.441   -27271420.219 6 -21100541.863 6
 95  9 27  5 56 59.9830000  0  7 28 18 19 27  2 31 29
  19092613.019   -11945070.544 5  -9150002.584 4
  16053492.050   -24860707.376 7 -19200878.321 8
  15713777.980   -19036977.237 7 -14681364.902 8
  16528340.917   -16393867.205 7 -12602863.599 7
  17912520.120   -14723858.177 6  -8882733.165 6
  16733317.612   -24131425.501 6 -18570762.938 7
  17886970.542   -27218702.570 6 -21059463.197 6
 95  9 27  5 57 29.9830000  0  7 28 18 19 27  2 31 29
  19096488.573   -11924718.887 5  -9134144.136 4
  16057986.081   -24837118.295 7 -19182497.231 8
  15704585.698   -19085285.894 7 -14719008.018 8
  16510562.808   -16487306.842 6 -12675673.702 7
  17891588.011   -14833839.444 6  -8968432.849 6
  16725542.636   -24172304.028 6 -18602616.322 7
  17897059.222   -27165694.804 6 -21018158.461 5
 95  9 27  5 57 59.9830000  0  7 28 18 19 27  2 31 29
  19100441.909   -11903914.745 5  -9117933.118 4
  16062566.050   -24813055.416 7 -19163746.947 8
  15695431.941   -19133386.789 7 -14756489.238 8
  16492804.987   -16580612.379 6 -12748379.311 7
  17870709.816   -14943563.890 6  -9053932.413 6
  16717875.542   -24212570.875 6 -18633993.082 7
  17907195.401   -27112419.679 6 -20976645.392 6
 95  9 27  5 58 29.9830000  0  7 28 18 19 27  2 31 29
  19104491.269   -11882659.992 5  -9101370.981 5
  16067231.831   -24788516.732 7 -19144625.911 8
  15686320.901   -19181260.896 7 -14793793.740 8
  16475071.284   -16673789.805 6 -12820985.084 8
  17849874.675   -15053048.102 6  -9139244.773 6
  16710333.230   -24252230.158 6 -18664896.407 7
  17917380.394   -27058894.111 5 -20934937.176 5
 95  9 27  5 58 59.9830000  0  7 28 18 19 27  2 31 29
  19108620.316   -11860952.263 5  -9084455.866 5
  16071994.628   -24763501.259 7 -19125133.352 8
  15677254.956   -19228911.522 7 -14830924.096 8
  16457368.862   -16766832.533 6 -12893485.912 7
  17829082.761   -15162299.654 6  -9224375.839 6
  16702903.495   -24291275.319 6 -18695321.198 7
  17927609.331   -27005124.136 5 -20893038.506 5
 95  9 27  5 59 29.9830000  0  8 28 18 19 27  2 31 16 29
  19112834.011   -11838787.252 5  -9067184.425 4
  16076839.956   -24738016.585 7 -19105275.174 8
  15668229.292   -19276350.958 7 -14867889.895 8
  16439690.683   -16859731.224 6 -12965874.498 8
  17808341.737   -15271313.557 6  -9309321.726 6
  16695592.425   -24329699.279 6 -18725261.941 7
  18908764.964      -63487.674 2
  17937894.089   -26951102.112 6 -20850943.444 5
 95  9 27  5 59 59.9830000  0  8 28 18 19 27  2 31 16 29
  19117140.198   -11816174.090 5  -9049563.796 4
  16081773.847   -24712102.027 7 -19085082.028 8
  15659239.534   -19323581.108 7 -14904692.604 8
  16422040.151   -16952492.765 6 -13038156.213 8
  17787641.675   -15380092.801 6  -9394084.762 6
  16688394.644   -24367514.215 6 -18754728.108 7
  18896788.089     -126420.158 2
  17948220.034   -26896828.372 5 -20808652.232 5
 95  9 27  6  0 29.9830000  0  7 28 18 19 27  2 31 29
  19121525.573   -11793119.176 4  -9031598.936 4
  16086782.597   -24685776.392 7 -19064568.556 8
  15650289.862   -19370604.969 7 -14941334.575 8
  16404411.409   -17045125.569 6 -13110337.604 8
  17766987.066   -15488635.215 6  -9478663.250 6
  16681316.808   -24404726.606 6 -18783724.774 7
  17958598.222   -26842295.793 5 -20766159.321 5
 95  9 27  6  0 59.9830000  0  7 28 18 19 27  2 31 29
  19125998.269   -11769617.776 4  -9013286.150 4
  16091874.534   -24659032.194 7 -19043728.936 8
  15641381.441   -19417439.843 7 -14977829.287 8
  16386807.909   -17137621.517 6 -13182412.369 8
  17746382.214   -15596914.555 6  -9563036.747 5
  16674348.737   -24441330.376 6 -18812247.189 7
  17969028.722   -26787495.015 6 -20723457.432 5
 95  9 27  6  1 29.9830000  0  7 28 18 19 27  2 31 29
  19130550.433   -11745672.088 4  -8994627.184 5
  16097041.011   -24631873.873 7 -19022566.603 8
  15632504.941   -19464083.517 7 -15014175.010 8
  16369232.464   -17229984.616 6 -13254383.612 8
  17725824.628   -15704920.312 6  -9647197.072 5
  16667502.245   -24477323.954 6 -18840294.139 7
  17979503.112   -26732423.979 6 -20680544.943 5
 95  9 27  6  1 59.9830000  0  7 28 18 19 27  2 31 29
  19135197.597   -11721286.403 4  -8975625.383 5
  16102287.956   -24604294.431 7 -19001076.137 8
  15623666.558   -19510527.271 7 -15050364.950 8
  16351682.886   -17322216.512 6 -13326252.607 8
  17705327.339   -15812655.184 6  -9731146.309 5
  16660764.980   -24512711.199 6 -18867868.604 7
  17990038.964   -26677077.076 6 -20637417.524 5
 95  9 27  6  2 29.9830000  0  7 28 18 19 27  2 31 29
  19139918.347   -11696460.370 4  -8956280.429 5
  16107620.558   -24576268.856 7 -18979238.038 8
  15614866.698   -19556765.559 7 -15086394.780 8
  16334156.175   -17414309.874 6 -13398013.651 8
  17684879.550   -15920112.948 6  -9814879.614 5
  16654146.605   -24547486.240 6 -18894966.041 7
  18000624.347   -26621445.505 6 -20594068.270 5
 95  9 27  6  2 59.9830000  0  7 28 18 19 27  2 31 29
  19144728.831   -11671195.053 4  -8936593.185 5
  16113043.144   -24547791.928 7 -18957048.226 8
  15606108.323   -19602791.789 7 -15122259.372 8
  16316660.097   -17506257.266 6 -13469660.966 8
  17664486.284   -16027284.337 6  -9898389.774 5
  16647646.761   -24581651.851 6 -18921588.584 7
  18011265.151   -26565538.315 6 -20550504.245 5
 95  9 27  6  3 29.9830000  0  7 28 18 19 27  2 31 29
  19149616.183   -11645493.235 3  -8916565.792 5
  16118544.612   -24518869.535 7 -18934511.305 8
  15597393.237   -19648593.526 7 -15157949.037 8
  16299192.316   -17598047.421 6 -13541185.758 7
  17644141.784   -16134170.217 6  -9981677.455 5
  16641264.722   -24615202.284 6 -18947731.762 6
  18021958.097   -26509356.342 6 -20506726.107 5
 95  9 27  6  3 59.9830000  0  7 28 18 19 27  2 31 29
  19154595.042   -11619358.316 4  -8896200.930 5
  16124133.058   -24489505.234 7 -18911630.031 8
  15588717.487   -19694170.742 7 -15193463.748 8
  16281756.855   -17689669.428 6 -13612579.536 7
  17623858.409   -16240769.376 6 -10064741.724 5
  16634995.675   -24648138.043 6 -18973395.997 6
  18032698.206   -26452902.962 5 -20462736.476 5
 95  9 27  6  4 29.9830000  0  7 28 18 19 27  2 31 29
  19159646.026   -11592799.800 4  -8875506.016 4
  16129799.870   -24459716.087 7 -18888417.736 8
  15580086.066   -19739531.963 7 -15228810.157 8
  16264351.151   -17781130.375 6 -13683847.818 7
  17603627.808   -16347092.445 6 -10147590.853 5
  16628842.456   -24680458.778 7 -18998580.970 6
  18043484.784   -26396213.260 5 -20418562.711 5
 95  9 27  6  4 59.9830000  0  7 28 18 19 27  2 31 29
  19164780.175   -11565807.567 3  -8854473.103 4
  16135552.644   -24429498.362 7 -18864871.466 8
  15571495.823   -19784676.057 7 -15263987.376 8
  16246982.081   -17872423.636 6 -13754985.413 7
  17583448.566   -16453131.186 6 -10230218.426 5
  16622813.136   -24712161.305 7 -19023284.228 6
  18054313.550   -26339296.627 5 -20374212.087 5
 95  9 27  6  5 29.9830000  0  7 28 18 19 27  2 31 29
  19169996.550   -11538388.671 4  -8833107.731 4
  16141380.862   -24398870.050 7 -18841005.253 8
  15562944.066   -19829612.009 7 -15299002.400 8
  16229638.386   -17963558.298 6 -13825999.438 7
  17563321.526   -16558901.692 6 -10312637.000 5
  16616894.683   -24743245.913 6 -19047505.999 6
  18065188.870   -26282147.930 5 -20329680.674 5
 95  9 27  6  5 59.9830000  0  7 28 18 19 27  2 31 29
  19175296.589   -11510545.856 4  -8811412.040 4
  16147285.167   -24367832.940 7 -18816820.507 8
  15554436.487   -19874339.170 7 -15333854.734 8
  16212322.589   -18054552.617 6 -13896904.095 7
  17543235.675   -16664431.975 6 -10394868.378 6
  16611098.276   -24773715.473 7 -19071248.497 6
  18076107.839   -26224770.466 5 -20284970.974 5
 95  9 27  6  6 29.9830000  0  7 28 18 19 27  2 31 29
  19180676.800   -11482281.133 5  -8789387.596 4
  16153267.511   -24336383.731 7 -18792314.635 8
  15545959.222   -19918863.504 7 -15368549.016 8
  16195029.480   -18145423.786 7 -13967712.797 8
  17523201.995   -16769734.081 6 -10476921.952 6
  16605416.401   -24803579.742 7 -19094519.359 7
  18087066.737   -26167166.036 5 -20240084.427 5
 95  9 27  6  6 59.9830000  0  7 28 18 19 27  2 31 29
  19186136.011   -11453600.421 5  -8767038.987 4
  16159331.776   -24304533.345 7 -18767496.159 8
  15537526.487   -19963194.814 7 -15403092.896 8
  16177763.691   -18236169.691 7 -14038423.869 8
  17503202.441   -16874810.566 6 -10558799.722 6
  16599846.823   -24832842.931 7 -19117321.840 6
  18098078.862   -26109315.605 5 -20195006.175 5
 95  9 27  6  7 29.9830000  0  8 28 18 19 27  2 31 16 29
  19191673.519   -11424500.119 5  -8744363.429 3
  16165470.433   -24272275.367 7 -18742360.088 8
  15529127.589   -20007308.444 7 -15437467.152 8
  16160520.409   -18326770.145 7 -14109021.622 8
  17483250.191   -16979657.701 6 -10640498.766 6
  16594395.628   -24861482.909 7 -19139638.707 7
  18729005.691          -0.33613
  18109140.433   -26051205.626 5 -20149725.697 5
 95  9 27  6  7 59.9830000  0  8 28 18 19 27  2 31 16 29
  19197294.191   -11394989.630 5  -8721368.246 3
  16171681.441   -24239608.701 6 -18716905.551 8
  15520777.394   -20051203.160 7 -15471670.820 8
  16143308.401   -18417224.474 7 -14179505.508 8
  17463344.722   -17084274.765 5 -10722018.546 6
  16589065.362   -24889508.964 7 -19161477.181 7
  18718625.394      -54526.951 3        -0.07611
  18120231.214   -25992866.764 5 -20104266.848 5
 95  9 27  6  8 29.9830000  0  8 28 18 19 27  2 31 16 29
  19202986.066   -11365067.082 5  -8698051.948 2
  16177982.191   -24206531.875 7 -18691131.408 8
  15512466.034   -20094878.869 7 -15505703.839 8
  16126130.737   -18507502.906 7 -14249852.331 8
  17443483.917   -17188628.215 5 -10803332.920 6
  16583846.284   -24916926.301 7 -19182841.329 7
  18708352.769     -108534.090 3
  18131385.230   -25934302.355 5 -20058632.253 5
 95  9 27  6  8 59.9830000  0  8 28 18 19 27  2 31 16 29
  19208754.292   -11334730.479 5  -8674413.047 2
  16184353.276   -24173038.330 7 -18665032.547 8
  15504203.191   -20138318.016 7 -15539552.530 8
  16108985.566   -18597591.627 7 -14320051.325 8
  17423686.042   -17292696.186 5 -10884424.836 6
  16578745.941   -24943718.420 6 -19203718.309 7
  18698172.050     -162034.936 4
  18142569.792   -25875514.016 5 -20012823.168 5
 95  9 27  6  9 29.9830000  0  8 28 18 19 27  2 31 16 29
  19214604.378   -11303993.599 5  -8650462.224 2
  16190804.480   -24139129.773 7 -18638610.302 8
  15495978.847   -20181525.272 7 -15573220.520 8
  16091875.198   -18687509.391 7 -14390117.108 8
  17403933.347   -17396478.826 6 -10965294.432 6
  16573761.214   -24969901.819 6 -19224120.958 7
  18688085.191     -215031.721 4
  18153798.441   -25816530.246 5 -19966861.820 5
 95  9 27  6  9 59.9830000  0  8 28 18 19 27  2 31 16 29
  19220530.769   -11272852.726 5  -8626196.624 1
  16197339.175   -24104804.668 7 -18611863.477 8
  15487800.089   -20224505.559 7 -15606711.647 8
  16074792.386   -18777268.046 7 -14460058.925 8
  17384241.581   -17499965.750 6 -11045933.593 6
  16568897.925   -24995482.656 7 -19244054.072 7
  18678097.667     -267525.245 4
  18165056.972   -25757339.079 5 -19920738.854 5
 95  9 27  6 10 29.9830000  0  8 28 18 19 27  2 31 16 29
  19226532.894   -11241305.955 4  -8601614.720 2
  16203950.769   -24070050.698 7 -18584782.474 8
  15479665.472   -20267254.700 7 -15640022.668 8
  16057743.972   -18866879.643 7 -14529886.151 8
  17364607.081   -17603145.365 6 -11126333.280 6
  16564146.292   -25020450.854 6 -19263509.820 7
  18668206.433     -319508.227 4
  18176361.831   -25697923.074 5 -19874440.696 5
 95  9 27  6 10 59.9830000  0  8 28 18 19 27  2 31 16 29
  19232607.823   -11209365.236 4  -8576725.810 2
  16210646.901   -24034880.761 7 -18557377.354 7
  15471573.394   -20309780.972 7 -15673160.022 8
  16040714.659   -18956372.415 7 -14599620.778 8
  17345025.448   -17706031.689 6 -11206504.437 6
  16559511.394   -25044807.717 6 -19282489.177 7
  18658410.730     -370977.618 5
  18187711.144   -25638294.789 5 -19827977.115 4
 95  9 27  6 11 29.9830000  0  8 28 18 19 27  2 31 16 29
  19238761.659   -11177028.081 4  -8551528.024 2
  16217414.355   -23999300.994 7 -18529652.862 7
  15463519.433   -20352086.539 7 -15706125.392 8
  16023706.581   -19045742.578 7 -14669259.858 8
  17325503.581   -17808627.559 6 -11286449.256 6
  16554994.941   -25068551.906 7 -19300991.147 7
  18648722.362     -421913.908 5
  18199104.284   -25578444.455 5 -19781340.524 5
 95  9 27  6 11 59.9820000  0  8 28 18 19 27  2 31 16 29
  19244989.772   -11144290.240 4  -8526017.995 2
  16224263.740   -23963312.280 7 -18501609.730 7
  15455514.342   -20394161.761 7 -15738911.284 8
  16006724.678   -19134977.086 7 -14738793.241 8
  17306036.147   -17910931.765 6 -11366166.809 6
  16550590.873   -25091667.513 6 -19319003.305 7
  18639125.506     -472312.129 4
  18210535.365   -25518365.007 5 -19734525.379 4
 95  9 27  6 12 29.9820000  0  8 28 18 19 27  2 31 16 29
  19251298.756   -11111156.682 4  -8500199.633 2
  16231188.397   -23926923.169 7 -18473254.589 7
  15447549.873   -20436018.603 7 -15771526.997 8
  15989773.248   -19224064.864 7 -14808212.273 8
  17286627.264   -18012959.121 6 -11445668.629 6
  16546316.225   -25114155.664 6 -19336526.525 7
  18629643.233     -522172.939 3
  18222002.936   -25458072.146 5 -19687543.951 5
 95  9 27  6 12 59.9820000  0  8 28 18 19 27  2 31 16 29
  19257682.381   -11077632.671 4  -8474077.015 1
  16238186.701   -23890155.702 7 -18444604.625 7
  15439623.006   -20477661.232 7 -15803975.801 8
  15972853.342   -19312980.299 7 -14877497.021 8
  17267252.092   -18114728.286 6 -11524969.264 6
  16542158.381   -25136017.464 6 -19353561.687 7
  18620262.779     -571496.571 3
  18233520.451   -25397566.636 5 -19640396.820 5
 95  9 27  6 13 29.9820000  0  8 28 18 19 27  2 31 16 29
  19264136.748   -11043719.592 4  -8447651.214 2
  16245258.522   -23853005.579 7 -18415656.493 7
  15431744.428   -20519085.421 7 -15836254.400 8
  15955966.326   -19401710.790 7 -14946637.665 8
  17247933.834   -18216254.552 6 -11604080.626 6
  16538116.881   -25157248.935 6 -19370105.689 7
  18610964.279     -620292.574 3
  18245077.389   -25336839.642 5 -19593077.113 5
 95  9 27  6 13 59.9820000  0  8 28 18 19 27  2 31 16 29
  19270663.076   -11009415.890 4  -8420921.082 1
  16252399.381   -23815463.753 7 -18386403.130 7
  15423902.686   -20560289.650 7 -15868361.591 8
  15939119.584   -19490247.008 7 -15015626.915 8
  17228660.709   -18317548.349 6 -11683010.836 6
  16534189.436   -25177855.850 6 -19386163.027 7
  18601781.873     -668549.688 3
  18256680.943   -25275899.624 5 -19545591.404 5
 95  9 27  6 14 29.9820000  0  8 28 18 19 27  2 31 16 29
  19277265.592   -10974717.084 4  -8393883.031 3
  16259620.467   -23777524.408 7 -18356840.018 7
  15416103.545   -20601264.634 7 -15900290.149 8
  15922307.920   -19578588.582 7 -15084464.486 8
  17209428.240   -18418609.317 5 -11761759.629 6
  16530386.295   -25197846.260 6 -19401739.968 7
  18592704.014     -716255.336 2        -0.16011
  18268313.295   -25214735.009 5 -19497930.685 5
 95  9 27  6 14 59.9820000  0  8 28 18 19 27  2 31 16 29
  19283941.920   -10939631.712 3  -8366543.780 1
  16266915.233   -23739180.091 7 -18326961.335 7
  15408348.498   -20642010.471 7 -15932040.149 8
  15905528.475   -19666765.430 7 -15153173.716 8
  17190238.037   -18519439.346 5 -11840328.475 5
  16526699.678   -25217238.669 6 -19416850.941 7
  18583731.608     -763421.575 3    -36753.090 2
  18279988.881   -25153346.316 5 -19450095.336 5
 95  9 27  6 15 29.9820000  0  8 28 18 19 27  2 31 16 29
  19290690.647   -10904171.072 4  -8338912.076 2
  16274287.381   -23700435.214 7 -18296770.519 7
  15400640.701   -20682534.762 7 -15963617.516 8
  15888774.998   -19754804.991 7 -15221775.976 8
  17171098.014   -18620035.661 5 -11918715.181 6
  16523122.084   -25236050.745 7 -19431509.687 7
  18574854.397     -810060.571 3    -73095.177 3
  18291716.850   -25091750.784 5 -19402098.825 5
 95  9 27  6 15 59.9820000  0  8 28 18 19 27  2 31 16 29
  19297508.842   -10868329.577 4  -8310983.625 1
  16281737.748   -23661291.330 7 -18266268.800 7
  15392972.654   -20722826.218 7 -15995013.451 8
  15872049.264   -19842711.211 7 -15290274.326 8
  17152004.826   -18720380.067 5 -11996905.605 5
  16519645.475   -25254291.262 6 -19445723.085 7
  18566089.287     -856157.972 4   -109015.229 2
  18303472.725   -25029950.604 5 -19353942.849 5
 95  9 27  6 16 29.9820000  0  8 28 18 19 27  2 31 16 29
  19304399.123   -10832120.986 4  -8282769.141 2
  16289255.459   -23621764.118 6 -18235468.407 7
  15385344.623   -20762895.288 7 -16026236.098 8
  15855344.795   -19930493.983 7 -15358676.490 8
  17132960.233   -18820467.659 5 -12074895.920 5
  16516287.990   -25271961.521 7 -19459492.103 7
  18557413.459     -901746.130 3   -144538.492 3
  18315270.873   -24967953.770 5 -19305633.642 5
 95  9 27  6 16 59.9820000  0  8 28 18 19 27  2 31 16 29
  19311360.045   -10795540.877 3  -8254265.133 1
  16296851.420   -23581854.812 6 -18204370.247 7
  15377767.100   -20802737.098 7 -16057281.667 8
  15838669.389   -20018127.310 7 -15426962.199 8
  17113964.092   -18920275.557 5 -12152668.282 5
  16513033.061   -25289043.634 7 -19472802.840 7
  18548831.881     -946827.783 3   -179667.034 3
  18327109.584   -24905775.569 5 -19257183.113 5
 95  9 27  6 17 29.9820000  0  8 28 18 19 27  2 31 16 29
  19318390.615   -10758592.119 3  -8225473.892 2
  16304514.670   -23541593.097 6 -18172997.495 7
  15370226.670   -20842356.605 7 -16088154.010 8
  15822024.123   -20105588.055 7 -15495113.423 8
  17095024.975   -19019803.630 5 -12230222.608 5
  16509901.201   -25305520.647 7 -19485642.083 7
  18540350.912     -991394.157 3   -214394.093 3
  18338967.873   -24843429.970 5 -19208602.136 4
 95  9 27  6 17 59.9820000  0  8 28 18 19 27  2 31 16 29
  19325496.443   -10721278.016 4  -8196397.987 1
  16312244.514   -23500981.225 7 -18141351.887 7
  15362727.600   -20881763.615 7 -16118860.770 8
  15805413.514   -20192864.344 7 -15563120.921 8
  17076144.889   -19119046.626 5 -12307554.787 5
  16506880.264   -25321395.214 7 -19498011.872 7
  18531963.443    -1035455.521 4   -248727.657 4
  18350864.576   -24780925.892 5 -19159897.667 2
 95  9 27  6 18 29.9820000  0  8 28 18 19 27  2 31 16 29
  19332657.670   -10683607.362 3  -8167044.205 2
  16320033.553   -23460029.585 7 -18109441.538 6
  15355269.147   -20920971.857 7 -16149412.653 8
  15788841.764   -20279947.551 7 -15630977.960 8
  17057310.686   -19218003.035 5 -12384663.656 5
  16503972.443   -25336659.927 7 -19509906.455 7
  18523676.436    -1079027.000 4   -282679.482 3
  18362788.029   -24718266.462 5 -19111072.160 3
 95  9 27  6 18 59.9820000  0  8 28 18 19 27  2 31 16 29
  19339901.537   -10645572.582 3  -8137406.699 1
  16327891.920   -23418731.263 7 -18077261.043 6
  15347846.592   -20959966.048 7 -16179797.736 8
  15772309.756   -20366831.127 7 -15698679.452 8
  17038533.686   -19316667.165 5 -12461544.762 5
  16501183.412   -25351311.978 7 -19521323.633 7
  18515483.373    -1122094.456 4   -316238.565 3
  18374741.834   -24655434.863 5 -19062112.511 3
 95  9 27  6 19 29.9820000  0  8 28 18 19 27  2 31 16 29
  19347201.490   -10607175.655 3  -8107486.976 1
  16335822.045   -23377072.310 7 -18044799.539 7
  15340467.522   -20998739.593 7 -16210010.897 8
  15755813.412   -20453531.988 7 -15766238.552 8
  17019813.154   -19415050.057 5 -12538206.740 5
  16498510.584   -25365355.100 7 -19532266.325 7
  18507379.975    -1164651.323 3   -349399.762 4
  18386738.615   -24592403.394 5 -19012997.058 2
 95  9 27  6 19 59.9820000  0  8 28 18 19 27  2 31 16 29
  19354578.693   -10568422.285 3  -8077289.561 1
  16343822.115   -23335024.281 6 -18012034.853 6
  15333132.639   -21037286.140 7 -16240047.164 8
  15739345.498   -20540070.776 7 -15833671.367 8
  17001143.397   -19513158.658 5 -12614654.973 5
  16495950.928   -25378809.458 7 -19542750.238 7
  18499387.154    -1206705.025 3   -382168.893 4
  18398776.084   -24529163.777 5 -18963719.478 2
 95  9 27  6 20 29.9820000  0  8 28 18 19 27  2 31 16 29
  19362024.740   -10529299.053 3  -8046803.875 1
  16351902.076   -23292571.478 6 -17978954.780 6
  15325848.826   -21075575.148 7 -16269882.759 8
  15722907.529   -20626432.797 7 -15900966.444 8
  16982524.686   -19610985.925 5 -12690883.983 6
  16493507.795   -25391654.554 7 -19552759.406 7
  18491483.217    -1248229.055 3   -414525.285 3
  18410846.022   -24465703.929 5 -18914270.258 2
 95  9 27  6 20 59.9820000  0  8 28 18 19 27  2 31 16 29
  19369532.818   -10489811.774 3  -8016034.566 1
  16360056.678   -23249712.316 6 -17945558.029 6
  15318608.998   -21113603.008 7 -16299514.857 8
  15706506.662   -20712629.495 7 -15968132.709 8
  16963962.545   -19708541.587 5 -12766901.369 6
  16491182.076   -25403891.836 7 -19562294.955 7
  18483677.193    -1289221.454 3   -446467.442 1
  18422965.092   -24402041.243 5 -18864662.989 1
 95  9 27  6 21 29.9820000  0  8 28 18 19 27  2 31 16 29
  19377124.162   -10449972.717 3  -7984991.160 1
  16368290.873   -23206456.912 6 -17911852.533 7
  15311419.904   -21151385.417 7 -16328955.697 8
  15690136.701   -20798664.745 7 -16035173.172 8
  16945454.451   -19805824.145 5 -12842705.940 6
  16488967.053   -25415532.670 7 -19571365.729 7
  18475973.467    -1329681.261 3   -477994.549 1
  18435112.522   -24338202.005 5 -18814918.136 2
 95  9 27  6 21 59.9820000  0  8 28 18 19 27  2 31 16 29
  19384762.029   -10409782.537 3  -7953674.113 1
  16376594.647   -23162821.308 6 -17877850.777 6
  15304275.029   -21188927.734 7 -16358209.458 8
  15673800.811   -20884512.640 7 -16102067.633 8
  16926991.647   -19902827.708 5 -12918293.122 6
  16486866.248   -25426576.198 7 -19579971.077 7
  18468369.897    -1369601.868 3   -509101.560 2
  18447283.592   -24274203.217 4 -18765048.961 2
 95  9 27  6 22 29.9820000  0  8 28 18 19 27  2 31 16 29
  19392476.779   -10369249.982 3  -7922090.282 1
  16384966.342   -23118830.097 6 -17843571.934 6
  15297178.936   -21226224.876 7 -16387272.160 8
  15657499.131   -20970174.231 7 -16168816.916 8
  16908585.404   -19999556.353 5 -12993666.091 6
  16484876.779   -25437019.068 7 -19588108.390 7
  18460880.865    -1408999.767 3   -539801.221 1
  18459493.858   -24210054.942 5 -18715063.307 3
 95  9 27  6 22 59.9820000  0  7 18 19 27  2 31 16 29
  16393406.670   -23074479.801 7 -17809013.268 6
  15290130.631   -21263274.492 7 -16416141.997 8
  15641232.100   -21055648.430 7 -16235420.178 8
  16890234.084   -20096002.122 5 -13068818.625 6
  16483001.912   -25446862.039 6 -19595778.238 7
  18453484.373    -1447870.193 3   -570089.910 2
  18471734.647   -24145734.699 4 -18664943.672 2
 95  9 27  6 23 29.9820000  0  7 18 19 27  2 31 16 29
  16401914.662   -23029760.294 7 -17774166.909 6
  15283126.115   -21300065.052 7 -16444809.972 8
  15625007.639   -21140912.542 7 -16301859.735 8
  16871932.897   -20192159.056 5 -13143746.100 6
  16481243.272   -25456108.243 6 -19602983.073 7
  18446201.162    -1486197.754 4   -599955.540 2
  18484010.264   -24081216.406 5 -18614669.694 1
 95  9 27  6 23 59.9820000  0  7 18 19 27  2 31 16 29
  16410489.818   -22984680.901 7 -17739040.118 6
  15276175.358   -21336599.699 7 -16473278.535 8
  15608821.365   -21225980.563 7 -16368146.498 8
  16853683.975   -20288052.206 5 -13218468.046 6
  16479592.943   -25464765.035 6 -19609728.621 7
  18438991.600    -1524007.358 4   -629417.612 1
  18496331.287   -24016504.231 5 -18564244.642 2
 95  9 27  6 24 29.9820000  0  7 18 19 27  2 31 16 29
  16419138.873   -22939249.941 7 -17703639.384 6
  15269268.842   -21372897.169 7 -16501562.279 8
  15592665.483   -21310880.193 7 -16434302.030 8
  16835483.553   -20383692.186 5 -13292992.714 6
  16478057.272   -25472837.757 6 -19616019.057 7
  18431897.975    -1561322.317 4   -658494.196 2
  18508683.779   -23951604.984 5 -18513673.808 4
 95  9 27  6 24 59.9820000  0  7 18 19 27  2 31 16 29
  16427842.420   -22893475.574 6 -17667971.053 6
  15262400.764   -21408974.775 7 -16529674.691 8
  15576543.654   -21395594.958 7 -16500313.520 8
  16817338.834   -20479073.742 5 -13367316.004 6
  16476636.576   -25480317.680 6 -19621847.577 7
  18424889.225    -1598127.537 4   -687173.626 1
  18521063.459   -23886514.530 5 -18462954.016 2
 95  9 27  6 25 29.9820000  0  7 18 19 27  2 31 16 29
  16436624.897   -22847366.295 7 -17632041.770 6
  15255576.225   -21444840.695 7 -16557622.158 8
  15560457.490   -21480132.958 7 -16566187.279 8
  16799235.092   -20574192.326 5 -13441434.376 6
  16475327.029   -25487208.864 6 -19627217.342 7
  18417986.912    -1634436.912 5   -715466.632 1
  18533484.248   -23821254.319 4 -18412101.931 4
 95  9 27  6 25 59.9820000  0  7 18 19 27  2 31 16 29
  16445462.092   -22800922.856 7 -17595852.098 6
  15248796.186   -21480487.399 7
  15544400.772   -21564511.384 7 -16631936.698 8
  16781185.342   -20669041.726 5 -13515342.988 6
  16474130.459   -25493497.167 6 -19632117.311 7
  18411168.545    -1670260.933 4
  18545932.209   -23755834.603 5 -18361125.518 4
 95  9 27  6 26 29.9820000  0  7 18 19 27  2 31 16 29
  16454360.733   -22754148.738 6 -17559404.741 6
  15242056.108   -21515897.547 7 -16612991.131 8
  15528376.897   -21648714.716 7 -16697549.702 8
  16763190.897   -20763605.020 5 -13589028.669 6
  16473044.061   -25499174.464 6 -19636541.189 7
  18404444.889    -1705585.255 4   -770906.908 2
  18558408.014   -23690251.466 3 -18310021.770 3
 95  9 27  6 26 59.9820000  0  7 18 19 27  2 31 16 29
  16463323.623   -22707040.591 6 -17522697.114 6
  15235362.459   -21551067.245 7 -16640396.086 8
  15512387.154   -21732743.335 7 -16763026.543 8
  16745246.022   -20857897.335 5 -13662503.195 6
  16472082.717   -25504269.203 6 -19640511.126 7
  18397821.850    -1740411.281 3   -798044.059 2
  18570915.404   -23624529.077 4 -18258809.553 3
 95  9 27  6 27 29.9820000  0  7 18 19 27  2 31 16 29
  16472357.420   -22659576.671 6 -17485712.253 6
  15228720.436   -21585984.994 7 -16667604.723 8
  15496431.209   -21816591.976 7 -16828363.152 9
  16727356.834   -20951927.909 5 -13735773.761 6
  16471213.779   -25508791.319 6 -19644034.849 7
  18391290.983    -1774736.971 3   -824791.387 3
  18583444.217   -23558681.733 3 -18207499.972 2
 95  9 27  6 27 59.9820000  0  7 18 19 27  2 31 16 29
  16481452.865   -22611766.428 6 -17448457.540 6
  15222121.584   -21620655.085 7 -16694620.389 7
  15480512.428   -21900244.239 7 -16893546.737 9
  16709509.264   -21045717.250 5 -13808856.343 6
  16470462.365   -25512746.929 6 -19647117.149 7
  18384845.858    -1808558.936 3   -851146.168 3
  18596000.178   -23492719.573 3 -18156100.897 2
 95  9 27  6 28 29.9820000  0  7 18 19 27  2 31 16 29
  16490618.272   -22563609.267 6 -17410932.482 6
  15215566.022   -21655093.663 7 -16721455.651 8
  15464636.975   -21983669.201 7 -16958553.196 9
  16691707.326   -21139254.641 5 -13881742.597 6
  16469817.998   -25516140.214 6 -19649761.258 7
  18378507.889    -1841862.661 3   -877097.150 4
  18608576.936   -23426632.425 3 -18104604.467 2
 95  9 27  6 28 59.9820000  0  7 18 19 27  2 31 16 29
  16499848.514   -22515102.706 6 -17373135.174 6
  15209052.436   -21689317.095 7 -16748123.259 8
  15448804.506   -22066876.114 7 -17023389.741 9
  16673954.858   -21232535.075 5 -13954428.621 6
  16469278.233   -25518976.118 6 -19651971.063 7
  18372278.256    -1874655.328 3   -902649.893 3
  18621175.647   -23360422.208 3 -18053012.091 2
 95  9 27  6 29 29.9820000  0  7 18 19 27  2 31 16 29
  16509143.740   -22466259.433 6 -17335075.498 6
  15202586.123   -21723306.487 7 -16774608.502 8
  15433010.201   -22149864.567 7 -17088056.059 9
  16656257.326   -21325529.915 5 -14026892.101 5
  16468852.803   -25521224.074 7 -19653722.715 7
  18366129.272    -1906926.994 4   -927796.700 2
  18633805.483   -23294069.633 3 -18001308.817 2
 95  9 27  6 29 59.9820000  0  7 18 19 27  2 31 16 29
  16518493.756   -22417106.876 6 -17296774.816 6
  15196163.318   -21757069.459 7 -16800917.308 8
  15417254.154   -22232660.540 7 -17152572.397 9
  16638617.381   -21418235.133 5 -14099129.899 5
  16468536.428   -25522883.714 7 -19655015.939 7
  18360076.740    -1938703.355 4   -952557.494 2
  18646458.850   -23227564.664 3 -17949486.736 1
 95  9 27  6 30 29.9820000  0  7 18 19 27  2 31 16 29
  16527908.990   -22367650.407 6 -17258237.322 6
  15189782.631   -21790596.873 7 -16827042.566 8
  15401530.350   -22315283.804 7 -17216954.149 9
  16621033.522   -21510641.287 5 -14171134.678 5
  16468331.147   -25523950.968 7 -19655847.572 7
  18354132.639    -1969993.461 4   -976939.432 3
  18659141.115   -23160907.145 3 -17897545.871 2
 95  9 27  6 30 59.9810000  0  7 18 19 27  2 31 16 29
  16537380.196   -22317876.433 6 -17219452.440 6
  15183456.923   -21823844.916 7 -16852950.135 8
  15385842.423   -22397736.431 7 -17281202.954 9
  16603507.790   -21602755.102 5 -14242911.660 5
  16468246.517   -25524407.516 7
  18348272.712    -2000780.646 5  -1000929.454 1
  18671849.860   -23094096.240 3 -17845485.412 3
 95  9 27  6 31 29.9810000  0  7 18 19 27  2 31 16 29
  16546913.118   -22267782.317 6 -17180418.081 6
  15177182.657   -21856809.588 7 -16878636.897 8
  15370184.587   -22480016.893 7 -17345317.593 9
  16586029.853   -21694602.292 5 -14314480.876 5
  16468275.618   -25524252.278 7
  18342510.556    -2031066.045 5  -1024528.488 2
  18684600.743   -23027125.619 3 -17793300.510 3
 95  9 27  6 31 59.9810000  0  7 18 19 27  2 31 16 29
  16556511.025   -22217339.113 6 -17141111.702 6
  15170961.462   -21889493.804 7 -16904105.121 8
  15354564.392   -22562102.912 7 -17409280.722 8
  16568602.853   -21786181.202 5 -14385841.039 5
  16468425.525   -25523496.938 7 -19655493.768 6
  18336845.212    -2060847.874 5  -1047735.136 1
  18697377.993   -22959991.296 4 -17740988.061 2
 95  9 27  6 32 29.9810000  0  7 18 19 27  2 31 16 29
  16566179.314   -22166535.471 6 -17101524.457 6
  15164796.407   -21921895.110 7 -16929352.896 8
  15338986.884   -22643976.226 7 -17473078.111 8
  16551224.181   -21877493.245 5 -14456993.265 6
  16468676.775   -25522159.128 7 -19654451.308 6
  18331267.814    -2090105.346 5  -1070533.159 1
  18710182.571   -22892711.647 3 -17688562.364 2
 95  9 27  6 32 59.9810000  0  7 18 19 27  2 31 16 29
  16575912.743   -22115381.798 6 -17061664.469 6
  15158678.337   -21954041.448 7 -16954401.996 8
  15323446.056   -22725640.792 7 -17536712.840 8
  16533896.009   -21968555.427 5 -14527950.786 5
  16469036.040   -25520268.620 7 -19652978.189 7
  18325801.782    -2118858.928 4
  18723006.126   -22825300.978 5 -17636034.615 1
 95  9 27  6 33 29.9810000  0  7 18 19 27  2 31 16 29
  16585718.095   -22063885.500 6 -17021537.496 6
  15152608.540   -21985943.847 7 -16979261.006 8
  15307945.290   -22807083.380 7 -17600174.599 8
  16516618.837   -22059340.618 5 -14598692.471 6
  16469495.618   -25517835.700 7 -19651082.400 6
  18320424.853    -2147118.699 4
  18735863.001   -22757750.832 5 -17583398.134 3
 95  9 27  6 33 59.9810000  0  7 18 19 27  2 31 16 29
  16595572.946   -22012074.845 6 -16981165.579 6
  15146580.704   -22017609.362 7 -17003935.435 8
  15292490.142   -22888313.622 7 -17663470.894 8
  16499402.095   -22149849.372 5 -14669218.763 6
  16470060.618   -25514871.905 7 -19648772.942 7
  18315138.564    -2174893.565 4
  18748742.095   -22690076.006 5 -17530664.512 2
 95  9 27  6 34 29.9810000  0  7 18 19 27  2 31 16 29
  16605485.860   -21959964.944 6 -16940560.452 6
  15140608.095   -22049015.391 7 -17028407.665 8
  15277075.103   -22969318.674 7 -17726591.715 9
  16482228.845   -22240072.506 5 -14739522.489 5
  16470732.509   -25511346.915 7 -19646026.202 7
  18309946.853    -2202167.616 5
  18761645.251   -22622264.922 4 -17477824.746 2
 95  9 27  6 34 59.9810000  0  7 18 19 27  2 31 16 29
  16615459.657   -21907571.785 6 -16899734.638 6
  15134680.321   -22080171.664 7 -17052685.289 8
  15261697.931   -23050114.367 7 -17789549.394 9
  16465111.189   -22330024.133 5 -14809614.639 5
  16471509.993   -25507252.984 7 -19642836.120 7
  18304850.696    -2228957.110 5
  18774573.298   -22554322.625 5 -17424882.736 1
 95  9 27  6 35 29.9810000  0  7 18 19 27  2 31 16 29
  16625478.642   -21854903.862 6 -16858694.724 6
  15128800.610   -22111070.523 7 -17076762.328 8
  15246366.189   -23130697.563 7 -17852341.489 9
  16448049.360   -22419703.358 5 -14879494.530 5
  16472396.009   -25502572.725 6 -19639189.162 7
  18299847.923    -2255253.409 5
  18787530.071   -22486255.355 5 -17371843.329 1
 95  9 27  6 35 59.9810000  0  7 18 19 27  2 31 16 29
  16635558.337   -21801948.781 6 -16817431.040 6
  15122967.087   -22141714.839 7 -17100641.014 8
  15231071.282   -23211071.836 7 -17914970.787 9
  16431026.345   -22509112.915 5 -14949164.306 5
  16473407.665   -25497298.272 7 -19635079.192 6
  18294935.001    -2281059.028 5
  18800496.173   -22418083.765 3 -17318722.629 1
 95  9 27  6 36 29.9810000  0  7 18 19 27  2 31 16 29
  16645689.853   -21748694.650 6 -16775934.329 6
  15117181.290   -22172114.548 7 -17124329.109 8
  15215814.290   -23291249.559 7 -17977446.937 8
  16414066.095   -22598263.851 5 -15018632.555 5
  16474517.837   -25491452.772 7 -19630524.249 6
  18290118.337    -2306376.525 5        -0.32611
  18813491.751   -22349825.153 4 -17265534.121 1
 95  9 27  6 36 59.9810000  0  7 18 19 27  2 31 16 29
  16655885.657   -21695125.800 6 -16734192.390 6
  15111442.485   -22202275.085 7 -17147830.831 8
  15200595.642   -23371216.208 7 -18039758.609 8
  16397152.493   -22687147.399 5 -15087892.450 5
  16475735.064   -25485049.267 7 -19625534.502 6
  18285392.056    -2331202.360 5    -19345.045 1
  18826494.079   -22281473.030 5 -17212272.767 2
 95  9 27  6 37 29.9810000  0  7 18 19 27  2 31 16 29
  16666140.025   -21641242.918 6 -16692205.744 6
  15105748.720   -22232188.913 7 -17171140.315 8
  15185420.603   -23450963.054 7 -18101899.006 8
  16380293.150   -22775753.227 5 -15156935.939 5
  16477058.025   -25478100.345 6 -19620119.750 6
  18280766.970    -2355545.656 5    -38313.880 1
  18839525.962   -22213014.150 4 -17158928.142 3
 95  9 27  6 37 59.9810000  0  7 18 19 27  2 31 16 29
  16676454.392   -21587039.863 6 -16649969.609 6
  15100104.462   -22261851.709 7 -17194254.181 8
  15170286.157   -23530494.058 7 -18163871.205 8
  16363481.829   -22864077.111 5 -15225759.726 5
  16478481.071   -25470623.538 6 -19614293.663 6
  18276223.368    -2379405.318 5    -56905.817 1
  18852568.095   -22144442.220 4 -17105495.481 1
 95  9 27  6 38 29.9810000  0  7 18 19 27  2 31 16 29
  16686826.478   -21532533.035 6 -16607496.763 6
  15094513.806   -22291255.971 7 -17217166.600 8
  15155195.853   -23609792.596 7 -18225662.276 8
  16346729.384   -22952123.857 5 -15294367.566 5
  16480004.454   -25462615.440 6 -19608053.587 6
  18271772.103    -2402768.008 5    -75110.518 1
  18865646.032   -22075734.257 4 -17051956.898 2
 95  9 27  6 38 59.9810000  0  7 18 19 27  2 31 16 29
  16697252.915   -21477753.111 6 -16564811.125 6
  15088960.032   -22320416.624 7 -17239889.183 8
  15140150.376   -23688865.737 7 -18287277.704 8
  16330031.892   -23039891.993 5 -15362758.307 5
  16481631.962   -25454071.753 6 -19601396.161 6
  18267416.814    -2425668.154 5    -92954.793 1
  18878749.993   -22006893.412 5 -16998314.658 4
 95  9 27  6 39 29.9810000  0  7 18 19 27  2 31 16 29
  16707727.368   -21422694.713 6 -16521908.480 6
  15083464.884   -22349314.952 7 -17262407.359 8
  15125143.314   -23767721.605 7 -18348723.829 9
  16313376.243   -23127376.366 5 -15430927.946 5
  16483361.579   -25444973.480 6 -19594306.594 6
  18263152.798    -2448096.402 5   -110431.373 1
  18891869.876   -21937934.841 5 -16944580.722 2
 95  9 27  6 39 59.9810000  0  7 18 19 27  2 31 16 29
  16718262.009   -21367353.167 6 -16478785.220 6
  15078015.220   -22377950.985 7 -17284721.152 8
  15110178.439   -23846362.464 7 -18410002.404 8
  16296786.446   -23214584.377 5 -15498882.239 5
  16485196.759   -25435311.488 6 -19586777.778 6
  18258977.235    -2470043.406 5   -127532.936 1
  18905005.345   -21868886.762 3 -16890777.064 1
 95  9 27  6 40 29.9810000  0  8  7 18 19 27  2 31 16 29
  18884849.720          -0.99112
  16728846.282   -21311730.700 6 -16435443.055 6
  15072614.853   -22406320.929 7 -17306827.605 8
  15095256.095   -23924774.222 7 -18471102.477 8
  16280242.290   -23301520.631 5 -15566624.770 5
  16487147.642   -25425072.345 6 -19578799.223 6
  18254890.157    -2491508.131 5   -144258.743 1
  18918161.329   -21799748.511 3 -16836903.089 1
 95  9 27  6 40 59.9810000  0  8  7 18 19 27  2 31 16 29
  18856545.415     -148694.900 2
  16739488.985   -21255799.180 6 -16391860.067 6
  15067269.525   -22434408.953 7 -17328714.385 7
  15080378.470   -24002956.342 7 -18532023.604 8
  16263755.579   -23388172.676 5 -15634145.843 6
  16489207.876   -25414257.208 6 -19570371.855 6
  18250893.790    -2512490.937 5   -160609.005 1
  18931340.384   -21730529.133 3 -16782965.938 1
 95  9 27  6 41 29.9810000  0  8  7 18 19 27  2 31 16 29
  18828252.907     -297406.157 2        -0.03612
  16750188.946   -21199549.659 6 -16348029.283 6
  15061980.407   -22462213.755 7 -17350380.467 7
  15065543.751   -24080914.747 7 -18592770.407 8
  16247308.884   -23474567.555 5 -15701466.526 5
  16491371.446   -25402880.389 6 -19561506.792 6
  18246995.071    -2532979.705 5   -176574.298 1
  18944520.353   -21661249.065 3 -16728981.449 1
 95  9 27  6 41 59.9810000  0  8  7 18 19 27  2 31 16 29
  18799954.618     -446117.062 2
  16760953.571   -21142997.779 6 -16303962.890 6
  15056740.423   -22489742.961 7 -17371831.809 7
  15050751.884   -24158647.973 7 -18653341.752 8
  16230925.157   -23560707.482 5 -15768588.546 6
  16493640.110   -25390952.974 6 -19552212.699 6
  18243194.829    -2552986.502 5   -192164.017 1
  18957715.392   -21591900.488 2 -16674943.585 2
 95  9 27  6 42 29.9810000  0  8  7 18 19 27  2 31 16 29
  18771658.728     -594811.783 3        -0.17011
  16771770.650   -21086155.667 6 -16259670.357 6
  15051547.868   -22517006.789 7 -17393076.358 8
  15036000.439   -24236160.324 7 -18713740.990 8
  16214572.071   -23646595.336 5 -15835514.126 6
  16496010.337   -25378500.096 6 -19542509.164 6
  18239471.985    -2572530.861 5   -207393.428 1
  18970929.821   -21522476.694 3 -16620847.131 1
 95  9 27  6 42 59.9810000  0  8  7 18 19 27  2 31 16 29
  18743363.759     -743489.019 3   -115852.573 2
  16782637.009   -21029024.598 6 -16215152.651 6
  15046410.048   -22544005.442 7 -17414114.274 8
  15021290.454   -24313464.428 7 -18773977.951 8
  16198281.415   -23732231.884 5 -15902243.884 6
  16498478.071   -25365528.888 6 -19532401.726 6
  18235838.329    -2591627.482 5   -222273.922 1
  18984140.610   -21452994.539 2 -16566705.187 2
 95  9 27  6 43 29.9810000  0  7  7 18 19 27  2 31 16
  18715075.439     -892135.827 3   -231681.230 2
  16793563.775   -20971611.836 6 -16170415.448 6
  15041328.345   -22570725.529 7 -17434935.120 8
  15006622.634   -24390541.083 7 -18834037.680 8
  16182035.634   -23817600.257 5 -15968764.674 6
  16501052.860   -25352021.085 6 -19521876.162 6
  18232289.954    -2610267.718 5   -236798.805 1
 95  9 27  6 43 59.9810000  0  7  7 18 19 27  2 31 16
  18686798.001    -1040764.172 4   -347495.521 1
  16804540.345   -20913946.072 6 -16125481.104 6
  15036289.353   -22597188.000 7 -17455555.223 8
  14991999.970   -24467393.931 7 -18893923.020 8
  16165847.329   -23902697.155 6 -16035073.927 6
  16503719.876   -25337994.109 6 -19510946.045 6
  18228822.071    -2628481.672 4   -250991.508 1
 95  9 27  6 44 29.9810000  0  7  7 18 19 27  2 31 16
  18658516.032    -1189400.176 4   -463315.752 2
  16815559.517   -20856036.545 6 -16080356.823 6
  15031301.337   -22623411.444 7 -17475989.083 8
  14977416.306   -24544022.789 7 -18953633.814 8
  16149694.204   -23987538.806 5 -16101184.302 6
  16506481.782   -25323466.510 6 -19499625.834 6
  18225434.360    -2646284.974 4   -264864.228 1
 95  9 27  6 44 59.9810000  0  7  7 18 19 27  2 31 16
  18630228.220    -1338051.219 4   -579147.724 2
  16826624.853   -20797888.277 6 -16035046.497 6
  15026355.962   -22649394.811 7 -17496235.857 8
  14962879.735   -24620416.651 7 -19013161.503 8
  16133598.829   -24072123.300 5 -16167094.278 6
  16509349.306   -25308414.026 6 -19487896.627 6
  18222129.814    -2663660.583 4   -278403.672 1
 95  9 27  6 45 29.9810000  0  7  7 18 19 27  2 31 16
  18601940.853    -1486680.299 3   -694962.560 2
  16837735.353   -20739490.370 6 -15989541.648 6
  15021462.907   -22675124.031 7 -17516284.601 8
  14948393.017   -24696546.727 7 -19072483.629 8
  16117554.665   -24156430.962 6 -16232788.552 6
  16512317.142   -25292822.721 6 -19475747.559 7
  18218904.790    -2680577.805 3   -291585.913 1
 95  9 27  6 45 59.9810000  0  7  7 18 19 27  2 31 16
  18573660.634    -1635284.479 4   -810758.033 3
  16848896.728   -20680844.472 6 -15943843.563 6
  15016614.345   -22700606.340 7 -17536140.943 8
  14933954.337   -24772418.696 7 -19131604.645 8
  16101565.751   -24240474.222 6 -16298276.783 6
  16515384.556   -25276700.364 6 -19463184.672 7
  18215781.118    -2697028.426 3   -304404.568 1
 95  9 27  6 46 29.9810000  0  7  7 18 19 27  2 31 16
  18545393.720    -1783859.408 3   -926530.676 2
  16860103.235   -20621937.678 6 -15897942.182 6
  15011813.212   -22725813.058 7 -17555782.532 8
  14919567.603   -24848029.216 7 -19190521.929 8
  16085623.618   -24324252.115 6 -16363558.240 6
  16518552.220   -25260036.652 6 -19450199.959 7
  18212740.165    -2712986.173 3   -316839.197 1
 95  9 27  6 46 59.9810000  0  7  7 18 19 27  2 31 16
  18517126.181    -1932396.822 3  -1042274.139 1
  16871367.126   -20562765.584 6 -15851834.070 6
  15007073.626   -22750733.652 7 -17575201.181 8
  14905225.814   -24923395.627 7 -19249248.993 8
  16069731.540   -24407760.684 6 -16428629.840 6
  16521829.939   -25242824.523 6 -19436787.909 7
  18209795.735    -2728438.481 3   -328879.955 2
 95  9 27  6 47 29.9810000  0  7  7 18 19 27  2 31 16
  18488860.337    -2080906.708 3  -1157996.128 2
  16882679.321   -20503329.263 6 -15805520.068 6
  15002385.454   -22775368.777 7 -17594397.375 8
  14890927.321   -24998536.052 7 -19307799.967 8
  16053892.189   -24490999.875 6 -16493491.539 6
  16525205.759   -25225082.968 6 -19422963.328 7
  18206955.782    -2743403.994 4   -340541.402 1
 95  9 27  6 47 59.9810000  0  7  7 18 19 27  2 31 16
  18460608.876    -2229406.981 3  -1273710.615 4
  16894042.673   -20443619.185 6 -15758992.740 6
  14997753.892   -22799715.743 7 -17613369.035 8
  14876670.040   -25073451.528 7 -19366175.646 8
  16038106.345   -24573968.509 6 -16558142.412 6
  16528677.173   -25206818.000 6 -19408730.896 7
  18204198.189    -2757893.221 4   -351831.736 1
 95  9 27  6 48 29.9810000  0  7  7 18 19 27  2 31 16
  18432350.626    -2377888.322 3  -1389410.350 3
  16905451.868   -20383645.498 6 -15712260.012 5
  14993171.978   -22823785.963 7 -17632125.047 8
  14862456.025   -25148151.446 7 -19424383.370 8
  16022367.423   -24656661.578 6 -16622578.558 6
  16532251.970   -25188044.831 6 -19394102.442 7
  18201527.243    -2771933.530 4   -362772.211 1
 95  9 27  6 48 59.9810000  0  7  7 18 19 27  2 31 16
  18404102.439    -2526342.206 3  -1505088.689 4
  16916912.884   -20323417.209 6 -15665328.910 6
  14988640.329   -22847608.735 7 -17650688.254 8
  14848282.501   -25222640.643 7 -19482426.898 8
  16006680.689   -24739086.384 6 -16686805.676 6
  16535922.415   -25168781.953 6 -19379092.405 7
  18198936.806    -2785545.941 4
 95  9 27  6 49 29.9810000  0  7  7 18 19 27  2 31 16
  18375855.892    -2674773.827 4  -1620749.664 2
  16928421.454   -20262951.286 6 -15618212.626 5
  14984150.337   -22871185.992 7 -17669060.149 8
  14834151.009   -25296898.606 7 -19540290.249 9
  15991045.993   -24821250.254 6 -16750829.456 6
  16539673.142   -25149047.302 6 -19363714.759 7
  18196426.415    -2798747.787 4
 95  9 27  6 49 59.9810000  0  7  7 18 19 27  2 31 16
  18347618.400    -2823159.595 3  -1736374.934 3
  16939969.681   -20202257.991 6 -15570919.173 5
  14979712.220   -22894507.812 7 -17687233.006 8
  14820067.485   -25370909.151 7 -19597960.803 8
  15975457.462   -24903154.218 6 -16814650.722 6
  16543523.814   -25128835.453 6 -19347965.261 7
  18193990.235    -2811531.382 3
 95  9 27  6 50 29.9800000  0  7  7 18 19 27  2 31 16
  18319390.512    -2971486.710 4  -1851954.483 3
  16951558.988   -20141349.548 6 -15523458.061 5
  14975323.793   -22917574.760 7 -17705207.255 8
  14806031.317   -25444673.091 7 -19655439.200 8
  15959923.582   -24984793.427 6 -16878265.687 7
  16547460.098   -25108134.216 6 -19331834.431 7
  18191633.121    -2823889.897 4
 95  9 27  6 50 59.9800000  0  7  7 18 19 27  2 31 16
  18291175.160    -3119777.192 5  -1967505.503 4
  16963189.254   -20080218.891 6 -15475823.796 5
  14970981.770   -22940375.430 7 -17722974.006 8
  14792038.895   -25518187.321 7 -19712723.013 8
  15944439.645   -25066180.107 6 -16941683.875 7
  16551493.652   -25086928.748 6 -19315310.685 6
  18189371.567    -2835816.380 4
 95  9 27  6 51 29.9800000  0  7  7 18 19 27  2 31 16
  18262967.059    -3268017.388 4  -2083017.357 4
  16974865.504   -20018874.532 6 -15428023.012 5
  14966705.410   -22962883.428 7 -17740512.710 8
  14778098.817   -25591441.192 7 -19769803.948 8
  15928999.520   -25147307.406 6 -17004899.943 7
  16555630.410   -25065200.939 6 -19298379.934 7
  18187186.434    -2847306.857 4
 95  9 27  6 51 59.9800000  0  7  7 18 19 27  2 31 16
  18234763.527    -3416190.355 3  -2198476.836 4
  16986585.660   -19957308.650 6 -15380049.613 5
  14962472.746   -22985099.687 7 -17757824.078 8
  14764209.613   -25664441.313 7 -19826687.163 8
  15913615.090   -25228163.096 6 -17067904.376 7
  16559861.942   -25042944.655 6 -19281037.364 6
  18185074.809    -2858361.736 3        -0.38811
 95  9 27  6 52 29.9800000  0  7  7 18 19 27  2 31 16
  18206582.535    -3564305.698 4  -2313891.373 4
  16998336.840   -19895519.013 6 -15331901.865 5
  14958306.027   -23007030.932 7 -17774913.364 8
  14750366.434   -25737184.148 7 -19883369.891 8
  15898275.598   -25308758.548 6 -17130706.012 7
  16564195.020   -25020164.004 6 -19263286.210 6
  18183053.942    -2868993.753 3     -8285.100 1
 95  9 27  6 52 59.9800000  0  7  7 18 19 27  2 31 16
  18178405.801    -3712348.050 4  -2429249.039 2
  17010141.051   -19833510.266 6 -15283583.381 5
  14954185.551   -23028668.889 7 -17791774.117 8
  14736576.152   -25809655.275 7 -19939840.900 8
  15882986.051   -25389099.473 6 -17193309.318 7
  16568631.160   -24996868.001 6 -19245133.481 6
  18181113.910    -2879198.358 2    -16236.705 1
 95  9 27  6 53 29.9800000  0  7  7 18 19 27  2 31 16
  18150253.012    -3860321.182 5  -2544552.736 3
  17021982.504   -19771296.984 6 -15235105.514 5
  14950118.512   -23050032.989 7 -17808421.477 8
  14722837.246   -25881866.316 7 -19996109.243 8
  15867744.590   -25469192.405 6 -17255719.378 7
  16573156.934   -24973082.208 6 -19226599.087 6
  18179244.395    -2888988.633 1    -23865.537 1
 95  9 27  6 53 59.9800000  0  6  7 18 19 27  2 31
  18122100.746    -4008247.433 5  -2659819.929 3
  17033862.629   -19708869.277 6 -15186460.579 5
  14946103.121   -23071149.132 7 -17824875.617 8
  14709143.340   -25953822.225 7 -20052178.795 8
  15852547.965   -25549050.192 6 -17317946.215 7
  16577776.527   -24948823.749 6 -19207696.407 6
 95  9 27  6 54 29.9800000  0  6  7 18 19 27  2 31
  18093959.934    -4156131.911 4  -2775054.586 2
  17045781.168   -19646220.883 6 -15137643.656 5
  14942129.418   -23092012.315 7 -17841132.643 8
  14695497.871   -26025521.118 7 -20108048.060 8
  15837397.184   -25628665.941 6 -17379984.448 7
  16582487.285   -24924087.163 6 -19188421.149 6
 95  9 27  6 54 59.9800000  0  6  7 18 19 27  2 31
  18065830.879    -4303974.096 5  -2890256.280 3
  17057743.699   -19583347.064 6 -15088651.081 5
  14938210.371   -23112612.750 7 -17857184.935 8
  14681900.301   -26096974.745 7 -20163726.208 9
  15822297.324   -25708026.884 6 -17441824.124 7
  16587282.442   -24898879.963 6 -19168779.182 6
 95  9 27  6 55 29.9800000  0  6  7 18 19 27  2 31
  18037704.926    -4451774.729 5  -3005425.585 4
  17069751.785   -19520236.716 6 -15039474.188 5
  14934342.356   -23132951.613 7 -17873033.389 8
  14668349.442   -26168179.270 7 -20219210.246 9
  15807248.809   -25787125.629 6 -17503459.484 7
  16592168.582   -24873192.110 6 -19148762.669 6
 95  9 27  6 55 59.9800000  0  6  7 18 19 27  2 31
  18009583.168    -4599526.994 5  -3120557.232 3
  17081802.856   -19456898.960 5 -14990120.100 5
  14930518.996   -23153024.351 7 -17888674.486 8
  14654847.934   -26239131.195 7 -20274497.451 9
  15792244.668   -25865969.694 6 -17564896.394 7
  16597150.973   -24847011.761 6 -19128362.399 6
 95  9 27  6 56 29.9800000  0  6  7 18 19 27  2 31
  17981477.981    -4747214.888 5  -3235638.695 3
  17093897.590   -19393347.178 5 -14940599.246 5
  14926754.699   -23172809.771 7 -17904091.701 8
  14641394.582   -26309833.373 7 -20329590.066 9
  15777287.981   -25944556.978 6 -17626133.213 7
  16602225.988   -24820332.290 6 -19107573.204 6
 95  9 27  6 56 59.9800000  0  6  7 18 19 27  2 31
  17953390.059    -4894837.106 5  -3350668.938 1
  17106038.410   -19329588.970 6 -14890917.546 5
  14923043.684   -23192309.680 7 -17919286.435 8
  14627989.613   -26380284.406 7 -20384486.984 9
  15762380.496   -26022886.196 6 -17687168.956 8
  16607397.067   -24793161.437 6 -19086401.110 6
 95  9 27  6 57 29.9800000  0  6  7 18 19 27  2 31
  17925311.192    -5042386.698 5  -3465642.625 4
  17118201.387   -19265628.974 5 -14841078.610 5
  14919385.879   -23211526.615 7 -17934260.673 8
  14614631.223   -26450473.719 7 -20439179.956 9
  15747526.590   -26100951.261 7 -17747998.862 7
  16612661.527   -24765502.121 6 -19064848.394 6
 95  9 27  6 57 59.9800000  0  6  7 18 19 27  2 31
  17897247.668    -5189876.397 5  -3580569.656 2
  17130414.324   -19201478.892 6 -14791091.543 5
  14915789.059   -23230456.450 7 -17949011.214 8
  14601326.481   -26520412.697 7 -20493677.866 9
  15732722.598   -26178751.087 7 -17808622.090 7
  16618012.356   -24737380.031 6 -19042935.089 6
 95  9 27  6 58 29.9800000  0  6  7 18 19 27  2 31
  17869192.949    -5337301.246 4  -3695446.153 4
  17142655.442   -19137134.711 5 -14740953.242 5
  14912244.160   -23249089.846 7 -17963530.750 7
  14588063.074   -26590101.489 7 -20547980.820 9
  15717969.418   -26256266.996 7 -17869024.082 8
  16623448.129   -24708814.588 6 -19020676.300 6
 95  9 27  6 58 59.9800000  0  6  7 18 19 27  2 31
  17841159.379    -5484649.784 5  -3810263.179 3
  17154933.801   -19072605.187 5 -14690670.496 5
  14908747.817   -23267439.246 7 -17977828.990 8
  14574851.535   -26659533.122 7 -20602083.386 9
  15703272.465   -26333502.500 7 -17929207.578 7
  16628967.434   -24679823.094 6 -18998085.523 6
 95  9 27  6 59 29.9800000  0  6  7 18 19 27  2 31
  17813129.926    -5631914.594 5  -3925014.970 3
  17167248.402   -19007893.762 5 -14640246.037 5
  14905312.176   -23285510.957 7 -17991910.850 8
  14561685.840   -26728694.300 7 -20655975.208 9
  15688624.762   -26410479.653 7 -17989189.762 7
  16634566.082   -24650402.098 6 -18975160.072 6
 95  9 27  6 59 59.9800000  0  6  7 18 19 27  2 31
  17785123.567    -5779076.956 5  -4039686.926 2
  17179602.059   -18942992.199 5 -14589673.406 5
  14901923.301   -23303297.506 7 -18005770.505 8
  14548580.215   -26797570.880 7 -20709645.263 9
  15674025.684   -26487205.408 7 -18048976.053 7
  16640247.559   -24620532.756 6 -18951885.260 6
 95  9 27  7  0 29.9800000  0  6  7 18 19 27  2 31
  17757139.051    -5926129.918 5  -4154273.621 3
  17191987.496   -18877902.266 5 -14538954.009 5
  14898595.746   -23320801.698 7 -18019410.135 8
  14535530.817   -26866154.422 7 -20763086.983 9
  15659472.238   -26563689.256 7 -18108573.849 7
  16646013.285   -24590205.138 6 -18928253.337 6
 95  9 27  7  0 59.9800000  0  6  7 18 19 27  2 31
  17729170.856    -6073083.741 5  -4268783.071 2
  17204409.848   -18812624.907 5 -14488088.554 5
  14895314.254   -23338024.233 7 -18032830.284 8
  14522536.293   -26934441.089 7 -20816297.371 8
  15644959.520   -26639956.488 7 -18168002.857 7
  16651876.910   -24559409.116 6 -18904256.433 6
 95  9 27  7  1 29.9800000  0  6  7 18 19 27  2 31
  17701230.285    -6219941.808 5  -4383217.900 3
  17216866.629   -18747158.433 5 -14437075.730 5
  14892094.512   -23354952.848 7 -18046021.411 8
  14509600.340   -27002428.492 7 -20869274.567 8
  15630486.152   -26715997.638 7 -18227255.690 7
  16657832.410   -24528129.024 6 -18879882.327 6
 95  9 27  7  1 59.9800000  0  6  7 18 19 27  2 31
  17673304.731    -6366710.983 5  -4497583.493 3
  17229352.520   -18681520.672 5 -14385929.443 5
  14888929.637   -23371582.223 7 -18058979.360 8
  14496715.027   -27070143.684 7 -20922039.659 8
  15616062.309   -26791792.427 7 -18286316.558 7
  16663873.012   -24496382.061 6 -18855144.438 6
 95  9 27  7  2 29.9800000  0  6  7 18 19 27  2 31
  17645387.715    -6513386.661 5  -4611876.224 4
  17241878.043   -18615720.288 5 -14334656.413 5
  14885825.504   -23387918.057 7 -18071708.578 8
  14483874.582   -27137593.228 7 -20974597.734 8
  15601690.996   -26867336.216 7 -18345181.852 7
  16670004.121   -24464173.802 6 -18830047.097 6
 95  9 27  7  2 59.9800000  0  6  7 18 19 27  2 31
  17617497.699    -6659943.431 5  -4726076.290 4
  17254430.723   -18549745.969 5 -14283247.878 5
  14882767.801   -23403968.812 7 -18084215.661 8
  14471092.949   -27204770.468 7 -21026943.628 8
  15587364.676   -26942615.538 7 -18403841.051 7
  16676219.543   -24431495.256 6 -18804583.287 6
 95  9 27  7  3 29.9800000  0  6  7 18 19 27  2 31
  17589637.660    -6806373.167 5  -4840177.384 3
  17267022.645   -18483600.002 5 -14231705.577 5
  14879763.004   -23419755.392 7 -18096516.893 8
  14458361.207   -27271681.122 7 -21079081.801 8
  15573088.395   -27017620.494 7 -18462286.461 8
  16682522.942   -24398360.284 6 -18778763.824 6
 95  9 27  7  3 59.9800000  0  6  7 18 19 27  2 31
  17561803.371    -6952665.419 5  -4954171.313 5
  17279644.817   -18417258.018 5 -14180010.533 5
  14876808.652   -23435280.109 7 -18108614.078 8
  14445683.910   -27338311.000 7 -21131001.179 8
  15558867.606   -27092356.980 7 -18520522.671 7
  16688917.902   -24364776.584 6 -18752594.715 6
 95  9 27  7  4 29.9800000  0  6  7 18 19 27  2 31
  17533986.645    -7098824.609 5  -5068061.585 5
  17292308.035   -18350714.154 5 -14128158.181 5
  14873899.574   -23450550.057 7 -18120512.742 8
  14433056.371   -27404650.706 7 -21182694.457 8
  15544694.035   -27166849.502 7 -18578568.781 8
  16695393.152   -24330752.551 6 -18726082.488 6
 95  9 27  7  4 59.9800000  0  6  7 18 19 27  2 31
  17506191.613    -7244860.441 5  -5181855.743 5
  17305011.863   -18283968.693 5 -14076148.747 5
  14871043.871   -23465552.967 7 -18132203.330 8
  14420492.215   -27470692.455 7 -21234155.560 9
  15530564.254   -27241092.199 7 -18636420.213 8
  16701946.277   -24296307.988 6 -18699242.569 6
 95  9 27  7  5 29.9800000  0  6  7 18 19 27  2 31
  17478424.738    -7390776.047 5  -5295556.224 5
  17317746.082   -18217040.074 5 -14023996.610 5
  14868247.910   -23480265.750 7 -18143667.833 8
  14407981.184   -27536437.975 7 -21285385.833 9
  15516482.223   -27315084.616 7 -18694076.627 8
  16708579.527   -24261453.012 6 -18672082.853 6
 95  9 27  7  5 59.9800000  0  6  7 18 19 27  2 31
  17450681.340    -7536590.078 5  -5409177.531 5
  17330510.731   -18149963.705 5 -13971729.301 5
  14865505.051   -23494686.406 7 -18154904.716 8
  14395520.699   -27601903.407 7 -21336397.860 9
  15502449.231   -27388846.534 7 -18751553.438 8
  16715285.535   -24226205.926 6 -18644617.589 6
 95  9 27  7  6 29.9800000  0  6  7 18 19 27  2 31
  17422957.449    -7682291.276 5  -5522710.914 5
  17343290.817   -18082766.468 5 -13919367.835 5
  14862819.098   -23508803.500 7 -18165905.053 8
  14383121.027   -27667089.690 7 -21387192.369 9
  15488457.723   -27462356.556 7 -18808833.955 8
  16722066.746   -24190557.415 6 -18616839.524 6
 95  9 27  7  6 59.9800000  0  6  7 18 19 27  2 31
  17395250.988    -7827876.446 5  -5636153.896 5
  17356100.910   -18015461.410 5 -13866922.352 5
  14860192.715   -23522621.560 7 -18176672.379 8
  14370766.551   -27731994.537 7 -21437767.559 9
  15474521.832   -27535615.480 7 -18865918.821 8
  16728927.356   -24154502.576 6 -18588744.843 5
 95  9 27  7  7 29.9800000  0  6  7 18 19 27  2 31
  17367568.215    -7973334.326 5  -5749497.700 5
  17368926.746   -17948044.553 5 -13814389.747 5
  14857618.059   -23536134.992 7 -18187202.337 8
  14358469.176   -27796618.261 7 -21488123.704 9
  15460625.145   -27608631.109 7 -18922814.109 8
  16735873.481   -24118019.294 6 -18560316.316 6
 95  9 27  7  7 59.9800000  0  6  7 18 19 27  2 31
  17339915.418    -8118652.811 5  -5862732.872 5
  17381784.692   -17880487.436 5 -13761747.857 5
  14855109.707   -23549328.496 7 -18197482.986 8
  14346229.629   -27860939.598 7 -21538244.223 9
  15446780.371   -27681391.406 7 -18979510.439 8
  16742898.356   -24081098.240 6 -18531546.662 6
 95  9 27  7  8 29.9800000  0  6  7 18 19 27  2 31
  17312289.301    -8263839.654 5  -5975865.457 5
  17394667.856   -17812778.338 5 -13708987.536 4
  14852653.082   -23562215.130 7 -18207524.521 8
  14334049.356   -27924955.926 7 -21588127.076 9
  15432978.879   -27753903.958 7 -19036013.722 8
  16750007.496   -24043734.621 6 -18502432.160 6
 95  9 27  7  8 59.9800000  0  6  7 18 19 27  2 31
  17284689.324    -8408898.089 5  -6088898.003 5
  17407592.777   -17744904.750 5 -13656099.056 4
  14850261.512   -23574785.497 7 -18217319.626 8
  14321923.793   -27988659.554 7 -21637766.265 9
  15419229.363   -27826185.189 7 -19092336.738 8
  16757202.817   -24005927.352 6 -18472971.953 6
 95  9 27  7  9 29.9790000  0  6  7 18 19 27  2 31
  17257108.804    -8553824.700 5  -6201827.800 5
  17420538.319   -17676866.681 5 -13603082.393 5
  14847928.819   -23587036.002 7 -18226865.471 8
  14309865.140   -28052053.716 7 -21687164.309 9
  15405513.030   -27898234.709 6 -19148479.207 7
  16764478.374   -23967683.939 6 -18443171.889 6
 95  9 27  7  9 59.9790000  0  6  7 18 19 27  2 31
  17229552.569    -8698640.304 5  -6314671.117 4
  17433511.648   -17608677.020 5 -13549947.607 4
  14845658.851   -23598999.984 7 -18236188.064 8
  14297853.155   -28115149.147 7 -21736329.568 8
  15391847.046   -27970062.452 6 -19204448.858 8
  16771838.444   -23929013.747 6 -18413039.266 6
 95  9 27  7 10 29.9790000  0  6  7 18 19 27  2 31
  17202020.093    -8843326.592 5  -6427413.654 4
  17446511.804   -17540349.310 5 -13496705.216 5
  14843427.460   -23610691.172 7 -18245298.089 8
  14285905.499   -28177936.212 7 -21785254.557 8
  15378223.593   -28041658.654 6 -19260238.088 8
  16779281.609   -23889909.883 6 -18382568.726 6
 95  9 27  7 10 59.9790000  0  6  7 18 19 27  2 31
  17174517.819    -8987867.799 5  -6540043.153 4
  17459540.421   -17471886.492 5 -13443357.590 5
  14841256.140   -23622109.590 7 -18254195.556 8
  14274019.648   -28240417.781 7 -21833941.499 8
  15364645.577   -28113013.648 6 -19315839.367 8
  16786799.679   -23850397.730 6 -18351780.027 6
 95  9 27  7 11 29.9790000  0  6  7 18 19 27  2 31
  17147038.648    -9132248.682 5  -6652547.716 5
  17472595.194   -17403281.859 5 -13389899.454 5
  14839131.640   -23633272.036 7 -18262893.580 8
  14262188.327   -28302590.009 7 -21882387.378 8
  15351111.710   -28184105.078 6 -19371235.271 7
  16794390.038   -23810485.658 6 -18320679.709 6
